<?xml version="1.0" encoding="UTF-8" standalone="no" ?>
<gpx xmlns="http://www.topografix.com/GPX/1/1" xmlns:xsi="http://www.w3.org/2001/XMLSchema-instance" xsi:schemaLocation="http://www.topografix.com/GPX/1/1 http://www.topografix.com/GPX/1/1/gpx.xsd" version="1.1" creator="VisuGPX - https://www.visugpx.com">
  <metadata>
    <name>autour de Ris et le saut du loup. </name>
    <desc><![CDATA[ballade autour du bourd de Ris avec détour vers la cascade du saut du loup.]]></desc>
  </metadata>
  <trk>
    <name><![CDATA[autour de Ris et le saut du loup. _1]]></name>
    <trkseg>
      <trkpt lat="45.99966" lon="3.50042">
        <ele>361.79998779297</ele>
        <time>2021-05-23T07:31:50Z</time>
      </trkpt>
      <trkpt lat="45.99966" lon="3.50041">
        <ele>362.60000610352</ele>
        <time>2021-05-23T07:31:52Z</time>
      </trkpt>
      <trkpt lat="45.99966" lon="3.50039">
        <ele>362.39999389648</ele>
        <time>2021-05-23T07:31:53Z</time>
      </trkpt>
      <trkpt lat="45.99966" lon="3.50037">
        <ele>362.39999389648</ele>
        <time>2021-05-23T07:31:54Z</time>
      </trkpt>
      <trkpt lat="45.99966" lon="3.50035">
        <ele>362.39999389648</ele>
        <time>2021-05-23T07:31:55Z</time>
      </trkpt>
      <trkpt lat="45.99966" lon="3.50034">
        <ele>362.39999389648</ele>
        <time>2021-05-23T07:31:56Z</time>
      </trkpt>
      <trkpt lat="45.99966" lon="3.50033">
        <ele>362.39999389648</ele>
        <time>2021-05-23T07:31:57Z</time>
      </trkpt>
      <trkpt lat="45.99967" lon="3.50032">
        <ele>362.39999389648</ele>
        <time>2021-05-23T07:31:58Z</time>
      </trkpt>
      <trkpt lat="45.99969" lon="3.50027">
        <ele>362.39999389648</ele>
        <time>2021-05-23T07:32:02Z</time>
      </trkpt>
      <trkpt lat="45.99968" lon="3.50015">
        <ele>362.20001220703</ele>
        <time>2021-05-23T07:32:12Z</time>
      </trkpt>
      <trkpt lat="45.99967" lon="3.50014">
        <ele>362.20001220703</ele>
        <time>2021-05-23T07:32:13Z</time>
      </trkpt>
      <trkpt lat="45.99966" lon="3.50013">
        <ele>362.39999389648</ele>
        <time>2021-05-23T07:32:14Z</time>
      </trkpt>
      <trkpt lat="45.99966" lon="3.50011">
        <ele>362.39999389648</ele>
        <time>2021-05-23T07:32:15Z</time>
      </trkpt>
      <trkpt lat="45.99965" lon="3.5001">
        <ele>362.20001220703</ele>
        <time>2021-05-23T07:32:16Z</time>
      </trkpt>
      <trkpt lat="45.99963" lon="3.50003">
        <ele>362.79998779297</ele>
        <time>2021-05-23T07:32:21Z</time>
      </trkpt>
      <trkpt lat="45.99962" lon="3.50002">
        <ele>363</ele>
        <time>2021-05-23T07:32:22Z</time>
      </trkpt>
      <trkpt lat="45.9996" lon="3.49998">
        <ele>363.79998779297</ele>
        <time>2021-05-23T07:32:25Z</time>
      </trkpt>
      <trkpt lat="45.99959" lon="3.49997">
        <ele>363.79998779297</ele>
        <time>2021-05-23T07:32:26Z</time>
      </trkpt>
      <trkpt lat="45.99956" lon="3.49992">
        <ele>364.20001220703</ele>
        <time>2021-05-23T07:32:30Z</time>
      </trkpt>
      <trkpt lat="45.99955" lon="3.4999">
        <ele>364.39999389648</ele>
        <time>2021-05-23T07:32:32Z</time>
      </trkpt>
      <trkpt lat="45.99952" lon="3.49988">
        <ele>364.79998779297</ele>
        <time>2021-05-23T07:32:35Z</time>
      </trkpt>
      <trkpt lat="45.99952" lon="3.49987">
        <ele>364.79998779297</ele>
        <time>2021-05-23T07:32:36Z</time>
      </trkpt>
      <trkpt lat="45.99949" lon="3.49985">
        <ele>365.39999389648</ele>
        <time>2021-05-23T07:32:39Z</time>
      </trkpt>
      <trkpt lat="45.99948" lon="3.49984">
        <ele>365.60000610352</ele>
        <time>2021-05-23T07:32:41Z</time>
      </trkpt>
      <trkpt lat="45.99946" lon="3.49983">
        <ele>365.79998779297</ele>
        <time>2021-05-23T07:32:42Z</time>
      </trkpt>
      <trkpt lat="45.99943" lon="3.49982">
        <ele>365.79998779297</ele>
        <time>2021-05-23T07:32:44Z</time>
      </trkpt>
      <trkpt lat="45.99942" lon="3.49981">
        <ele>366</ele>
        <time>2021-05-23T07:32:45Z</time>
      </trkpt>
      <trkpt lat="45.99937" lon="3.49977">
        <ele>366</ele>
        <time>2021-05-23T07:32:49Z</time>
      </trkpt>
      <trkpt lat="45.99937" lon="3.49976">
        <ele>366</ele>
        <time>2021-05-23T07:32:50Z</time>
      </trkpt>
      <trkpt lat="45.99936" lon="3.49975">
        <ele>366.20001220703</ele>
        <time>2021-05-23T07:32:51Z</time>
      </trkpt>
      <trkpt lat="45.99936" lon="3.49974">
        <ele>366.39999389648</ele>
        <time>2021-05-23T07:32:52Z</time>
      </trkpt>
      <trkpt lat="45.99933" lon="3.49971">
        <ele>367</ele>
        <time>2021-05-23T07:32:55Z</time>
      </trkpt>
      <trkpt lat="45.99926" lon="3.49967">
        <ele>367.39999389648</ele>
        <time>2021-05-23T07:33:00Z</time>
      </trkpt>
      <trkpt lat="45.99923" lon="3.49965">
        <ele>367.60000610352</ele>
        <time>2021-05-23T07:33:02Z</time>
      </trkpt>
      <trkpt lat="45.99921" lon="3.49963">
        <ele>368</ele>
        <time>2021-05-23T07:33:04Z</time>
      </trkpt>
      <trkpt lat="45.99915" lon="3.49958">
        <ele>369</ele>
        <time>2021-05-23T07:33:11Z</time>
      </trkpt>
      <trkpt lat="45.99915" lon="3.49957">
        <ele>369.20001220703</ele>
        <time>2021-05-23T07:33:12Z</time>
      </trkpt>
      <trkpt lat="45.9991" lon="3.49951">
        <ele>370</ele>
        <time>2021-05-23T07:33:19Z</time>
      </trkpt>
      <trkpt lat="45.99909" lon="3.4995">
        <ele>370.20001220703</ele>
        <time>2021-05-23T07:33:20Z</time>
      </trkpt>
      <trkpt lat="45.99907" lon="3.49948">
        <ele>370.60000610352</ele>
        <time>2021-05-23T07:33:22Z</time>
      </trkpt>
      <trkpt lat="45.99903" lon="3.49943">
        <ele>371.20001220703</ele>
        <time>2021-05-23T07:33:28Z</time>
      </trkpt>
      <trkpt lat="45.99901" lon="3.4994">
        <ele>371.79998779297</ele>
        <time>2021-05-23T07:33:32Z</time>
      </trkpt>
      <trkpt lat="45.999" lon="3.49936">
        <ele>372.39999389648</ele>
        <time>2021-05-23T07:33:35Z</time>
      </trkpt>
      <trkpt lat="45.99896" lon="3.49932">
        <ele>373.60000610352</ele>
        <time>2021-05-23T07:33:41Z</time>
      </trkpt>
      <trkpt lat="45.99895" lon="3.49931">
        <ele>373.60000610352</ele>
        <time>2021-05-23T07:33:42Z</time>
      </trkpt>
      <trkpt lat="45.99892" lon="3.49923">
        <ele>374.60000610352</ele>
        <time>2021-05-23T07:33:48Z</time>
      </trkpt>
      <trkpt lat="45.9989" lon="3.49918">
        <ele>375</ele>
        <time>2021-05-23T07:33:52Z</time>
      </trkpt>
      <trkpt lat="45.99887" lon="3.49912">
        <ele>375.60000610352</ele>
        <time>2021-05-23T07:33:57Z</time>
      </trkpt>
      <trkpt lat="45.99884" lon="3.49906">
        <ele>376.20001220703</ele>
        <time>2021-05-23T07:34:02Z</time>
      </trkpt>
      <trkpt lat="45.99879" lon="3.49899">
        <ele>376.79998779297</ele>
        <time>2021-05-23T07:34:08Z</time>
      </trkpt>
      <trkpt lat="45.99875" lon="3.49895">
        <ele>377</ele>
        <time>2021-05-23T07:34:12Z</time>
      </trkpt>
      <trkpt lat="45.99871" lon="3.49889">
        <ele>377.79998779297</ele>
        <time>2021-05-23T07:34:18Z</time>
      </trkpt>
      <trkpt lat="45.99869" lon="3.49889">
        <ele>378.20001220703</ele>
        <time>2021-05-23T07:34:22Z</time>
      </trkpt>
      <trkpt lat="45.99866" lon="3.49881">
        <ele>378.39999389648</ele>
        <time>2021-05-23T07:34:27Z</time>
      </trkpt>
      <trkpt lat="45.99864" lon="3.49872">
        <ele>378.39999389648</ele>
        <time>2021-05-23T07:34:32Z</time>
      </trkpt>
      <trkpt lat="45.99859" lon="3.49863">
        <ele>378.79998779297</ele>
        <time>2021-05-23T07:34:38Z</time>
      </trkpt>
      <trkpt lat="45.99857" lon="3.49861">
        <ele>379</ele>
        <time>2021-05-23T07:34:40Z</time>
      </trkpt>
      <trkpt lat="45.99856" lon="3.49859">
        <ele>379</ele>
        <time>2021-05-23T07:34:42Z</time>
      </trkpt>
      <trkpt lat="45.99855" lon="3.49858">
        <ele>379.20001220703</ele>
        <time>2021-05-23T07:34:43Z</time>
      </trkpt>
      <trkpt lat="45.99849" lon="3.49851">
        <ele>379.39999389648</ele>
        <time>2021-05-23T07:34:50Z</time>
      </trkpt>
      <trkpt lat="45.99847" lon="3.4985">
        <ele>379.60000610352</ele>
        <time>2021-05-23T07:34:52Z</time>
      </trkpt>
      <trkpt lat="45.99843" lon="3.49845">
        <ele>380</ele>
        <time>2021-05-23T07:34:58Z</time>
      </trkpt>
      <trkpt lat="45.99842" lon="3.49843">
        <ele>380.20001220703</ele>
        <time>2021-05-23T07:35:00Z</time>
      </trkpt>
      <trkpt lat="45.99841" lon="3.4984">
        <ele>380.20001220703</ele>
        <time>2021-05-23T07:35:02Z</time>
      </trkpt>
      <trkpt lat="45.99832" lon="3.4983">
        <ele>380.20001220703</ele>
        <time>2021-05-23T07:35:12Z</time>
      </trkpt>
      <trkpt lat="45.99826" lon="3.4982">
        <ele>380</ele>
        <time>2021-05-23T07:35:22Z</time>
      </trkpt>
      <trkpt lat="45.99819" lon="3.49807">
        <ele>379.60000610352</ele>
        <time>2021-05-23T07:35:31Z</time>
      </trkpt>
      <trkpt lat="45.99819" lon="3.49806">
        <ele>379.39999389648</ele>
        <time>2021-05-23T07:35:32Z</time>
      </trkpt>
      <trkpt lat="45.99812" lon="3.49791">
        <ele>379.39999389648</ele>
        <time>2021-05-23T07:35:42Z</time>
      </trkpt>
      <trkpt lat="45.99809" lon="3.49785">
        <ele>379</ele>
        <time>2021-05-23T07:35:46Z</time>
      </trkpt>
      <trkpt lat="45.99808" lon="3.49784">
        <ele>378.79998779297</ele>
        <time>2021-05-23T07:35:47Z</time>
      </trkpt>
      <trkpt lat="45.99806" lon="3.49777">
        <ele>378.60000610352</ele>
        <time>2021-05-23T07:35:52Z</time>
      </trkpt>
      <trkpt lat="45.99803" lon="3.49766">
        <ele>378.20001220703</ele>
        <time>2021-05-23T07:36:02Z</time>
      </trkpt>
      <trkpt lat="45.99804" lon="3.49764">
        <ele>378.20001220703</ele>
        <time>2021-05-23T07:36:04Z</time>
      </trkpt>
      <trkpt lat="45.99803" lon="3.49761">
        <ele>377.79998779297</ele>
        <time>2021-05-23T07:36:07Z</time>
      </trkpt>
      <trkpt lat="45.99801" lon="3.49758">
        <ele>377.79998779297</ele>
        <time>2021-05-23T07:36:09Z</time>
      </trkpt>
      <trkpt lat="45.998" lon="3.49752">
        <ele>377.60000610352</ele>
        <time>2021-05-23T07:36:12Z</time>
      </trkpt>
      <trkpt lat="45.99798" lon="3.49741">
        <ele>377.39999389648</ele>
        <time>2021-05-23T07:36:19Z</time>
      </trkpt>
      <trkpt lat="45.99797" lon="3.49737">
        <ele>377.20001220703</ele>
        <time>2021-05-23T07:36:21Z</time>
      </trkpt>
      <trkpt lat="45.99796" lon="3.49735">
        <ele>377.20001220703</ele>
        <time>2021-05-23T07:36:22Z</time>
      </trkpt>
      <trkpt lat="45.99793" lon="3.49728">
        <ele>376.79998779297</ele>
        <time>2021-05-23T07:36:27Z</time>
      </trkpt>
      <trkpt lat="45.99792" lon="3.4972">
        <ele>376.39999389648</ele>
        <time>2021-05-23T07:36:32Z</time>
      </trkpt>
      <trkpt lat="45.99791" lon="3.49711">
        <ele>376.39999389648</ele>
        <time>2021-05-23T07:36:37Z</time>
      </trkpt>
      <trkpt lat="45.99791" lon="3.49701">
        <ele>376</ele>
        <time>2021-05-23T07:36:42Z</time>
      </trkpt>
      <trkpt lat="45.99791" lon="3.49698">
        <ele>375.60000610352</ele>
        <time>2021-05-23T07:36:44Z</time>
      </trkpt>
      <trkpt lat="45.99787" lon="3.49686">
        <ele>375</ele>
        <time>2021-05-23T07:36:52Z</time>
      </trkpt>
      <trkpt lat="45.99786" lon="3.49683">
        <ele>374.39999389648</ele>
        <time>2021-05-23T07:36:54Z</time>
      </trkpt>
      <trkpt lat="45.99777" lon="3.49673">
        <ele>373.60000610352</ele>
        <time>2021-05-23T07:37:02Z</time>
      </trkpt>
      <trkpt lat="45.99775" lon="3.49671">
        <ele>373.39999389648</ele>
        <time>2021-05-23T07:37:04Z</time>
      </trkpt>
      <trkpt lat="45.99767" lon="3.49664">
        <ele>374.20001220703</ele>
        <time>2021-05-23T07:37:12Z</time>
      </trkpt>
      <trkpt lat="45.99765" lon="3.49662">
        <ele>374.20001220703</ele>
        <time>2021-05-23T07:37:14Z</time>
      </trkpt>
      <trkpt lat="45.99757" lon="3.49658">
        <ele>374.39999389648</ele>
        <time>2021-05-23T07:37:22Z</time>
      </trkpt>
      <trkpt lat="45.99754" lon="3.49656">
        <ele>374.39999389648</ele>
        <time>2021-05-23T07:37:25Z</time>
      </trkpt>
      <trkpt lat="45.99745" lon="3.49655">
        <ele>374.39999389648</ele>
        <time>2021-05-23T07:37:31Z</time>
      </trkpt>
      <trkpt lat="45.99744" lon="3.49655">
        <ele>374.39999389648</ele>
        <time>2021-05-23T07:37:32Z</time>
      </trkpt>
      <trkpt lat="45.99743" lon="3.49655">
        <ele>374.60000610352</ele>
        <time>2021-05-23T07:37:33Z</time>
      </trkpt>
      <trkpt lat="45.99741" lon="3.49655">
        <ele>374.60000610352</ele>
        <time>2021-05-23T07:37:35Z</time>
      </trkpt>
      <trkpt lat="45.99738" lon="3.49655">
        <ele>374.60000610352</ele>
        <time>2021-05-23T07:37:37Z</time>
      </trkpt>
      <trkpt lat="45.99731" lon="3.49654">
        <ele>374</ele>
        <time>2021-05-23T07:37:42Z</time>
      </trkpt>
      <trkpt lat="45.9973" lon="3.49653">
        <ele>374</ele>
        <time>2021-05-23T07:37:43Z</time>
      </trkpt>
      <trkpt lat="45.99726" lon="3.49652">
        <ele>374.20001220703</ele>
        <time>2021-05-23T07:37:46Z</time>
      </trkpt>
      <trkpt lat="45.99724" lon="3.49651">
        <ele>374.20001220703</ele>
        <time>2021-05-23T07:37:48Z</time>
      </trkpt>
      <trkpt lat="45.9972" lon="3.4965">
        <ele>373.79998779297</ele>
        <time>2021-05-23T07:37:52Z</time>
      </trkpt>
      <trkpt lat="45.99709" lon="3.49647">
        <ele>373.60000610352</ele>
        <time>2021-05-23T07:38:02Z</time>
      </trkpt>
      <trkpt lat="45.99705" lon="3.49645">
        <ele>373.39999389648</ele>
        <time>2021-05-23T07:38:06Z</time>
      </trkpt>
      <trkpt lat="45.99703" lon="3.49646">
        <ele>373.20001220703</ele>
        <time>2021-05-23T07:38:08Z</time>
      </trkpt>
      <trkpt lat="45.997" lon="3.49645">
        <ele>373.20001220703</ele>
        <time>2021-05-23T07:38:12Z</time>
      </trkpt>
      <trkpt lat="45.99698" lon="3.49644">
        <ele>373.20001220703</ele>
        <time>2021-05-23T07:38:14Z</time>
      </trkpt>
      <trkpt lat="45.99694" lon="3.49644">
        <ele>372</ele>
        <time>2021-05-23T07:38:17Z</time>
      </trkpt>
      <trkpt lat="45.99691" lon="3.49643">
        <ele>371.60000610352</ele>
        <time>2021-05-23T07:38:20Z</time>
      </trkpt>
      <trkpt lat="45.99689" lon="3.49641">
        <ele>371.39999389648</ele>
        <time>2021-05-23T07:38:22Z</time>
      </trkpt>
      <trkpt lat="45.99687" lon="3.49639">
        <ele>371.60000610352</ele>
        <time>2021-05-23T07:38:24Z</time>
      </trkpt>
      <trkpt lat="45.99684" lon="3.49638">
        <ele>371.20001220703</ele>
        <time>2021-05-23T07:38:32Z</time>
      </trkpt>
      <trkpt lat="45.99684" lon="3.49637">
        <ele>371.79998779297</ele>
        <time>2021-05-23T07:38:42Z</time>
      </trkpt>
      <trkpt lat="45.99684" lon="3.49637">
        <ele>371.79998779297</ele>
        <time>2021-05-23T07:38:52Z</time>
      </trkpt>
      <trkpt lat="45.99684" lon="3.49636">
        <ele>371.60000610352</ele>
        <time>2021-05-23T07:38:54Z</time>
      </trkpt>
      <trkpt lat="45.99685" lon="3.49636">
        <ele>371.60000610352</ele>
        <time>2021-05-23T07:38:55Z</time>
      </trkpt>
      <trkpt lat="45.99685" lon="3.49635">
        <ele>371.39999389648</ele>
        <time>2021-05-23T07:38:56Z</time>
      </trkpt>
      <trkpt lat="45.99685" lon="3.49636">
        <ele>371.39999389648</ele>
        <time>2021-05-23T07:38:57Z</time>
      </trkpt>
      <trkpt lat="45.99686" lon="3.49637">
        <ele>371.39999389648</ele>
        <time>2021-05-23T07:38:58Z</time>
      </trkpt>
      <trkpt lat="45.99686" lon="3.49637">
        <ele>371.39999389648</ele>
        <time>2021-05-23T07:38:59Z</time>
      </trkpt>
      <trkpt lat="45.99687" lon="3.49637">
        <ele>371.39999389648</ele>
        <time>2021-05-23T07:39:00Z</time>
      </trkpt>
      <trkpt lat="45.99687" lon="3.49637">
        <ele>371.20001220703</ele>
        <time>2021-05-23T07:39:02Z</time>
      </trkpt>
      <trkpt lat="45.99686" lon="3.49637">
        <ele>370.79998779297</ele>
        <time>2021-05-23T07:39:07Z</time>
      </trkpt>
      <trkpt lat="45.99686" lon="3.49638">
        <ele>370.60000610352</ele>
        <time>2021-05-23T07:39:11Z</time>
      </trkpt>
      <trkpt lat="45.99686" lon="3.49638">
        <ele>370.60000610352</ele>
        <time>2021-05-23T07:39:12Z</time>
      </trkpt>
      <trkpt lat="45.99682" lon="3.49638">
        <ele>370.79998779297</ele>
        <time>2021-05-23T07:39:17Z</time>
      </trkpt>
      <trkpt lat="45.99678" lon="3.4964">
        <ele>370.79998779297</ele>
        <time>2021-05-23T07:39:21Z</time>
      </trkpt>
      <trkpt lat="45.99677" lon="3.4964">
        <ele>370.79998779297</ele>
        <time>2021-05-23T07:39:22Z</time>
      </trkpt>
      <trkpt lat="45.9967" lon="3.49638">
        <ele>371</ele>
        <time>2021-05-23T07:39:28Z</time>
      </trkpt>
      <trkpt lat="45.99669" lon="3.49638">
        <ele>371</ele>
        <time>2021-05-23T07:39:29Z</time>
      </trkpt>
      <trkpt lat="45.99668" lon="3.49638">
        <ele>371</ele>
        <time>2021-05-23T07:39:30Z</time>
      </trkpt>
      <trkpt lat="45.99664" lon="3.49638">
        <ele>371.20001220703</ele>
        <time>2021-05-23T07:39:32Z</time>
      </trkpt>
      <trkpt lat="45.9966" lon="3.49637">
        <ele>370.60000610352</ele>
        <time>2021-05-23T07:39:36Z</time>
      </trkpt>
      <trkpt lat="45.99656" lon="3.49636">
        <ele>370.20001220703</ele>
        <time>2021-05-23T07:39:39Z</time>
      </trkpt>
      <trkpt lat="45.99652" lon="3.49635">
        <ele>370</ele>
        <time>2021-05-23T07:39:42Z</time>
      </trkpt>
      <trkpt lat="45.99651" lon="3.49634">
        <ele>370</ele>
        <time>2021-05-23T07:39:43Z</time>
      </trkpt>
      <trkpt lat="45.9965" lon="3.49634">
        <ele>369.79998779297</ele>
        <time>2021-05-23T07:39:44Z</time>
      </trkpt>
      <trkpt lat="45.99649" lon="3.49633">
        <ele>369.79998779297</ele>
        <time>2021-05-23T07:39:45Z</time>
      </trkpt>
      <trkpt lat="45.99648" lon="3.49633">
        <ele>369.79998779297</ele>
        <time>2021-05-23T07:39:46Z</time>
      </trkpt>
      <trkpt lat="45.99644" lon="3.49633">
        <ele>369.60000610352</ele>
        <time>2021-05-23T07:39:49Z</time>
      </trkpt>
      <trkpt lat="45.9964" lon="3.49633">
        <ele>369.60000610352</ele>
        <time>2021-05-23T07:39:52Z</time>
      </trkpt>
      <trkpt lat="45.99634" lon="3.49631">
        <ele>369.60000610352</ele>
        <time>2021-05-23T07:39:57Z</time>
      </trkpt>
      <trkpt lat="45.99628" lon="3.49632">
        <ele>370</ele>
        <time>2021-05-23T07:40:02Z</time>
      </trkpt>
      <trkpt lat="45.99618" lon="3.49629">
        <ele>370.39999389648</ele>
        <time>2021-05-23T07:40:10Z</time>
      </trkpt>
      <trkpt lat="45.99615" lon="3.49629">
        <ele>370.39999389648</ele>
        <time>2021-05-23T07:40:12Z</time>
      </trkpt>
      <trkpt lat="45.99606" lon="3.49625">
        <ele>370.20001220703</ele>
        <time>2021-05-23T07:40:22Z</time>
      </trkpt>
      <trkpt lat="45.99597" lon="3.49628">
        <ele>370.39999389648</ele>
        <time>2021-05-23T07:40:31Z</time>
      </trkpt>
      <trkpt lat="45.99596" lon="3.49629">
        <ele>370.39999389648</ele>
        <time>2021-05-23T07:40:32Z</time>
      </trkpt>
      <trkpt lat="45.99596" lon="3.49641">
        <ele>370.20001220703</ele>
        <time>2021-05-23T07:40:38Z</time>
      </trkpt>
      <trkpt lat="45.99597" lon="3.49649">
        <ele>370.39999389648</ele>
        <time>2021-05-23T07:40:42Z</time>
      </trkpt>
      <trkpt lat="45.99599" lon="3.4966">
        <ele>370.79998779297</ele>
        <time>2021-05-23T07:40:49Z</time>
      </trkpt>
      <trkpt lat="45.996" lon="3.49664">
        <ele>370.79998779297</ele>
        <time>2021-05-23T07:40:52Z</time>
      </trkpt>
      <trkpt lat="45.99596" lon="3.49677">
        <ele>371.20001220703</ele>
        <time>2021-05-23T07:41:00Z</time>
      </trkpt>
      <trkpt lat="45.99595" lon="3.49678">
        <ele>371.39999389648</ele>
        <time>2021-05-23T07:41:01Z</time>
      </trkpt>
      <trkpt lat="45.99595" lon="3.4968">
        <ele>371.39999389648</ele>
        <time>2021-05-23T07:41:02Z</time>
      </trkpt>
      <trkpt lat="45.99595" lon="3.49691">
        <ele>371.79998779297</ele>
        <time>2021-05-23T07:41:09Z</time>
      </trkpt>
      <trkpt lat="45.99596" lon="3.49696">
        <ele>372</ele>
        <time>2021-05-23T07:41:12Z</time>
      </trkpt>
      <trkpt lat="45.99599" lon="3.49705">
        <ele>372.39999389648</ele>
        <time>2021-05-23T07:41:18Z</time>
      </trkpt>
      <trkpt lat="45.996" lon="3.49711">
        <ele>372.60000610352</ele>
        <time>2021-05-23T07:41:22Z</time>
      </trkpt>
      <trkpt lat="45.99602" lon="3.49716">
        <ele>373</ele>
        <time>2021-05-23T07:41:25Z</time>
      </trkpt>
      <trkpt lat="45.99602" lon="3.49727">
        <ele>373.39999389648</ele>
        <time>2021-05-23T07:41:32Z</time>
      </trkpt>
      <trkpt lat="45.99602" lon="3.49735">
        <ele>374</ele>
        <time>2021-05-23T07:41:37Z</time>
      </trkpt>
      <trkpt lat="45.99603" lon="3.49742">
        <ele>374.39999389648</ele>
        <time>2021-05-23T07:41:42Z</time>
      </trkpt>
      <trkpt lat="45.99605" lon="3.49757">
        <ele>375</ele>
        <time>2021-05-23T07:41:51Z</time>
      </trkpt>
      <trkpt lat="45.99605" lon="3.49758">
        <ele>375.20001220703</ele>
        <time>2021-05-23T07:41:52Z</time>
      </trkpt>
      <trkpt lat="45.99607" lon="3.4977">
        <ele>376</ele>
        <time>2021-05-23T07:42:00Z</time>
      </trkpt>
      <trkpt lat="45.99607" lon="3.49773">
        <ele>376.39999389648</ele>
        <time>2021-05-23T07:42:02Z</time>
      </trkpt>
      <trkpt lat="45.99608" lon="3.4978">
        <ele>377</ele>
        <time>2021-05-23T07:42:07Z</time>
      </trkpt>
      <trkpt lat="45.99609" lon="3.49781">
        <ele>377.20001220703</ele>
        <time>2021-05-23T07:42:08Z</time>
      </trkpt>
      <trkpt lat="45.9961" lon="3.49786">
        <ele>377.60000610352</ele>
        <time>2021-05-23T07:42:12Z</time>
      </trkpt>
      <trkpt lat="45.99611" lon="3.49787">
        <ele>377.60000610352</ele>
        <time>2021-05-23T07:42:13Z</time>
      </trkpt>
      <trkpt lat="45.99612" lon="3.49788">
        <ele>378</ele>
        <time>2021-05-23T07:42:15Z</time>
      </trkpt>
      <trkpt lat="45.99611" lon="3.4979">
        <ele>378.20001220703</ele>
        <time>2021-05-23T07:42:17Z</time>
      </trkpt>
      <trkpt lat="45.99611" lon="3.49795">
        <ele>378.39999389648</ele>
        <time>2021-05-23T07:42:20Z</time>
      </trkpt>
      <trkpt lat="45.99611" lon="3.49798">
        <ele>378.79998779297</ele>
        <time>2021-05-23T07:42:22Z</time>
      </trkpt>
      <trkpt lat="45.9961" lon="3.49803">
        <ele>379.39999389648</ele>
        <time>2021-05-23T07:42:25Z</time>
      </trkpt>
      <trkpt lat="45.99609" lon="3.49811">
        <ele>380.39999389648</ele>
        <time>2021-05-23T07:42:32Z</time>
      </trkpt>
      <trkpt lat="45.9961" lon="3.49812">
        <ele>381</ele>
        <time>2021-05-23T07:42:34Z</time>
      </trkpt>
      <trkpt lat="45.99611" lon="3.49815">
        <ele>381.39999389648</ele>
        <time>2021-05-23T07:42:37Z</time>
      </trkpt>
      <trkpt lat="45.99611" lon="3.49818">
        <ele>381.60000610352</ele>
        <time>2021-05-23T07:42:39Z</time>
      </trkpt>
      <trkpt lat="45.99609" lon="3.49822">
        <ele>382.20001220703</ele>
        <time>2021-05-23T07:42:42Z</time>
      </trkpt>
      <trkpt lat="45.99609" lon="3.49824">
        <ele>382.39999389648</ele>
        <time>2021-05-23T07:42:44Z</time>
      </trkpt>
      <trkpt lat="45.99608" lon="3.49827">
        <ele>382.60000610352</ele>
        <time>2021-05-23T07:42:46Z</time>
      </trkpt>
      <trkpt lat="45.99609" lon="3.49835">
        <ele>383</ele>
        <time>2021-05-23T07:42:52Z</time>
      </trkpt>
      <trkpt lat="45.99609" lon="3.49841">
        <ele>383.60000610352</ele>
        <time>2021-05-23T07:42:57Z</time>
      </trkpt>
      <trkpt lat="45.99608" lon="3.49847">
        <ele>384</ele>
        <time>2021-05-23T07:43:02Z</time>
      </trkpt>
      <trkpt lat="45.99607" lon="3.49856">
        <ele>384.79998779297</ele>
        <time>2021-05-23T07:43:09Z</time>
      </trkpt>
      <trkpt lat="45.99607" lon="3.49859">
        <ele>385.20001220703</ele>
        <time>2021-05-23T07:43:12Z</time>
      </trkpt>
      <trkpt lat="45.99607" lon="3.49865">
        <ele>385.79998779297</ele>
        <time>2021-05-23T07:43:17Z</time>
      </trkpt>
      <trkpt lat="45.99606" lon="3.49867">
        <ele>385.79998779297</ele>
        <time>2021-05-23T07:43:18Z</time>
      </trkpt>
      <trkpt lat="45.99606" lon="3.49869">
        <ele>386</ele>
        <time>2021-05-23T07:43:19Z</time>
      </trkpt>
      <trkpt lat="45.99605" lon="3.49872">
        <ele>386.20001220703</ele>
        <time>2021-05-23T07:43:21Z</time>
      </trkpt>
      <trkpt lat="45.99605" lon="3.49873">
        <ele>386.39999389648</ele>
        <time>2021-05-23T07:43:22Z</time>
      </trkpt>
      <trkpt lat="45.99602" lon="3.49884">
        <ele>387</ele>
        <time>2021-05-23T07:43:29Z</time>
      </trkpt>
      <trkpt lat="45.99602" lon="3.49888">
        <ele>387.20001220703</ele>
        <time>2021-05-23T07:43:32Z</time>
      </trkpt>
      <trkpt lat="45.99601" lon="3.49899">
        <ele>388</ele>
        <time>2021-05-23T07:43:40Z</time>
      </trkpt>
      <trkpt lat="45.99601" lon="3.49902">
        <ele>388.20001220703</ele>
        <time>2021-05-23T07:43:42Z</time>
      </trkpt>
      <trkpt lat="45.99599" lon="3.49916">
        <ele>389</ele>
        <time>2021-05-23T07:43:52Z</time>
      </trkpt>
      <trkpt lat="45.99599" lon="3.49926">
        <ele>390</ele>
        <time>2021-05-23T07:44:00Z</time>
      </trkpt>
      <trkpt lat="45.996" lon="3.49929">
        <ele>390.39999389648</ele>
        <time>2021-05-23T07:44:02Z</time>
      </trkpt>
      <trkpt lat="45.99599" lon="3.49931">
        <ele>390.60000610352</ele>
        <time>2021-05-23T07:44:04Z</time>
      </trkpt>
      <trkpt lat="45.99599" lon="3.49938">
        <ele>391.20001220703</ele>
        <time>2021-05-23T07:44:09Z</time>
      </trkpt>
      <trkpt lat="45.99601" lon="3.49941">
        <ele>391.60000610352</ele>
        <time>2021-05-23T07:44:12Z</time>
      </trkpt>
      <trkpt lat="45.996" lon="3.49944">
        <ele>392.20001220703</ele>
        <time>2021-05-23T07:44:16Z</time>
      </trkpt>
      <trkpt lat="45.996" lon="3.49948">
        <ele>392.60000610352</ele>
        <time>2021-05-23T07:44:20Z</time>
      </trkpt>
      <trkpt lat="45.996" lon="3.49951">
        <ele>392.79998779297</ele>
        <time>2021-05-23T07:44:22Z</time>
      </trkpt>
      <trkpt lat="45.99599" lon="3.49953">
        <ele>393</ele>
        <time>2021-05-23T07:44:24Z</time>
      </trkpt>
      <trkpt lat="45.99599" lon="3.49954">
        <ele>393.20001220703</ele>
        <time>2021-05-23T07:44:25Z</time>
      </trkpt>
      <trkpt lat="45.99599" lon="3.49958">
        <ele>393.60000610352</ele>
        <time>2021-05-23T07:44:28Z</time>
      </trkpt>
      <trkpt lat="45.99597" lon="3.49964">
        <ele>394.20001220703</ele>
        <time>2021-05-23T07:44:32Z</time>
      </trkpt>
      <trkpt lat="45.99596" lon="3.4997">
        <ele>394.79998779297</ele>
        <time>2021-05-23T07:44:37Z</time>
      </trkpt>
      <trkpt lat="45.99593" lon="3.49972">
        <ele>395</ele>
        <time>2021-05-23T07:44:40Z</time>
      </trkpt>
      <trkpt lat="45.99592" lon="3.49974">
        <ele>395</ele>
        <time>2021-05-23T07:44:42Z</time>
      </trkpt>
      <trkpt lat="45.99589" lon="3.49979">
        <ele>395.20001220703</ele>
        <time>2021-05-23T07:44:48Z</time>
      </trkpt>
      <trkpt lat="45.99589" lon="3.4998">
        <ele>395.39999389648</ele>
        <time>2021-05-23T07:44:49Z</time>
      </trkpt>
      <trkpt lat="45.99589" lon="3.49983">
        <ele>395.60000610352</ele>
        <time>2021-05-23T07:44:52Z</time>
      </trkpt>
      <trkpt lat="45.99587" lon="3.4999">
        <ele>396.39999389648</ele>
        <time>2021-05-23T07:45:01Z</time>
      </trkpt>
      <trkpt lat="45.99586" lon="3.49991">
        <ele>396.39999389648</ele>
        <time>2021-05-23T07:45:02Z</time>
      </trkpt>
      <trkpt lat="45.99585" lon="3.49994">
        <ele>396.79998779297</ele>
        <time>2021-05-23T07:45:05Z</time>
      </trkpt>
      <trkpt lat="45.99583" lon="3.49999">
        <ele>397</ele>
        <time>2021-05-23T07:45:09Z</time>
      </trkpt>
      <trkpt lat="45.99582" lon="3.50004">
        <ele>397.39999389648</ele>
        <time>2021-05-23T07:45:12Z</time>
      </trkpt>
      <trkpt lat="45.99578" lon="3.50012">
        <ele>398.39999389648</ele>
        <time>2021-05-23T07:45:21Z</time>
      </trkpt>
      <trkpt lat="45.99578" lon="3.50014">
        <ele>398.60000610352</ele>
        <time>2021-05-23T07:45:22Z</time>
      </trkpt>
      <trkpt lat="45.99575" lon="3.50017">
        <ele>399.20001220703</ele>
        <time>2021-05-23T07:45:26Z</time>
      </trkpt>
      <trkpt lat="45.9957" lon="3.50022">
        <ele>399.60000610352</ele>
        <time>2021-05-23T07:45:30Z</time>
      </trkpt>
      <trkpt lat="45.99569" lon="3.50025">
        <ele>400.20001220703</ele>
        <time>2021-05-23T07:45:32Z</time>
      </trkpt>
      <trkpt lat="45.99568" lon="3.50028">
        <ele>400.79998779297</ele>
        <time>2021-05-23T07:45:34Z</time>
      </trkpt>
      <trkpt lat="45.99565" lon="3.50034">
        <ele>401.20001220703</ele>
        <time>2021-05-23T07:45:37Z</time>
      </trkpt>
      <trkpt lat="45.99565" lon="3.50035">
        <ele>401.39999389648</ele>
        <time>2021-05-23T07:45:38Z</time>
      </trkpt>
      <trkpt lat="45.99564" lon="3.50038">
        <ele>401.39999389648</ele>
        <time>2021-05-23T07:45:40Z</time>
      </trkpt>
      <trkpt lat="45.99563" lon="3.5004">
        <ele>401.60000610352</ele>
        <time>2021-05-23T07:45:42Z</time>
      </trkpt>
      <trkpt lat="45.99561" lon="3.50044">
        <ele>401.79998779297</ele>
        <time>2021-05-23T07:45:44Z</time>
      </trkpt>
      <trkpt lat="45.99556" lon="3.50055">
        <ele>402.79998779297</ele>
        <time>2021-05-23T07:45:52Z</time>
      </trkpt>
      <trkpt lat="45.99556" lon="3.50057">
        <ele>402.79998779297</ele>
        <time>2021-05-23T07:45:53Z</time>
      </trkpt>
      <trkpt lat="45.99551" lon="3.50068">
        <ele>403</ele>
        <time>2021-05-23T07:46:02Z</time>
      </trkpt>
      <trkpt lat="45.99549" lon="3.50071">
        <ele>403.20001220703</ele>
        <time>2021-05-23T07:46:05Z</time>
      </trkpt>
      <trkpt lat="45.99544" lon="3.50078">
        <ele>403.60000610352</ele>
        <time>2021-05-23T07:46:12Z</time>
      </trkpt>
      <trkpt lat="45.99543" lon="3.50079">
        <ele>403.79998779297</ele>
        <time>2021-05-23T07:46:13Z</time>
      </trkpt>
      <trkpt lat="45.99537" lon="3.50089">
        <ele>404.60000610352</ele>
        <time>2021-05-23T07:46:22Z</time>
      </trkpt>
      <trkpt lat="45.99531" lon="3.50095">
        <ele>404.79998779297</ele>
        <time>2021-05-23T07:46:31Z</time>
      </trkpt>
      <trkpt lat="45.9953" lon="3.50096">
        <ele>405</ele>
        <time>2021-05-23T07:46:32Z</time>
      </trkpt>
      <trkpt lat="45.99529" lon="3.50097">
        <ele>405.20001220703</ele>
        <time>2021-05-23T07:46:35Z</time>
      </trkpt>
      <trkpt lat="45.99527" lon="3.50097">
        <ele>405.20001220703</ele>
        <time>2021-05-23T07:46:37Z</time>
      </trkpt>
      <trkpt lat="45.99527" lon="3.50098">
        <ele>405.39999389648</ele>
        <time>2021-05-23T07:46:40Z</time>
      </trkpt>
      <trkpt lat="45.99526" lon="3.501">
        <ele>405.60000610352</ele>
        <time>2021-05-23T07:46:42Z</time>
      </trkpt>
      <trkpt lat="45.99525" lon="3.50102">
        <ele>405.79998779297</ele>
        <time>2021-05-23T07:46:43Z</time>
      </trkpt>
      <trkpt lat="45.99524" lon="3.50106">
        <ele>406</ele>
        <time>2021-05-23T07:46:46Z</time>
      </trkpt>
      <trkpt lat="45.99523" lon="3.50108">
        <ele>406</ele>
        <time>2021-05-23T07:46:47Z</time>
      </trkpt>
      <trkpt lat="45.99521" lon="3.50114">
        <ele>406</ele>
        <time>2021-05-23T07:46:51Z</time>
      </trkpt>
      <trkpt lat="45.9952" lon="3.50115">
        <ele>406</ele>
        <time>2021-05-23T07:46:52Z</time>
      </trkpt>
      <trkpt lat="45.99516" lon="3.50131">
        <ele>406.39999389648</ele>
        <time>2021-05-23T07:47:02Z</time>
      </trkpt>
      <trkpt lat="45.99515" lon="3.50136">
        <ele>406.60000610352</ele>
        <time>2021-05-23T07:47:05Z</time>
      </trkpt>
      <trkpt lat="45.99512" lon="3.5014">
        <ele>407</ele>
        <time>2021-05-23T07:47:09Z</time>
      </trkpt>
      <trkpt lat="45.99509" lon="3.50143">
        <ele>407</ele>
        <time>2021-05-23T07:47:12Z</time>
      </trkpt>
      <trkpt lat="45.99498" lon="3.50152">
        <ele>408</ele>
        <time>2021-05-23T07:47:22Z</time>
      </trkpt>
      <trkpt lat="45.99495" lon="3.50154">
        <ele>408</ele>
        <time>2021-05-23T07:47:25Z</time>
      </trkpt>
      <trkpt lat="45.99489" lon="3.50161">
        <ele>408.79998779297</ele>
        <time>2021-05-23T07:47:32Z</time>
      </trkpt>
      <trkpt lat="45.99486" lon="3.50166">
        <ele>409</ele>
        <time>2021-05-23T07:47:36Z</time>
      </trkpt>
      <trkpt lat="45.99482" lon="3.50175">
        <ele>409.79998779297</ele>
        <time>2021-05-23T07:47:42Z</time>
      </trkpt>
      <trkpt lat="45.99478" lon="3.50181">
        <ele>410.20001220703</ele>
        <time>2021-05-23T07:47:47Z</time>
      </trkpt>
      <trkpt lat="45.99473" lon="3.50185">
        <ele>410.60000610352</ele>
        <time>2021-05-23T07:47:52Z</time>
      </trkpt>
      <trkpt lat="45.99466" lon="3.50196">
        <ele>411</ele>
        <time>2021-05-23T07:48:02Z</time>
      </trkpt>
      <trkpt lat="45.99465" lon="3.50199">
        <ele>411.20001220703</ele>
        <time>2021-05-23T07:48:04Z</time>
      </trkpt>
      <trkpt lat="45.99463" lon="3.50204">
        <ele>411.39999389648</ele>
        <time>2021-05-23T07:48:08Z</time>
      </trkpt>
      <trkpt lat="45.99461" lon="3.50205">
        <ele>411.39999389648</ele>
        <time>2021-05-23T07:48:10Z</time>
      </trkpt>
      <trkpt lat="45.99461" lon="3.50208">
        <ele>411.60000610352</ele>
        <time>2021-05-23T07:48:12Z</time>
      </trkpt>
      <trkpt lat="45.99453" lon="3.5022">
        <ele>412.20001220703</ele>
        <time>2021-05-23T07:48:22Z</time>
      </trkpt>
      <trkpt lat="45.99449" lon="3.50228">
        <ele>412.20001220703</ele>
        <time>2021-05-23T07:48:27Z</time>
      </trkpt>
      <trkpt lat="45.99446" lon="3.50236">
        <ele>412.60000610352</ele>
        <time>2021-05-23T07:48:32Z</time>
      </trkpt>
      <trkpt lat="45.99442" lon="3.50251">
        <ele>413</ele>
        <time>2021-05-23T07:48:42Z</time>
      </trkpt>
      <trkpt lat="45.99438" lon="3.50264">
        <ele>413.20001220703</ele>
        <time>2021-05-23T07:48:52Z</time>
      </trkpt>
      <trkpt lat="45.99438" lon="3.50267">
        <ele>413.20001220703</ele>
        <time>2021-05-23T07:48:54Z</time>
      </trkpt>
      <trkpt lat="45.99437" lon="3.50273">
        <ele>413.39999389648</ele>
        <time>2021-05-23T07:48:58Z</time>
      </trkpt>
      <trkpt lat="45.99434" lon="3.50279">
        <ele>413.79998779297</ele>
        <time>2021-05-23T07:49:02Z</time>
      </trkpt>
      <trkpt lat="45.99428" lon="3.50294">
        <ele>414.20001220703</ele>
        <time>2021-05-23T07:49:12Z</time>
      </trkpt>
      <trkpt lat="45.99428" lon="3.50297">
        <ele>414.20001220703</ele>
        <time>2021-05-23T07:49:14Z</time>
      </trkpt>
      <trkpt lat="45.99425" lon="3.5031">
        <ele>414.79998779297</ele>
        <time>2021-05-23T07:49:22Z</time>
      </trkpt>
      <trkpt lat="45.99421" lon="3.50324">
        <ele>415.39999389648</ele>
        <time>2021-05-23T07:49:31Z</time>
      </trkpt>
      <trkpt lat="45.99421" lon="3.50326">
        <ele>415.39999389648</ele>
        <time>2021-05-23T07:49:32Z</time>
      </trkpt>
      <trkpt lat="45.99419" lon="3.50339">
        <ele>415.60000610352</ele>
        <time>2021-05-23T07:49:42Z</time>
      </trkpt>
      <trkpt lat="45.99416" lon="3.50354">
        <ele>416</ele>
        <time>2021-05-23T07:49:52Z</time>
      </trkpt>
      <trkpt lat="45.99413" lon="3.50366">
        <ele>416.39999389648</ele>
        <time>2021-05-23T07:50:00Z</time>
      </trkpt>
      <trkpt lat="45.99413" lon="3.50369">
        <ele>416.39999389648</ele>
        <time>2021-05-23T07:50:02Z</time>
      </trkpt>
      <trkpt lat="45.9941" lon="3.50387">
        <ele>416.60000610352</ele>
        <time>2021-05-23T07:50:12Z</time>
      </trkpt>
      <trkpt lat="45.99409" lon="3.50391">
        <ele>416.79998779297</ele>
        <time>2021-05-23T07:50:15Z</time>
      </trkpt>
      <trkpt lat="45.99406" lon="3.504">
        <ele>416.79998779297</ele>
        <time>2021-05-23T07:50:22Z</time>
      </trkpt>
      <trkpt lat="45.99403" lon="3.50415">
        <ele>417</ele>
        <time>2021-05-23T07:50:32Z</time>
      </trkpt>
      <trkpt lat="45.99399" lon="3.5043">
        <ele>417</ele>
        <time>2021-05-23T07:50:42Z</time>
      </trkpt>
      <trkpt lat="45.99399" lon="3.50437">
        <ele>417.39999389648</ele>
        <time>2021-05-23T07:50:46Z</time>
      </trkpt>
      <trkpt lat="45.99396" lon="3.50447">
        <ele>417.39999389648</ele>
        <time>2021-05-23T07:50:52Z</time>
      </trkpt>
      <trkpt lat="45.99393" lon="3.50464">
        <ele>417.60000610352</ele>
        <time>2021-05-23T07:51:02Z</time>
      </trkpt>
      <trkpt lat="45.99389" lon="3.50479">
        <ele>417.79998779297</ele>
        <time>2021-05-23T07:51:12Z</time>
      </trkpt>
      <trkpt lat="45.99387" lon="3.50495">
        <ele>418.20001220703</ele>
        <time>2021-05-23T07:51:22Z</time>
      </trkpt>
      <trkpt lat="45.99383" lon="3.5051">
        <ele>418.39999389648</ele>
        <time>2021-05-23T07:51:32Z</time>
      </trkpt>
      <trkpt lat="45.99381" lon="3.50524">
        <ele>418.39999389648</ele>
        <time>2021-05-23T07:51:41Z</time>
      </trkpt>
      <trkpt lat="45.99381" lon="3.50526">
        <ele>418.39999389648</ele>
        <time>2021-05-23T07:51:42Z</time>
      </trkpt>
      <trkpt lat="45.99376" lon="3.5054">
        <ele>418.79998779297</ele>
        <time>2021-05-23T07:51:52Z</time>
      </trkpt>
      <trkpt lat="45.99374" lon="3.50551">
        <ele>418.60000610352</ele>
        <time>2021-05-23T07:51:59Z</time>
      </trkpt>
      <trkpt lat="45.99374" lon="3.50555">
        <ele>418.79998779297</ele>
        <time>2021-05-23T07:52:02Z</time>
      </trkpt>
      <trkpt lat="45.9937" lon="3.50567">
        <ele>418.79998779297</ele>
        <time>2021-05-23T07:52:11Z</time>
      </trkpt>
      <trkpt lat="45.99369" lon="3.50568">
        <ele>418.79998779297</ele>
        <time>2021-05-23T07:52:12Z</time>
      </trkpt>
      <trkpt lat="45.99369" lon="3.5057">
        <ele>418.60000610352</ele>
        <time>2021-05-23T07:52:14Z</time>
      </trkpt>
      <trkpt lat="45.9937" lon="3.50572">
        <ele>418.60000610352</ele>
        <time>2021-05-23T07:52:16Z</time>
      </trkpt>
      <trkpt lat="45.99371" lon="3.50576">
        <ele>418.79998779297</ele>
        <time>2021-05-23T07:52:22Z</time>
      </trkpt>
      <trkpt lat="45.99364" lon="3.50587">
        <ele>419.39999389648</ele>
        <time>2021-05-23T07:52:32Z</time>
      </trkpt>
      <trkpt lat="45.99363" lon="3.5059">
        <ele>419.39999389648</ele>
        <time>2021-05-23T07:52:34Z</time>
      </trkpt>
      <trkpt lat="45.9936" lon="3.50598">
        <ele>419.60000610352</ele>
        <time>2021-05-23T07:52:39Z</time>
      </trkpt>
      <trkpt lat="45.99357" lon="3.50602">
        <ele>420</ele>
        <time>2021-05-23T07:52:42Z</time>
      </trkpt>
      <trkpt lat="45.99355" lon="3.50606">
        <ele>420</ele>
        <time>2021-05-23T07:52:45Z</time>
      </trkpt>
      <trkpt lat="45.99352" lon="3.50613">
        <ele>420.20001220703</ele>
        <time>2021-05-23T07:52:50Z</time>
      </trkpt>
      <trkpt lat="45.99352" lon="3.50615">
        <ele>420.20001220703</ele>
        <time>2021-05-23T07:52:52Z</time>
      </trkpt>
      <trkpt lat="45.99349" lon="3.50624">
        <ele>420.20001220703</ele>
        <time>2021-05-23T07:53:02Z</time>
      </trkpt>
      <trkpt lat="45.99349" lon="3.50625">
        <ele>420.39999389648</ele>
        <time>2021-05-23T07:53:03Z</time>
      </trkpt>
      <trkpt lat="45.99349" lon="3.5063">
        <ele>420.39999389648</ele>
        <time>2021-05-23T07:53:05Z</time>
      </trkpt>
      <trkpt lat="45.99349" lon="3.50632">
        <ele>420.39999389648</ele>
        <time>2021-05-23T07:53:06Z</time>
      </trkpt>
      <trkpt lat="45.99347" lon="3.50637">
        <ele>420.20001220703</ele>
        <time>2021-05-23T07:53:10Z</time>
      </trkpt>
      <trkpt lat="45.99346" lon="3.50637">
        <ele>420.39999389648</ele>
        <time>2021-05-23T07:53:11Z</time>
      </trkpt>
      <trkpt lat="45.99346" lon="3.50639">
        <ele>420.39999389648</ele>
        <time>2021-05-23T07:53:12Z</time>
      </trkpt>
      <trkpt lat="45.99344" lon="3.50644">
        <ele>420.39999389648</ele>
        <time>2021-05-23T07:53:15Z</time>
      </trkpt>
      <trkpt lat="45.99343" lon="3.50648">
        <ele>420.39999389648</ele>
        <time>2021-05-23T07:53:17Z</time>
      </trkpt>
      <trkpt lat="45.99341" lon="3.50653">
        <ele>420.39999389648</ele>
        <time>2021-05-23T07:53:21Z</time>
      </trkpt>
      <trkpt lat="45.99341" lon="3.50657">
        <ele>420.39999389648</ele>
        <time>2021-05-23T07:53:22Z</time>
      </trkpt>
      <trkpt lat="45.99341" lon="3.50664">
        <ele>420.60000610352</ele>
        <time>2021-05-23T07:53:25Z</time>
      </trkpt>
      <trkpt lat="45.99341" lon="3.5067">
        <ele>421</ele>
        <time>2021-05-23T07:53:29Z</time>
      </trkpt>
      <trkpt lat="45.9934" lon="3.50673">
        <ele>421</ele>
        <time>2021-05-23T07:53:31Z</time>
      </trkpt>
      <trkpt lat="45.9934" lon="3.50674">
        <ele>421.20001220703</ele>
        <time>2021-05-23T07:53:32Z</time>
      </trkpt>
      <trkpt lat="45.99338" lon="3.50679">
        <ele>421.20001220703</ele>
        <time>2021-05-23T07:53:36Z</time>
      </trkpt>
      <trkpt lat="45.99336" lon="3.50686">
        <ele>421.39999389648</ele>
        <time>2021-05-23T07:53:42Z</time>
      </trkpt>
      <trkpt lat="45.99336" lon="3.50692">
        <ele>421.79998779297</ele>
        <time>2021-05-23T07:53:45Z</time>
      </trkpt>
      <trkpt lat="45.99335" lon="3.507">
        <ele>422.60000610352</ele>
        <time>2021-05-23T07:53:50Z</time>
      </trkpt>
      <trkpt lat="45.99334" lon="3.50703">
        <ele>422.60000610352</ele>
        <time>2021-05-23T07:53:52Z</time>
      </trkpt>
      <trkpt lat="45.99333" lon="3.50709">
        <ele>422.79998779297</ele>
        <time>2021-05-23T07:53:57Z</time>
      </trkpt>
      <trkpt lat="45.99331" lon="3.50715">
        <ele>423.39999389648</ele>
        <time>2021-05-23T07:54:02Z</time>
      </trkpt>
      <trkpt lat="45.99327" lon="3.50723">
        <ele>423.60000610352</ele>
        <time>2021-05-23T07:54:08Z</time>
      </trkpt>
      <trkpt lat="45.99325" lon="3.50729">
        <ele>424</ele>
        <time>2021-05-23T07:54:12Z</time>
      </trkpt>
      <trkpt lat="45.99325" lon="3.50736">
        <ele>424.39999389648</ele>
        <time>2021-05-23T07:54:18Z</time>
      </trkpt>
      <trkpt lat="45.99323" lon="3.50741">
        <ele>424.60000610352</ele>
        <time>2021-05-23T07:54:21Z</time>
      </trkpt>
      <trkpt lat="45.99322" lon="3.50742">
        <ele>424.79998779297</ele>
        <time>2021-05-23T07:54:22Z</time>
      </trkpt>
      <trkpt lat="45.99323" lon="3.50748">
        <ele>425</ele>
        <time>2021-05-23T07:54:26Z</time>
      </trkpt>
      <trkpt lat="45.99321" lon="3.50758">
        <ele>425.20001220703</ele>
        <time>2021-05-23T07:54:32Z</time>
      </trkpt>
      <trkpt lat="45.99319" lon="3.50763">
        <ele>425.79998779297</ele>
        <time>2021-05-23T07:54:36Z</time>
      </trkpt>
      <trkpt lat="45.99314" lon="3.50772">
        <ele>426.20001220703</ele>
        <time>2021-05-23T07:54:42Z</time>
      </trkpt>
      <trkpt lat="45.99312" lon="3.50785">
        <ele>426.79998779297</ele>
        <time>2021-05-23T07:54:52Z</time>
      </trkpt>
      <trkpt lat="45.99313" lon="3.50788">
        <ele>427</ele>
        <time>2021-05-23T07:54:54Z</time>
      </trkpt>
      <trkpt lat="45.99312" lon="3.50791">
        <ele>427.20001220703</ele>
        <time>2021-05-23T07:54:56Z</time>
      </trkpt>
      <trkpt lat="45.99311" lon="3.50797">
        <ele>427.60000610352</ele>
        <time>2021-05-23T07:55:00Z</time>
      </trkpt>
      <trkpt lat="45.9931" lon="3.50798">
        <ele>427.79998779297</ele>
        <time>2021-05-23T07:55:02Z</time>
      </trkpt>
      <trkpt lat="45.9931" lon="3.508">
        <ele>427.79998779297</ele>
        <time>2021-05-23T07:55:03Z</time>
      </trkpt>
      <trkpt lat="45.99309" lon="3.50801">
        <ele>427.79998779297</ele>
        <time>2021-05-23T07:55:04Z</time>
      </trkpt>
      <trkpt lat="45.99307" lon="3.50806">
        <ele>428.20001220703</ele>
        <time>2021-05-23T07:55:08Z</time>
      </trkpt>
      <trkpt lat="45.99307" lon="3.50812">
        <ele>428.20001220703</ele>
        <time>2021-05-23T07:55:12Z</time>
      </trkpt>
      <trkpt lat="45.99307" lon="3.50815">
        <ele>428.60000610352</ele>
        <time>2021-05-23T07:55:15Z</time>
      </trkpt>
      <trkpt lat="45.99306" lon="3.50817">
        <ele>428.60000610352</ele>
        <time>2021-05-23T07:55:17Z</time>
      </trkpt>
      <trkpt lat="45.99305" lon="3.50818">
        <ele>428.79998779297</ele>
        <time>2021-05-23T07:55:18Z</time>
      </trkpt>
      <trkpt lat="45.99304" lon="3.5082">
        <ele>428.79998779297</ele>
        <time>2021-05-23T07:55:19Z</time>
      </trkpt>
      <trkpt lat="45.99303" lon="3.50825">
        <ele>429.20001220703</ele>
        <time>2021-05-23T07:55:22Z</time>
      </trkpt>
      <trkpt lat="45.99302" lon="3.50829">
        <ele>429.39999389648</ele>
        <time>2021-05-23T07:55:24Z</time>
      </trkpt>
      <trkpt lat="45.99298" lon="3.50842">
        <ele>429.79998779297</ele>
        <time>2021-05-23T07:55:32Z</time>
      </trkpt>
      <trkpt lat="45.99297" lon="3.50845">
        <ele>429.79998779297</ele>
        <time>2021-05-23T07:55:34Z</time>
      </trkpt>
      <trkpt lat="45.99295" lon="3.50851">
        <ele>430</ele>
        <time>2021-05-23T07:55:38Z</time>
      </trkpt>
      <trkpt lat="45.99293" lon="3.5086">
        <ele>430.20001220703</ele>
        <time>2021-05-23T07:55:42Z</time>
      </trkpt>
      <trkpt lat="45.9929" lon="3.50868">
        <ele>430.79998779297</ele>
        <time>2021-05-23T07:55:47Z</time>
      </trkpt>
      <trkpt lat="45.99288" lon="3.50876">
        <ele>431</ele>
        <time>2021-05-23T07:55:52Z</time>
      </trkpt>
      <trkpt lat="45.99284" lon="3.50886">
        <ele>431.60000610352</ele>
        <time>2021-05-23T07:56:02Z</time>
      </trkpt>
      <trkpt lat="45.99283" lon="3.50891">
        <ele>431.79998779297</ele>
        <time>2021-05-23T07:56:06Z</time>
      </trkpt>
      <trkpt lat="45.99281" lon="3.50895">
        <ele>432.39999389648</ele>
        <time>2021-05-23T07:56:10Z</time>
      </trkpt>
      <trkpt lat="45.99282" lon="3.50898">
        <ele>432.39999389648</ele>
        <time>2021-05-23T07:56:12Z</time>
      </trkpt>
      <trkpt lat="45.99282" lon="3.50901">
        <ele>432.60000610352</ele>
        <time>2021-05-23T07:56:14Z</time>
      </trkpt>
      <trkpt lat="45.99278" lon="3.5091">
        <ele>433</ele>
        <time>2021-05-23T07:56:20Z</time>
      </trkpt>
      <trkpt lat="45.99277" lon="3.50913">
        <ele>433</ele>
        <time>2021-05-23T07:56:22Z</time>
      </trkpt>
      <trkpt lat="45.99271" lon="3.50931">
        <ele>433.60000610352</ele>
        <time>2021-05-23T07:56:32Z</time>
      </trkpt>
      <trkpt lat="45.99269" lon="3.50941">
        <ele>433.60000610352</ele>
        <time>2021-05-23T07:56:38Z</time>
      </trkpt>
      <trkpt lat="45.99267" lon="3.50946">
        <ele>433.79998779297</ele>
        <time>2021-05-23T07:56:42Z</time>
      </trkpt>
      <trkpt lat="45.99267" lon="3.50949">
        <ele>434</ele>
        <time>2021-05-23T07:56:44Z</time>
      </trkpt>
      <trkpt lat="45.99265" lon="3.50961">
        <ele>434.20001220703</ele>
        <time>2021-05-23T07:56:52Z</time>
      </trkpt>
      <trkpt lat="45.99263" lon="3.50978">
        <ele>434.79998779297</ele>
        <time>2021-05-23T07:57:02Z</time>
      </trkpt>
      <trkpt lat="45.99262" lon="3.50983">
        <ele>435</ele>
        <time>2021-05-23T07:57:05Z</time>
      </trkpt>
      <trkpt lat="45.99261" lon="3.50994">
        <ele>435.79998779297</ele>
        <time>2021-05-23T07:57:12Z</time>
      </trkpt>
      <trkpt lat="45.9926" lon="3.50996">
        <ele>436</ele>
        <time>2021-05-23T07:57:14Z</time>
      </trkpt>
      <trkpt lat="45.99263" lon="3.51007">
        <ele>436.79998779297</ele>
        <time>2021-05-23T07:57:22Z</time>
      </trkpt>
      <trkpt lat="45.99264" lon="3.51008">
        <ele>437</ele>
        <time>2021-05-23T07:57:23Z</time>
      </trkpt>
      <trkpt lat="45.99264" lon="3.51014">
        <ele>437.79998779297</ele>
        <time>2021-05-23T07:57:27Z</time>
      </trkpt>
      <trkpt lat="45.99265" lon="3.51017">
        <ele>438.20001220703</ele>
        <time>2021-05-23T07:57:31Z</time>
      </trkpt>
      <trkpt lat="45.99265" lon="3.51018">
        <ele>438.20001220703</ele>
        <time>2021-05-23T07:57:32Z</time>
      </trkpt>
      <trkpt lat="45.99264" lon="3.5102">
        <ele>438.20001220703</ele>
        <time>2021-05-23T07:57:33Z</time>
      </trkpt>
      <trkpt lat="45.99264" lon="3.51021">
        <ele>438.39999389648</ele>
        <time>2021-05-23T07:57:34Z</time>
      </trkpt>
      <trkpt lat="45.99264" lon="3.51024">
        <ele>438.39999389648</ele>
        <time>2021-05-23T07:57:36Z</time>
      </trkpt>
      <trkpt lat="45.99263" lon="3.51033">
        <ele>438.79998779297</ele>
        <time>2021-05-23T07:57:42Z</time>
      </trkpt>
      <trkpt lat="45.9926" lon="3.51044">
        <ele>438.79998779297</ele>
        <time>2021-05-23T07:57:49Z</time>
      </trkpt>
      <trkpt lat="45.9926" lon="3.51048">
        <ele>438.79998779297</ele>
        <time>2021-05-23T07:57:52Z</time>
      </trkpt>
      <trkpt lat="45.99261" lon="3.51058">
        <ele>439.20001220703</ele>
        <time>2021-05-23T07:57:59Z</time>
      </trkpt>
      <trkpt lat="45.99262" lon="3.51061">
        <ele>439.20001220703</ele>
        <time>2021-05-23T07:58:02Z</time>
      </trkpt>
      <trkpt lat="45.99263" lon="3.51066">
        <ele>439.39999389648</ele>
        <time>2021-05-23T07:58:07Z</time>
      </trkpt>
      <trkpt lat="45.99262" lon="3.51074">
        <ele>439.60000610352</ele>
        <time>2021-05-23T07:58:12Z</time>
      </trkpt>
      <trkpt lat="45.99262" lon="3.51078">
        <ele>439.79998779297</ele>
        <time>2021-05-23T07:58:15Z</time>
      </trkpt>
      <trkpt lat="45.9926" lon="3.51086">
        <ele>440</ele>
        <time>2021-05-23T07:58:22Z</time>
      </trkpt>
      <trkpt lat="45.99259" lon="3.5109">
        <ele>440.20001220703</ele>
        <time>2021-05-23T07:58:25Z</time>
      </trkpt>
      <trkpt lat="45.99259" lon="3.51091">
        <ele>440.20001220703</ele>
        <time>2021-05-23T07:58:26Z</time>
      </trkpt>
      <trkpt lat="45.99257" lon="3.51101">
        <ele>440.60000610352</ele>
        <time>2021-05-23T07:58:32Z</time>
      </trkpt>
      <trkpt lat="45.99255" lon="3.51105">
        <ele>440.60000610352</ele>
        <time>2021-05-23T07:58:34Z</time>
      </trkpt>
      <trkpt lat="45.9925" lon="3.51117">
        <ele>441</ele>
        <time>2021-05-23T07:58:42Z</time>
      </trkpt>
      <trkpt lat="45.99248" lon="3.51121">
        <ele>441.20001220703</ele>
        <time>2021-05-23T07:58:45Z</time>
      </trkpt>
      <trkpt lat="45.99247" lon="3.51131">
        <ele>441.39999389648</ele>
        <time>2021-05-23T07:58:52Z</time>
      </trkpt>
      <trkpt lat="45.99248" lon="3.5114">
        <ele>441.60000610352</ele>
        <time>2021-05-23T07:58:57Z</time>
      </trkpt>
      <trkpt lat="45.99246" lon="3.51145">
        <ele>442</ele>
        <time>2021-05-23T07:59:02Z</time>
      </trkpt>
      <trkpt lat="45.99244" lon="3.51163">
        <ele>442</ele>
        <time>2021-05-23T07:59:12Z</time>
      </trkpt>
      <trkpt lat="45.99243" lon="3.51165">
        <ele>442</ele>
        <time>2021-05-23T07:59:13Z</time>
      </trkpt>
      <trkpt lat="45.99242" lon="3.51169">
        <ele>442.20001220703</ele>
        <time>2021-05-23T07:59:15Z</time>
      </trkpt>
      <trkpt lat="45.99241" lon="3.51175">
        <ele>442.39999389648</ele>
        <time>2021-05-23T07:59:18Z</time>
      </trkpt>
      <trkpt lat="45.99238" lon="3.5118">
        <ele>442.60000610352</ele>
        <time>2021-05-23T07:59:22Z</time>
      </trkpt>
      <trkpt lat="45.99235" lon="3.51189">
        <ele>443.20001220703</ele>
        <time>2021-05-23T07:59:29Z</time>
      </trkpt>
      <trkpt lat="45.99234" lon="3.51193">
        <ele>443.39999389648</ele>
        <time>2021-05-23T07:59:32Z</time>
      </trkpt>
      <trkpt lat="45.99232" lon="3.51204">
        <ele>444</ele>
        <time>2021-05-23T07:59:42Z</time>
      </trkpt>
      <trkpt lat="45.99232" lon="3.51205">
        <ele>444.20001220703</ele>
        <time>2021-05-23T07:59:43Z</time>
      </trkpt>
      <trkpt lat="45.99232" lon="3.51208">
        <ele>444.39999389648</ele>
        <time>2021-05-23T07:59:46Z</time>
      </trkpt>
      <trkpt lat="45.99232" lon="3.51216">
        <ele>444.79998779297</ele>
        <time>2021-05-23T07:59:52Z</time>
      </trkpt>
      <trkpt lat="45.99231" lon="3.51222">
        <ele>445.39999389648</ele>
        <time>2021-05-23T07:59:59Z</time>
      </trkpt>
      <trkpt lat="45.99231" lon="3.51228">
        <ele>445.60000610352</ele>
        <time>2021-05-23T08:00:02Z</time>
      </trkpt>
      <trkpt lat="45.99231" lon="3.51231">
        <ele>445.79998779297</ele>
        <time>2021-05-23T08:00:03Z</time>
      </trkpt>
      <trkpt lat="45.99231" lon="3.51235">
        <ele>446.20001220703</ele>
        <time>2021-05-23T08:00:05Z</time>
      </trkpt>
      <trkpt lat="45.9923" lon="3.51246">
        <ele>446.39999389648</ele>
        <time>2021-05-23T08:00:12Z</time>
      </trkpt>
      <trkpt lat="45.9923" lon="3.51248">
        <ele>446.39999389648</ele>
        <time>2021-05-23T08:00:13Z</time>
      </trkpt>
      <trkpt lat="45.9923" lon="3.51258">
        <ele>447</ele>
        <time>2021-05-23T08:00:19Z</time>
      </trkpt>
      <trkpt lat="45.99229" lon="3.51263">
        <ele>447.20001220703</ele>
        <time>2021-05-23T08:00:22Z</time>
      </trkpt>
      <trkpt lat="45.99226" lon="3.51268">
        <ele>447.60000610352</ele>
        <time>2021-05-23T08:00:25Z</time>
      </trkpt>
      <trkpt lat="45.99223" lon="3.5128">
        <ele>447.79998779297</ele>
        <time>2021-05-23T08:00:32Z</time>
      </trkpt>
      <trkpt lat="45.99219" lon="3.51294">
        <ele>448.20001220703</ele>
        <time>2021-05-23T08:00:42Z</time>
      </trkpt>
      <trkpt lat="45.99216" lon="3.51309">
        <ele>448.60000610352</ele>
        <time>2021-05-23T08:00:51Z</time>
      </trkpt>
      <trkpt lat="45.99216" lon="3.5131">
        <ele>448.60000610352</ele>
        <time>2021-05-23T08:00:52Z</time>
      </trkpt>
      <trkpt lat="45.99211" lon="3.51323">
        <ele>449</ele>
        <time>2021-05-23T08:01:02Z</time>
      </trkpt>
      <trkpt lat="45.99206" lon="3.51335">
        <ele>448.79998779297</ele>
        <time>2021-05-23T08:01:10Z</time>
      </trkpt>
      <trkpt lat="45.99203" lon="3.51339">
        <ele>448.79998779297</ele>
        <time>2021-05-23T08:01:12Z</time>
      </trkpt>
      <trkpt lat="45.99202" lon="3.51342">
        <ele>448.79998779297</ele>
        <time>2021-05-23T08:01:14Z</time>
      </trkpt>
      <trkpt lat="45.99202" lon="3.51345">
        <ele>448.79998779297</ele>
        <time>2021-05-23T08:01:16Z</time>
      </trkpt>
      <trkpt lat="45.99201" lon="3.51347">
        <ele>449</ele>
        <time>2021-05-23T08:01:17Z</time>
      </trkpt>
      <trkpt lat="45.99199" lon="3.5135">
        <ele>449</ele>
        <time>2021-05-23T08:01:19Z</time>
      </trkpt>
      <trkpt lat="45.99196" lon="3.51355">
        <ele>449.20001220703</ele>
        <time>2021-05-23T08:01:22Z</time>
      </trkpt>
      <trkpt lat="45.99194" lon="3.51357">
        <ele>449</ele>
        <time>2021-05-23T08:01:24Z</time>
      </trkpt>
      <trkpt lat="45.99184" lon="3.51362">
        <ele>449.20001220703</ele>
        <time>2021-05-23T08:01:32Z</time>
      </trkpt>
      <trkpt lat="45.99171" lon="3.51362">
        <ele>449</ele>
        <time>2021-05-23T08:01:42Z</time>
      </trkpt>
      <trkpt lat="45.99159" lon="3.51358">
        <ele>449.20001220703</ele>
        <time>2021-05-23T08:01:52Z</time>
      </trkpt>
      <trkpt lat="45.99146" lon="3.51355">
        <ele>449</ele>
        <time>2021-05-23T08:02:01Z</time>
      </trkpt>
      <trkpt lat="45.99145" lon="3.51354">
        <ele>449</ele>
        <time>2021-05-23T08:02:02Z</time>
      </trkpt>
      <trkpt lat="45.99139" lon="3.51349">
        <ele>448.79998779297</ele>
        <time>2021-05-23T08:02:07Z</time>
      </trkpt>
      <trkpt lat="45.99136" lon="3.51343">
        <ele>449</ele>
        <time>2021-05-23T08:02:12Z</time>
      </trkpt>
      <trkpt lat="45.99135" lon="3.51343">
        <ele>449</ele>
        <time>2021-05-23T08:02:13Z</time>
      </trkpt>
      <trkpt lat="45.99134" lon="3.51342">
        <ele>449.20001220703</ele>
        <time>2021-05-23T08:02:14Z</time>
      </trkpt>
      <trkpt lat="45.99126" lon="3.51334">
        <ele>449</ele>
        <time>2021-05-23T08:02:22Z</time>
      </trkpt>
      <trkpt lat="45.99119" lon="3.51323">
        <ele>448.79998779297</ele>
        <time>2021-05-23T08:02:32Z</time>
      </trkpt>
      <trkpt lat="45.9911" lon="3.51315">
        <ele>449</ele>
        <time>2021-05-23T08:02:39Z</time>
      </trkpt>
      <trkpt lat="45.99106" lon="3.51313">
        <ele>449.20001220703</ele>
        <time>2021-05-23T08:02:42Z</time>
      </trkpt>
      <trkpt lat="45.99096" lon="3.51305">
        <ele>448.60000610352</ele>
        <time>2021-05-23T08:02:52Z</time>
      </trkpt>
      <trkpt lat="45.99085" lon="3.513">
        <ele>448.60000610352</ele>
        <time>2021-05-23T08:03:01Z</time>
      </trkpt>
      <trkpt lat="45.99084" lon="3.513">
        <ele>448.60000610352</ele>
        <time>2021-05-23T08:03:02Z</time>
      </trkpt>
      <trkpt lat="45.99076" lon="3.51295">
        <ele>448.39999389648</ele>
        <time>2021-05-23T08:03:09Z</time>
      </trkpt>
      <trkpt lat="45.99072" lon="3.51295">
        <ele>448.39999389648</ele>
        <time>2021-05-23T08:03:12Z</time>
      </trkpt>
      <trkpt lat="45.99066" lon="3.51292">
        <ele>448.60000610352</ele>
        <time>2021-05-23T08:03:19Z</time>
      </trkpt>
      <trkpt lat="45.99063" lon="3.51293">
        <ele>448.60000610352</ele>
        <time>2021-05-23T08:03:22Z</time>
      </trkpt>
      <trkpt lat="45.9905" lon="3.51288">
        <ele>448.20001220703</ele>
        <time>2021-05-23T08:03:32Z</time>
      </trkpt>
      <trkpt lat="45.99048" lon="3.51287">
        <ele>448.20001220703</ele>
        <time>2021-05-23T08:03:34Z</time>
      </trkpt>
      <trkpt lat="45.99039" lon="3.51285">
        <ele>448.39999389648</ele>
        <time>2021-05-23T08:03:42Z</time>
      </trkpt>
      <trkpt lat="45.99039" lon="3.51283">
        <ele>448.20001220703</ele>
        <time>2021-05-23T08:03:43Z</time>
      </trkpt>
      <trkpt lat="45.99033" lon="3.5128">
        <ele>447.79998779297</ele>
        <time>2021-05-23T08:03:49Z</time>
      </trkpt>
      <trkpt lat="45.9903" lon="3.51279">
        <ele>448</ele>
        <time>2021-05-23T08:03:52Z</time>
      </trkpt>
      <trkpt lat="45.99019" lon="3.5128">
        <ele>448</ele>
        <time>2021-05-23T08:04:02Z</time>
      </trkpt>
      <trkpt lat="45.99006" lon="3.5128">
        <ele>447.60000610352</ele>
        <time>2021-05-23T08:04:12Z</time>
      </trkpt>
      <trkpt lat="45.99001" lon="3.5128">
        <ele>447.60000610352</ele>
        <time>2021-05-23T08:04:16Z</time>
      </trkpt>
      <trkpt lat="45.98995" lon="3.51279">
        <ele>447.39999389648</ele>
        <time>2021-05-23T08:04:22Z</time>
      </trkpt>
      <trkpt lat="45.98981" lon="3.51278">
        <ele>447.60000610352</ele>
        <time>2021-05-23T08:04:32Z</time>
      </trkpt>
      <trkpt lat="45.9897" lon="3.51277">
        <ele>447.39999389648</ele>
        <time>2021-05-23T08:04:42Z</time>
      </trkpt>
      <trkpt lat="45.98968" lon="3.51279">
        <ele>447.39999389648</ele>
        <time>2021-05-23T08:04:45Z</time>
      </trkpt>
      <trkpt lat="45.98968" lon="3.5128">
        <ele>447.60000610352</ele>
        <time>2021-05-23T08:04:47Z</time>
      </trkpt>
      <trkpt lat="45.98966" lon="3.51289">
        <ele>448.20001220703</ele>
        <time>2021-05-23T08:04:52Z</time>
      </trkpt>
      <trkpt lat="45.98963" lon="3.51292">
        <ele>448.60000610352</ele>
        <time>2021-05-23T08:04:56Z</time>
      </trkpt>
      <trkpt lat="45.98962" lon="3.51293">
        <ele>448.60000610352</ele>
        <time>2021-05-23T08:04:58Z</time>
      </trkpt>
      <trkpt lat="45.98959" lon="3.51295">
        <ele>449.20001220703</ele>
        <time>2021-05-23T08:05:02Z</time>
      </trkpt>
      <trkpt lat="45.98958" lon="3.51297">
        <ele>449.39999389648</ele>
        <time>2021-05-23T08:05:04Z</time>
      </trkpt>
      <trkpt lat="45.98958" lon="3.51298">
        <ele>449.60000610352</ele>
        <time>2021-05-23T08:05:05Z</time>
      </trkpt>
      <trkpt lat="45.98958" lon="3.51298">
        <ele>449.60000610352</ele>
        <time>2021-05-23T08:05:06Z</time>
      </trkpt>
      <trkpt lat="45.98956" lon="3.513">
        <ele>449.79998779297</ele>
        <time>2021-05-23T08:05:08Z</time>
      </trkpt>
      <trkpt lat="45.98955" lon="3.51302">
        <ele>449.79998779297</ele>
        <time>2021-05-23T08:05:10Z</time>
      </trkpt>
      <trkpt lat="45.98954" lon="3.51304">
        <ele>450</ele>
        <time>2021-05-23T08:05:12Z</time>
      </trkpt>
      <trkpt lat="45.98954" lon="3.51304">
        <ele>450.20001220703</ele>
        <time>2021-05-23T08:05:13Z</time>
      </trkpt>
      <trkpt lat="45.98952" lon="3.51309">
        <ele>450.39999389648</ele>
        <time>2021-05-23T08:05:17Z</time>
      </trkpt>
      <trkpt lat="45.98948" lon="3.51316">
        <ele>450.79998779297</ele>
        <time>2021-05-23T08:05:22Z</time>
      </trkpt>
      <trkpt lat="45.98944" lon="3.51322">
        <ele>451</ele>
        <time>2021-05-23T08:05:28Z</time>
      </trkpt>
      <trkpt lat="45.98941" lon="3.51327">
        <ele>451.39999389648</ele>
        <time>2021-05-23T08:05:32Z</time>
      </trkpt>
      <trkpt lat="45.98939" lon="3.51332">
        <ele>451.79998779297</ele>
        <time>2021-05-23T08:05:38Z</time>
      </trkpt>
      <trkpt lat="45.98939" lon="3.51334">
        <ele>452</ele>
        <time>2021-05-23T08:05:40Z</time>
      </trkpt>
      <trkpt lat="45.98938" lon="3.51336">
        <ele>452.20001220703</ele>
        <time>2021-05-23T08:05:42Z</time>
      </trkpt>
      <trkpt lat="45.98937" lon="3.51339">
        <ele>452.20001220703</ele>
        <time>2021-05-23T08:05:45Z</time>
      </trkpt>
      <trkpt lat="45.98937" lon="3.51344">
        <ele>452.39999389648</ele>
        <time>2021-05-23T08:05:48Z</time>
      </trkpt>
      <trkpt lat="45.98937" lon="3.51346">
        <ele>452.60000610352</ele>
        <time>2021-05-23T08:05:50Z</time>
      </trkpt>
      <trkpt lat="45.98937" lon="3.51349">
        <ele>452.79998779297</ele>
        <time>2021-05-23T08:05:52Z</time>
      </trkpt>
      <trkpt lat="45.98937" lon="3.5135">
        <ele>452.79998779297</ele>
        <time>2021-05-23T08:05:53Z</time>
      </trkpt>
      <trkpt lat="45.98938" lon="3.51357">
        <ele>453.60000610352</ele>
        <time>2021-05-23T08:05:57Z</time>
      </trkpt>
      <trkpt lat="45.98938" lon="3.51359">
        <ele>453.79998779297</ele>
        <time>2021-05-23T08:05:59Z</time>
      </trkpt>
      <trkpt lat="45.98938" lon="3.5136">
        <ele>453.79998779297</ele>
        <time>2021-05-23T08:06:01Z</time>
      </trkpt>
      <trkpt lat="45.98939" lon="3.5136">
        <ele>453.79998779297</ele>
        <time>2021-05-23T08:06:02Z</time>
      </trkpt>
      <trkpt lat="45.98938" lon="3.5136">
        <ele>454</ele>
        <time>2021-05-23T08:06:04Z</time>
      </trkpt>
      <trkpt lat="45.98938" lon="3.51361">
        <ele>454.20001220703</ele>
        <time>2021-05-23T08:06:06Z</time>
      </trkpt>
      <trkpt lat="45.98939" lon="3.51363">
        <ele>454.39999389648</ele>
        <time>2021-05-23T08:06:12Z</time>
      </trkpt>
      <trkpt lat="45.98939" lon="3.51363">
        <ele>454.39999389648</ele>
        <time>2021-05-23T08:06:13Z</time>
      </trkpt>
      <trkpt lat="45.98942" lon="3.51363">
        <ele>455</ele>
        <time>2021-05-23T08:06:18Z</time>
      </trkpt>
      <trkpt lat="45.98945" lon="3.51363">
        <ele>455.39999389648</ele>
        <time>2021-05-23T08:06:22Z</time>
      </trkpt>
      <trkpt lat="45.98948" lon="3.5136">
        <ele>456</ele>
        <time>2021-05-23T08:06:27Z</time>
      </trkpt>
      <trkpt lat="45.98951" lon="3.5136">
        <ele>456.60000610352</ele>
        <time>2021-05-23T08:06:32Z</time>
      </trkpt>
      <trkpt lat="45.98953" lon="3.51361">
        <ele>457</ele>
        <time>2021-05-23T08:06:36Z</time>
      </trkpt>
      <trkpt lat="45.98958" lon="3.51365">
        <ele>457.60000610352</ele>
        <time>2021-05-23T08:06:42Z</time>
      </trkpt>
      <trkpt lat="45.98963" lon="3.51367">
        <ele>458</ele>
        <time>2021-05-23T08:06:47Z</time>
      </trkpt>
      <trkpt lat="45.98965" lon="3.51368">
        <ele>458.20001220703</ele>
        <time>2021-05-23T08:06:49Z</time>
      </trkpt>
      <trkpt lat="45.98967" lon="3.5137">
        <ele>458.20001220703</ele>
        <time>2021-05-23T08:06:51Z</time>
      </trkpt>
      <trkpt lat="45.98968" lon="3.51371">
        <ele>458.39999389648</ele>
        <time>2021-05-23T08:06:52Z</time>
      </trkpt>
      <trkpt lat="45.9897" lon="3.51373">
        <ele>458.39999389648</ele>
        <time>2021-05-23T08:06:54Z</time>
      </trkpt>
      <trkpt lat="45.98973" lon="3.51374">
        <ele>459</ele>
        <time>2021-05-23T08:06:59Z</time>
      </trkpt>
      <trkpt lat="45.98975" lon="3.51375">
        <ele>459.39999389648</ele>
        <time>2021-05-23T08:07:02Z</time>
      </trkpt>
      <trkpt lat="45.98977" lon="3.51376">
        <ele>459.60000610352</ele>
        <time>2021-05-23T08:07:04Z</time>
      </trkpt>
      <trkpt lat="45.98979" lon="3.51376">
        <ele>459.60000610352</ele>
        <time>2021-05-23T08:07:06Z</time>
      </trkpt>
      <trkpt lat="45.98987" lon="3.51379">
        <ele>459.60000610352</ele>
        <time>2021-05-23T08:07:12Z</time>
      </trkpt>
      <trkpt lat="45.98993" lon="3.51383">
        <ele>460</ele>
        <time>2021-05-23T08:07:18Z</time>
      </trkpt>
      <trkpt lat="45.98999" lon="3.51388">
        <ele>460.79998779297</ele>
        <time>2021-05-23T08:07:22Z</time>
      </trkpt>
      <trkpt lat="45.99001" lon="3.51391">
        <ele>461.20001220703</ele>
        <time>2021-05-23T08:07:26Z</time>
      </trkpt>
      <trkpt lat="45.99003" lon="3.51396">
        <ele>462.20001220703</ele>
        <time>2021-05-23T08:07:32Z</time>
      </trkpt>
      <trkpt lat="45.99011" lon="3.51404">
        <ele>463.20001220703</ele>
        <time>2021-05-23T08:07:41Z</time>
      </trkpt>
      <trkpt lat="45.99012" lon="3.51405">
        <ele>463.39999389648</ele>
        <time>2021-05-23T08:07:42Z</time>
      </trkpt>
      <trkpt lat="45.99018" lon="3.51415">
        <ele>464.20001220703</ele>
        <time>2021-05-23T08:07:51Z</time>
      </trkpt>
      <trkpt lat="45.99018" lon="3.51415">
        <ele>464.39999389648</ele>
        <time>2021-05-23T08:07:52Z</time>
      </trkpt>
      <trkpt lat="45.9902" lon="3.51421">
        <ele>464.79998779297</ele>
        <time>2021-05-23T08:07:56Z</time>
      </trkpt>
      <trkpt lat="45.9902" lon="3.51426">
        <ele>465.20001220703</ele>
        <time>2021-05-23T08:07:59Z</time>
      </trkpt>
      <trkpt lat="45.9902" lon="3.51428">
        <ele>465.39999389648</ele>
        <time>2021-05-23T08:08:00Z</time>
      </trkpt>
      <trkpt lat="45.99021" lon="3.51429">
        <ele>465.39999389648</ele>
        <time>2021-05-23T08:08:01Z</time>
      </trkpt>
      <trkpt lat="45.99021" lon="3.51431">
        <ele>465.60000610352</ele>
        <time>2021-05-23T08:08:02Z</time>
      </trkpt>
      <trkpt lat="45.99022" lon="3.51432">
        <ele>465.60000610352</ele>
        <time>2021-05-23T08:08:03Z</time>
      </trkpt>
      <trkpt lat="45.99026" lon="3.51437">
        <ele>466</ele>
        <time>2021-05-23T08:08:07Z</time>
      </trkpt>
      <trkpt lat="45.99028" lon="3.51439">
        <ele>466.39999389648</ele>
        <time>2021-05-23T08:08:09Z</time>
      </trkpt>
      <trkpt lat="45.99031" lon="3.51442">
        <ele>466.79998779297</ele>
        <time>2021-05-23T08:08:12Z</time>
      </trkpt>
      <trkpt lat="45.99032" lon="3.51448">
        <ele>467</ele>
        <time>2021-05-23T08:08:17Z</time>
      </trkpt>
      <trkpt lat="45.99033" lon="3.51453">
        <ele>467.39999389648</ele>
        <time>2021-05-23T08:08:21Z</time>
      </trkpt>
      <trkpt lat="45.99033" lon="3.51454">
        <ele>467.60000610352</ele>
        <time>2021-05-23T08:08:22Z</time>
      </trkpt>
      <trkpt lat="45.99035" lon="3.51457">
        <ele>467.60000610352</ele>
        <time>2021-05-23T08:08:24Z</time>
      </trkpt>
      <trkpt lat="45.99036" lon="3.51461">
        <ele>467.79998779297</ele>
        <time>2021-05-23T08:08:26Z</time>
      </trkpt>
      <trkpt lat="45.99037" lon="3.51463">
        <ele>468</ele>
        <time>2021-05-23T08:08:28Z</time>
      </trkpt>
      <trkpt lat="45.99038" lon="3.51465">
        <ele>467.79998779297</ele>
        <time>2021-05-23T08:08:30Z</time>
      </trkpt>
      <trkpt lat="45.99039" lon="3.51467">
        <ele>467.79998779297</ele>
        <time>2021-05-23T08:08:32Z</time>
      </trkpt>
      <trkpt lat="45.99039" lon="3.51468">
        <ele>467.79998779297</ele>
        <time>2021-05-23T08:08:33Z</time>
      </trkpt>
      <trkpt lat="45.9904" lon="3.51474">
        <ele>468.20001220703</ele>
        <time>2021-05-23T08:08:36Z</time>
      </trkpt>
      <trkpt lat="45.99039" lon="3.51477">
        <ele>468.60000610352</ele>
        <time>2021-05-23T08:08:38Z</time>
      </trkpt>
      <trkpt lat="45.99037" lon="3.51482">
        <ele>469.20001220703</ele>
        <time>2021-05-23T08:08:42Z</time>
      </trkpt>
      <trkpt lat="45.99037" lon="3.51492">
        <ele>469.60000610352</ele>
        <time>2021-05-23T08:08:48Z</time>
      </trkpt>
      <trkpt lat="45.99038" lon="3.51498">
        <ele>470</ele>
        <time>2021-05-23T08:08:52Z</time>
      </trkpt>
      <trkpt lat="45.99038" lon="3.51506">
        <ele>470.79998779297</ele>
        <time>2021-05-23T08:08:57Z</time>
      </trkpt>
      <trkpt lat="45.99042" lon="3.51511">
        <ele>471.20001220703</ele>
        <time>2021-05-23T08:09:02Z</time>
      </trkpt>
      <trkpt lat="45.99043" lon="3.51514">
        <ele>471.39999389648</ele>
        <time>2021-05-23T08:09:04Z</time>
      </trkpt>
      <trkpt lat="45.99046" lon="3.51516">
        <ele>471.79998779297</ele>
        <time>2021-05-23T08:09:06Z</time>
      </trkpt>
      <trkpt lat="45.99046" lon="3.5152">
        <ele>472.20001220703</ele>
        <time>2021-05-23T08:09:09Z</time>
      </trkpt>
      <trkpt lat="45.99048" lon="3.51523">
        <ele>472.79998779297</ele>
        <time>2021-05-23T08:09:12Z</time>
      </trkpt>
      <trkpt lat="45.99048" lon="3.51524">
        <ele>472.79998779297</ele>
        <time>2021-05-23T08:09:13Z</time>
      </trkpt>
      <trkpt lat="45.99049" lon="3.51527">
        <ele>473.20001220703</ele>
        <time>2021-05-23T08:09:15Z</time>
      </trkpt>
      <trkpt lat="45.99049" lon="3.51536">
        <ele>474</ele>
        <time>2021-05-23T08:09:22Z</time>
      </trkpt>
      <trkpt lat="45.99046" lon="3.51545">
        <ele>474.39999389648</ele>
        <time>2021-05-23T08:09:30Z</time>
      </trkpt>
      <trkpt lat="45.99046" lon="3.51547">
        <ele>474.60000610352</ele>
        <time>2021-05-23T08:09:32Z</time>
      </trkpt>
      <trkpt lat="45.99044" lon="3.51553">
        <ele>475</ele>
        <time>2021-05-23T08:09:36Z</time>
      </trkpt>
      <trkpt lat="45.99043" lon="3.5156">
        <ele>475.60000610352</ele>
        <time>2021-05-23T08:09:42Z</time>
      </trkpt>
      <trkpt lat="45.99044" lon="3.51564">
        <ele>475.79998779297</ele>
        <time>2021-05-23T08:09:46Z</time>
      </trkpt>
      <trkpt lat="45.99045" lon="3.51567">
        <ele>476.20001220703</ele>
        <time>2021-05-23T08:09:48Z</time>
      </trkpt>
      <trkpt lat="45.99047" lon="3.51573">
        <ele>476.39999389648</ele>
        <time>2021-05-23T08:09:52Z</time>
      </trkpt>
      <trkpt lat="45.99048" lon="3.51574">
        <ele>476.39999389648</ele>
        <time>2021-05-23T08:09:53Z</time>
      </trkpt>
      <trkpt lat="45.99051" lon="3.51578">
        <ele>476.60000610352</ele>
        <time>2021-05-23T08:09:56Z</time>
      </trkpt>
      <trkpt lat="45.99051" lon="3.51581">
        <ele>476.79998779297</ele>
        <time>2021-05-23T08:09:58Z</time>
      </trkpt>
      <trkpt lat="45.99048" lon="3.5159">
        <ele>477</ele>
        <time>2021-05-23T08:10:02Z</time>
      </trkpt>
      <trkpt lat="45.99047" lon="3.51591">
        <ele>477.20001220703</ele>
        <time>2021-05-23T08:10:03Z</time>
      </trkpt>
      <trkpt lat="45.99051" lon="3.51604">
        <ele>478</ele>
        <time>2021-05-23T08:10:12Z</time>
      </trkpt>
      <trkpt lat="45.99051" lon="3.51607">
        <ele>478.20001220703</ele>
        <time>2021-05-23T08:10:14Z</time>
      </trkpt>
      <trkpt lat="45.99064" lon="3.51604">
        <ele>478</ele>
        <time>2021-05-23T08:10:22Z</time>
      </trkpt>
      <trkpt lat="45.99068" lon="3.51604">
        <ele>477.79998779297</ele>
        <time>2021-05-23T08:10:27Z</time>
      </trkpt>
      <trkpt lat="45.99069" lon="3.51606">
        <ele>477.60000610352</ele>
        <time>2021-05-23T08:10:32Z</time>
      </trkpt>
      <trkpt lat="45.99075" lon="3.51606">
        <ele>477.39999389648</ele>
        <time>2021-05-23T08:10:39Z</time>
      </trkpt>
      <trkpt lat="45.99076" lon="3.51606">
        <ele>477.20001220703</ele>
        <time>2021-05-23T08:10:42Z</time>
      </trkpt>
      <trkpt lat="45.99083" lon="3.51602">
        <ele>477.20001220703</ele>
        <time>2021-05-23T08:10:51Z</time>
      </trkpt>
      <trkpt lat="45.99083" lon="3.51602">
        <ele>477.20001220703</ele>
        <time>2021-05-23T08:10:52Z</time>
      </trkpt>
      <trkpt lat="45.99093" lon="3.51603">
        <ele>477.20001220703</ele>
        <time>2021-05-23T08:10:59Z</time>
      </trkpt>
      <trkpt lat="45.99094" lon="3.51604">
        <ele>477</ele>
        <time>2021-05-23T08:11:02Z</time>
      </trkpt>
      <trkpt lat="45.99099" lon="3.51612">
        <ele>477.39999389648</ele>
        <time>2021-05-23T08:11:11Z</time>
      </trkpt>
      <trkpt lat="45.991" lon="3.51613">
        <ele>477.39999389648</ele>
        <time>2021-05-23T08:11:12Z</time>
      </trkpt>
      <trkpt lat="45.99102" lon="3.51619">
        <ele>477.60000610352</ele>
        <time>2021-05-23T08:11:17Z</time>
      </trkpt>
      <trkpt lat="45.99102" lon="3.5162">
        <ele>477.79998779297</ele>
        <time>2021-05-23T08:11:19Z</time>
      </trkpt>
      <trkpt lat="45.99103" lon="3.51622">
        <ele>478</ele>
        <time>2021-05-23T08:11:21Z</time>
      </trkpt>
      <trkpt lat="45.99104" lon="3.51622">
        <ele>478.20001220703</ele>
        <time>2021-05-23T08:11:22Z</time>
      </trkpt>
      <trkpt lat="45.99105" lon="3.51622">
        <ele>478.20001220703</ele>
        <time>2021-05-23T08:11:23Z</time>
      </trkpt>
      <trkpt lat="45.99106" lon="3.51623">
        <ele>478.79998779297</ele>
        <time>2021-05-23T08:11:25Z</time>
      </trkpt>
      <trkpt lat="45.99109" lon="3.51626">
        <ele>479.39999389648</ele>
        <time>2021-05-23T08:11:28Z</time>
      </trkpt>
      <trkpt lat="45.9911" lon="3.51631">
        <ele>479.79998779297</ele>
        <time>2021-05-23T08:11:32Z</time>
      </trkpt>
      <trkpt lat="45.99111" lon="3.51634">
        <ele>480.39999389648</ele>
        <time>2021-05-23T08:11:35Z</time>
      </trkpt>
      <trkpt lat="45.99114" lon="3.51635">
        <ele>480.79998779297</ele>
        <time>2021-05-23T08:11:38Z</time>
      </trkpt>
      <trkpt lat="45.99117" lon="3.51637">
        <ele>481.20001220703</ele>
        <time>2021-05-23T08:11:42Z</time>
      </trkpt>
      <trkpt lat="45.99118" lon="3.51637">
        <ele>481.60000610352</ele>
        <time>2021-05-23T08:11:44Z</time>
      </trkpt>
      <trkpt lat="45.9912" lon="3.51637">
        <ele>481.79998779297</ele>
        <time>2021-05-23T08:11:46Z</time>
      </trkpt>
      <trkpt lat="45.99123" lon="3.51635">
        <ele>481.79998779297</ele>
        <time>2021-05-23T08:11:50Z</time>
      </trkpt>
      <trkpt lat="45.99126" lon="3.51635">
        <ele>481.79998779297</ele>
        <time>2021-05-23T08:11:52Z</time>
      </trkpt>
      <trkpt lat="45.99135" lon="3.51632">
        <ele>480.79998779297</ele>
        <time>2021-05-23T08:12:00Z</time>
      </trkpt>
      <trkpt lat="45.99137" lon="3.51629">
        <ele>480.79998779297</ele>
        <time>2021-05-23T08:12:02Z</time>
      </trkpt>
      <trkpt lat="45.99139" lon="3.51626">
        <ele>480.39999389648</ele>
        <time>2021-05-23T08:12:06Z</time>
      </trkpt>
      <trkpt lat="45.9914" lon="3.51623">
        <ele>480.20001220703</ele>
        <time>2021-05-23T08:12:09Z</time>
      </trkpt>
      <trkpt lat="45.99141" lon="3.51621">
        <ele>480.20001220703</ele>
        <time>2021-05-23T08:12:12Z</time>
      </trkpt>
      <trkpt lat="45.99144" lon="3.51618">
        <ele>479.39999389648</ele>
        <time>2021-05-23T08:12:17Z</time>
      </trkpt>
      <trkpt lat="45.99147" lon="3.51614">
        <ele>478.79998779297</ele>
        <time>2021-05-23T08:12:22Z</time>
      </trkpt>
      <trkpt lat="45.99148" lon="3.51611">
        <ele>478.39999389648</ele>
        <time>2021-05-23T08:12:26Z</time>
      </trkpt>
      <trkpt lat="45.99149" lon="3.5161">
        <ele>478.20001220703</ele>
        <time>2021-05-23T08:12:27Z</time>
      </trkpt>
      <trkpt lat="45.99151" lon="3.51607">
        <ele>477.79998779297</ele>
        <time>2021-05-23T08:12:32Z</time>
      </trkpt>
      <trkpt lat="45.99153" lon="3.516">
        <ele>477.39999389648</ele>
        <time>2021-05-23T08:12:42Z</time>
      </trkpt>
      <trkpt lat="45.99154" lon="3.51599">
        <ele>477.39999389648</ele>
        <time>2021-05-23T08:12:43Z</time>
      </trkpt>
      <trkpt lat="45.99154" lon="3.51597">
        <ele>477.20001220703</ele>
        <time>2021-05-23T08:12:44Z</time>
      </trkpt>
      <trkpt lat="45.9916" lon="3.51592">
        <ele>476.39999389648</ele>
        <time>2021-05-23T08:12:51Z</time>
      </trkpt>
      <trkpt lat="45.99161" lon="3.51592">
        <ele>476.20001220703</ele>
        <time>2021-05-23T08:12:52Z</time>
      </trkpt>
      <trkpt lat="45.99164" lon="3.51581">
        <ele>475.39999389648</ele>
        <time>2021-05-23T08:13:01Z</time>
      </trkpt>
      <trkpt lat="45.99164" lon="3.51579">
        <ele>475.20001220703</ele>
        <time>2021-05-23T08:13:02Z</time>
      </trkpt>
      <trkpt lat="45.99164" lon="3.51577">
        <ele>475</ele>
        <time>2021-05-23T08:13:04Z</time>
      </trkpt>
      <trkpt lat="45.99165" lon="3.51573">
        <ele>474.60000610352</ele>
        <time>2021-05-23T08:13:09Z</time>
      </trkpt>
      <trkpt lat="45.99166" lon="3.51572">
        <ele>474.39999389648</ele>
        <time>2021-05-23T08:13:11Z</time>
      </trkpt>
      <trkpt lat="45.99167" lon="3.51572">
        <ele>474.20001220703</ele>
        <time>2021-05-23T08:13:12Z</time>
      </trkpt>
      <trkpt lat="45.99172" lon="3.51563">
        <ele>473.39999389648</ele>
        <time>2021-05-23T08:13:22Z</time>
      </trkpt>
      <trkpt lat="45.99173" lon="3.5156">
        <ele>473</ele>
        <time>2021-05-23T08:13:24Z</time>
      </trkpt>
      <trkpt lat="45.99176" lon="3.51548">
        <ele>472.39999389648</ele>
        <time>2021-05-23T08:13:32Z</time>
      </trkpt>
      <trkpt lat="45.99178" lon="3.51543">
        <ele>472</ele>
        <time>2021-05-23T08:13:36Z</time>
      </trkpt>
      <trkpt lat="45.99183" lon="3.51537">
        <ele>471.79998779297</ele>
        <time>2021-05-23T08:13:42Z</time>
      </trkpt>
      <trkpt lat="45.99185" lon="3.51535">
        <ele>471.60000610352</ele>
        <time>2021-05-23T08:13:44Z</time>
      </trkpt>
      <trkpt lat="45.99189" lon="3.51528">
        <ele>471.20001220703</ele>
        <time>2021-05-23T08:13:50Z</time>
      </trkpt>
      <trkpt lat="45.99191" lon="3.51526">
        <ele>471</ele>
        <time>2021-05-23T08:13:52Z</time>
      </trkpt>
      <trkpt lat="45.99193" lon="3.51524">
        <ele>471</ele>
        <time>2021-05-23T08:13:55Z</time>
      </trkpt>
      <trkpt lat="45.99199" lon="3.51519">
        <ele>470.39999389648</ele>
        <time>2021-05-23T08:14:02Z</time>
      </trkpt>
      <trkpt lat="45.99204" lon="3.51517">
        <ele>470</ele>
        <time>2021-05-23T08:14:07Z</time>
      </trkpt>
      <trkpt lat="45.99209" lon="3.51517">
        <ele>469.60000610352</ele>
        <time>2021-05-23T08:14:12Z</time>
      </trkpt>
      <trkpt lat="45.99209" lon="3.51513">
        <ele>469</ele>
        <time>2021-05-23T08:14:21Z</time>
      </trkpt>
      <trkpt lat="45.99209" lon="3.51511">
        <ele>469</ele>
        <time>2021-05-23T08:14:22Z</time>
      </trkpt>
      <trkpt lat="45.99212" lon="3.51506">
        <ele>469</ele>
        <time>2021-05-23T08:14:28Z</time>
      </trkpt>
      <trkpt lat="45.99214" lon="3.51508">
        <ele>469</ele>
        <time>2021-05-23T08:14:31Z</time>
      </trkpt>
      <trkpt lat="45.99215" lon="3.51509">
        <ele>469</ele>
        <time>2021-05-23T08:14:32Z</time>
      </trkpt>
      <trkpt lat="45.99219" lon="3.51512">
        <ele>468.79998779297</ele>
        <time>2021-05-23T08:14:36Z</time>
      </trkpt>
      <trkpt lat="45.99225" lon="3.51516">
        <ele>468.60000610352</ele>
        <time>2021-05-23T08:14:42Z</time>
      </trkpt>
      <trkpt lat="45.99233" lon="3.51521">
        <ele>468</ele>
        <time>2021-05-23T08:14:51Z</time>
      </trkpt>
      <trkpt lat="45.99233" lon="3.51522">
        <ele>467.79998779297</ele>
        <time>2021-05-23T08:14:52Z</time>
      </trkpt>
      <trkpt lat="45.99233" lon="3.51522">
        <ele>467.60000610352</ele>
        <time>2021-05-23T08:14:54Z</time>
      </trkpt>
      <trkpt lat="45.99239" lon="3.51521">
        <ele>466.79998779297</ele>
        <time>2021-05-23T08:15:00Z</time>
      </trkpt>
      <trkpt lat="45.9924" lon="3.51521">
        <ele>466.60000610352</ele>
        <time>2021-05-23T08:15:02Z</time>
      </trkpt>
      <trkpt lat="45.99243" lon="3.5152">
        <ele>466</ele>
        <time>2021-05-23T08:15:05Z</time>
      </trkpt>
      <trkpt lat="45.99244" lon="3.51522">
        <ele>465.79998779297</ele>
        <time>2021-05-23T08:15:07Z</time>
      </trkpt>
      <trkpt lat="45.99245" lon="3.51522">
        <ele>465.60000610352</ele>
        <time>2021-05-23T08:15:08Z</time>
      </trkpt>
      <trkpt lat="45.99249" lon="3.51523">
        <ele>465</ele>
        <time>2021-05-23T08:15:11Z</time>
      </trkpt>
      <trkpt lat="45.9925" lon="3.51523">
        <ele>464.79998779297</ele>
        <time>2021-05-23T08:15:12Z</time>
      </trkpt>
      <trkpt lat="45.99253" lon="3.51525">
        <ele>464</ele>
        <time>2021-05-23T08:15:16Z</time>
      </trkpt>
      <trkpt lat="45.99255" lon="3.51528">
        <ele>463.60000610352</ele>
        <time>2021-05-23T08:15:19Z</time>
      </trkpt>
      <trkpt lat="45.99257" lon="3.51534">
        <ele>463.20001220703</ele>
        <time>2021-05-23T08:15:22Z</time>
      </trkpt>
      <trkpt lat="45.99258" lon="3.51535">
        <ele>463</ele>
        <time>2021-05-23T08:15:23Z</time>
      </trkpt>
      <trkpt lat="45.99257" lon="3.51539">
        <ele>462.79998779297</ele>
        <time>2021-05-23T08:15:25Z</time>
      </trkpt>
      <trkpt lat="45.99257" lon="3.5154">
        <ele>462.60000610352</ele>
        <time>2021-05-23T08:15:26Z</time>
      </trkpt>
      <trkpt lat="45.99257" lon="3.51542">
        <ele>462.39999389648</ele>
        <time>2021-05-23T08:15:27Z</time>
      </trkpt>
      <trkpt lat="45.99258" lon="3.51553">
        <ele>462</ele>
        <time>2021-05-23T08:15:32Z</time>
      </trkpt>
      <trkpt lat="45.99259" lon="3.51556">
        <ele>461.39999389648</ele>
        <time>2021-05-23T08:15:34Z</time>
      </trkpt>
      <trkpt lat="45.9926" lon="3.51558">
        <ele>460.79998779297</ele>
        <time>2021-05-23T08:15:36Z</time>
      </trkpt>
      <trkpt lat="45.99261" lon="3.51562">
        <ele>460.20001220703</ele>
        <time>2021-05-23T08:15:39Z</time>
      </trkpt>
      <trkpt lat="45.99261" lon="3.51566">
        <ele>459.79998779297</ele>
        <time>2021-05-23T08:15:42Z</time>
      </trkpt>
      <trkpt lat="45.99262" lon="3.51569">
        <ele>459.60000610352</ele>
        <time>2021-05-23T08:15:45Z</time>
      </trkpt>
      <trkpt lat="45.99265" lon="3.51572">
        <ele>459.20001220703</ele>
        <time>2021-05-23T08:15:47Z</time>
      </trkpt>
      <trkpt lat="45.99268" lon="3.51573">
        <ele>459</ele>
        <time>2021-05-23T08:15:48Z</time>
      </trkpt>
      <trkpt lat="45.99271" lon="3.51577">
        <ele>458</ele>
        <time>2021-05-23T08:15:52Z</time>
      </trkpt>
      <trkpt lat="45.99273" lon="3.5158">
        <ele>457.39999389648</ele>
        <time>2021-05-23T08:15:55Z</time>
      </trkpt>
      <trkpt lat="45.99274" lon="3.51581">
        <ele>457.39999389648</ele>
        <time>2021-05-23T08:15:57Z</time>
      </trkpt>
      <trkpt lat="45.99276" lon="3.51581">
        <ele>457</ele>
        <time>2021-05-23T08:16:00Z</time>
      </trkpt>
      <trkpt lat="45.99276" lon="3.51582">
        <ele>456</ele>
        <time>2021-05-23T08:16:02Z</time>
      </trkpt>
      <trkpt lat="45.99276" lon="3.51582">
        <ele>455.79998779297</ele>
        <time>2021-05-23T08:16:03Z</time>
      </trkpt>
      <trkpt lat="45.99278" lon="3.51582">
        <ele>455.39999389648</ele>
        <time>2021-05-23T08:16:08Z</time>
      </trkpt>
      <trkpt lat="45.99282" lon="3.51582">
        <ele>454.79998779297</ele>
        <time>2021-05-23T08:16:11Z</time>
      </trkpt>
      <trkpt lat="45.99282" lon="3.51581">
        <ele>454.60000610352</ele>
        <time>2021-05-23T08:16:12Z</time>
      </trkpt>
      <trkpt lat="45.99282" lon="3.51581">
        <ele>454.39999389648</ele>
        <time>2021-05-23T08:16:13Z</time>
      </trkpt>
      <trkpt lat="45.99283" lon="3.5158">
        <ele>453.79998779297</ele>
        <time>2021-05-23T08:16:18Z</time>
      </trkpt>
      <trkpt lat="45.99284" lon="3.51579">
        <ele>453.60000610352</ele>
        <time>2021-05-23T08:16:21Z</time>
      </trkpt>
      <trkpt lat="45.99285" lon="3.51579">
        <ele>453.39999389648</ele>
        <time>2021-05-23T08:16:22Z</time>
      </trkpt>
      <trkpt lat="45.9929" lon="3.51572">
        <ele>452.60000610352</ele>
        <time>2021-05-23T08:16:31Z</time>
      </trkpt>
      <trkpt lat="45.9929" lon="3.51571">
        <ele>452.20001220703</ele>
        <time>2021-05-23T08:16:32Z</time>
      </trkpt>
      <trkpt lat="45.99293" lon="3.51566">
        <ele>451.60000610352</ele>
        <time>2021-05-23T08:16:35Z</time>
      </trkpt>
      <trkpt lat="45.99295" lon="3.51564">
        <ele>451.20001220703</ele>
        <time>2021-05-23T08:16:38Z</time>
      </trkpt>
      <trkpt lat="45.99298" lon="3.51565">
        <ele>450.39999389648</ele>
        <time>2021-05-23T08:16:41Z</time>
      </trkpt>
      <trkpt lat="45.993" lon="3.51565">
        <ele>450</ele>
        <time>2021-05-23T08:16:42Z</time>
      </trkpt>
      <trkpt lat="45.99302" lon="3.51566">
        <ele>449.79998779297</ele>
        <time>2021-05-23T08:16:43Z</time>
      </trkpt>
      <trkpt lat="45.99306" lon="3.51561">
        <ele>449.20001220703</ele>
        <time>2021-05-23T08:16:46Z</time>
      </trkpt>
      <trkpt lat="45.9931" lon="3.51557">
        <ele>448.20001220703</ele>
        <time>2021-05-23T08:16:52Z</time>
      </trkpt>
      <trkpt lat="45.99317" lon="3.51549">
        <ele>447</ele>
        <time>2021-05-23T08:16:59Z</time>
      </trkpt>
      <trkpt lat="45.99317" lon="3.51546">
        <ele>446.79998779297</ele>
        <time>2021-05-23T08:17:00Z</time>
      </trkpt>
      <trkpt lat="45.99319" lon="3.51544">
        <ele>446.60000610352</ele>
        <time>2021-05-23T08:17:02Z</time>
      </trkpt>
      <trkpt lat="45.99321" lon="3.51539">
        <ele>446</ele>
        <time>2021-05-23T08:17:06Z</time>
      </trkpt>
      <trkpt lat="45.99324" lon="3.51536">
        <ele>445.60000610352</ele>
        <time>2021-05-23T08:17:10Z</time>
      </trkpt>
      <trkpt lat="45.99324" lon="3.51534">
        <ele>445.39999389648</ele>
        <time>2021-05-23T08:17:12Z</time>
      </trkpt>
      <trkpt lat="45.99326" lon="3.51531">
        <ele>445</ele>
        <time>2021-05-23T08:17:15Z</time>
      </trkpt>
      <trkpt lat="45.99328" lon="3.5153">
        <ele>444.79998779297</ele>
        <time>2021-05-23T08:17:17Z</time>
      </trkpt>
      <trkpt lat="45.9933" lon="3.51528">
        <ele>444.60000610352</ele>
        <time>2021-05-23T08:17:20Z</time>
      </trkpt>
      <trkpt lat="45.99331" lon="3.51525">
        <ele>444.39999389648</ele>
        <time>2021-05-23T08:17:22Z</time>
      </trkpt>
      <trkpt lat="45.99332" lon="3.5152">
        <ele>444.39999389648</ele>
        <time>2021-05-23T08:17:25Z</time>
      </trkpt>
      <trkpt lat="45.99337" lon="3.51514">
        <ele>443.79998779297</ele>
        <time>2021-05-23T08:17:31Z</time>
      </trkpt>
      <trkpt lat="45.99337" lon="3.51513">
        <ele>443.60000610352</ele>
        <time>2021-05-23T08:17:32Z</time>
      </trkpt>
      <trkpt lat="45.9934" lon="3.51508">
        <ele>442.79998779297</ele>
        <time>2021-05-23T08:17:36Z</time>
      </trkpt>
      <trkpt lat="45.99344" lon="3.51501">
        <ele>442.20001220703</ele>
        <time>2021-05-23T08:17:42Z</time>
      </trkpt>
      <trkpt lat="45.9935" lon="3.51494">
        <ele>441.60000610352</ele>
        <time>2021-05-23T08:17:48Z</time>
      </trkpt>
      <trkpt lat="45.99353" lon="3.5149">
        <ele>441.20001220703</ele>
        <time>2021-05-23T08:17:52Z</time>
      </trkpt>
      <trkpt lat="45.99353" lon="3.51488">
        <ele>441</ele>
        <time>2021-05-23T08:17:53Z</time>
      </trkpt>
      <trkpt lat="45.99355" lon="3.51484">
        <ele>440.79998779297</ele>
        <time>2021-05-23T08:17:56Z</time>
      </trkpt>
      <trkpt lat="45.99355" lon="3.51482">
        <ele>440.39999389648</ele>
        <time>2021-05-23T08:17:57Z</time>
      </trkpt>
      <trkpt lat="45.99358" lon="3.51475">
        <ele>440</ele>
        <time>2021-05-23T08:18:02Z</time>
      </trkpt>
      <trkpt lat="45.9936" lon="3.51473">
        <ele>439.79998779297</ele>
        <time>2021-05-23T08:18:04Z</time>
      </trkpt>
      <trkpt lat="45.9936" lon="3.51472">
        <ele>439.39999389648</ele>
        <time>2021-05-23T08:18:06Z</time>
      </trkpt>
      <trkpt lat="45.99365" lon="3.51464">
        <ele>439.20001220703</ele>
        <time>2021-05-23T08:18:12Z</time>
      </trkpt>
      <trkpt lat="45.99365" lon="3.51462">
        <ele>439</ele>
        <time>2021-05-23T08:18:13Z</time>
      </trkpt>
      <trkpt lat="45.99368" lon="3.51454">
        <ele>438.39999389648</ele>
        <time>2021-05-23T08:18:18Z</time>
      </trkpt>
      <trkpt lat="45.9937" lon="3.51448">
        <ele>438</ele>
        <time>2021-05-23T08:18:22Z</time>
      </trkpt>
      <trkpt lat="45.99371" lon="3.51444">
        <ele>437.39999389648</ele>
        <time>2021-05-23T08:18:26Z</time>
      </trkpt>
      <trkpt lat="45.99372" lon="3.51443">
        <ele>437.39999389648</ele>
        <time>2021-05-23T08:18:27Z</time>
      </trkpt>
      <trkpt lat="45.99372" lon="3.51442">
        <ele>437.20001220703</ele>
        <time>2021-05-23T08:18:28Z</time>
      </trkpt>
      <trkpt lat="45.99374" lon="3.51439">
        <ele>436.79998779297</ele>
        <time>2021-05-23T08:18:32Z</time>
      </trkpt>
      <trkpt lat="45.99379" lon="3.51433">
        <ele>436.20001220703</ele>
        <time>2021-05-23T08:18:38Z</time>
      </trkpt>
      <trkpt lat="45.99383" lon="3.51429">
        <ele>435.60000610352</ele>
        <time>2021-05-23T08:18:42Z</time>
      </trkpt>
      <trkpt lat="45.99388" lon="3.51424">
        <ele>435.20001220703</ele>
        <time>2021-05-23T08:18:47Z</time>
      </trkpt>
      <trkpt lat="45.99389" lon="3.51423">
        <ele>435.20001220703</ele>
        <time>2021-05-23T08:18:48Z</time>
      </trkpt>
      <trkpt lat="45.99391" lon="3.51421">
        <ele>435</ele>
        <time>2021-05-23T08:18:50Z</time>
      </trkpt>
      <trkpt lat="45.99393" lon="3.5142">
        <ele>434.79998779297</ele>
        <time>2021-05-23T08:18:52Z</time>
      </trkpt>
      <trkpt lat="45.99395" lon="3.51416">
        <ele>434.39999389648</ele>
        <time>2021-05-23T08:18:56Z</time>
      </trkpt>
      <trkpt lat="45.99397" lon="3.51411">
        <ele>434.20001220703</ele>
        <time>2021-05-23T08:19:01Z</time>
      </trkpt>
      <trkpt lat="45.99398" lon="3.51411">
        <ele>434.20001220703</ele>
        <time>2021-05-23T08:19:02Z</time>
      </trkpt>
      <trkpt lat="45.99404" lon="3.51407">
        <ele>433.79998779297</ele>
        <time>2021-05-23T08:19:09Z</time>
      </trkpt>
      <trkpt lat="45.99406" lon="3.51405">
        <ele>433.79998779297</ele>
        <time>2021-05-23T08:19:11Z</time>
      </trkpt>
      <trkpt lat="45.99407" lon="3.51404">
        <ele>433.79998779297</ele>
        <time>2021-05-23T08:19:12Z</time>
      </trkpt>
      <trkpt lat="45.99412" lon="3.51396">
        <ele>433.39999389648</ele>
        <time>2021-05-23T08:19:19Z</time>
      </trkpt>
      <trkpt lat="45.99413" lon="3.51393">
        <ele>433.20001220703</ele>
        <time>2021-05-23T08:19:22Z</time>
      </trkpt>
      <trkpt lat="45.99416" lon="3.51388">
        <ele>433</ele>
        <time>2021-05-23T08:19:27Z</time>
      </trkpt>
      <trkpt lat="45.99416" lon="3.51388">
        <ele>433</ele>
        <time>2021-05-23T08:19:28Z</time>
      </trkpt>
      <trkpt lat="45.99419" lon="3.51385">
        <ele>432.39999389648</ele>
        <time>2021-05-23T08:19:32Z</time>
      </trkpt>
      <trkpt lat="45.99421" lon="3.51383">
        <ele>432.20001220703</ele>
        <time>2021-05-23T08:19:34Z</time>
      </trkpt>
      <trkpt lat="45.99424" lon="3.5138">
        <ele>432</ele>
        <time>2021-05-23T08:19:36Z</time>
      </trkpt>
      <trkpt lat="45.99429" lon="3.51375">
        <ele>431.39999389648</ele>
        <time>2021-05-23T08:19:42Z</time>
      </trkpt>
      <trkpt lat="45.99431" lon="3.51373">
        <ele>431.20001220703</ele>
        <time>2021-05-23T08:19:44Z</time>
      </trkpt>
      <trkpt lat="45.99433" lon="3.5137">
        <ele>431.20001220703</ele>
        <time>2021-05-23T08:19:46Z</time>
      </trkpt>
      <trkpt lat="45.99435" lon="3.51366">
        <ele>430.60000610352</ele>
        <time>2021-05-23T08:19:51Z</time>
      </trkpt>
      <trkpt lat="45.99436" lon="3.51365">
        <ele>430.39999389648</ele>
        <time>2021-05-23T08:19:52Z</time>
      </trkpt>
      <trkpt lat="45.99436" lon="3.51362">
        <ele>430.39999389648</ele>
        <time>2021-05-23T08:19:54Z</time>
      </trkpt>
      <trkpt lat="45.99436" lon="3.5136">
        <ele>430</ele>
        <time>2021-05-23T08:19:56Z</time>
      </trkpt>
      <trkpt lat="45.99436" lon="3.5136">
        <ele>429.79998779297</ele>
        <time>2021-05-23T08:19:58Z</time>
      </trkpt>
      <trkpt lat="45.99437" lon="3.51357">
        <ele>429.60000610352</ele>
        <time>2021-05-23T08:20:01Z</time>
      </trkpt>
      <trkpt lat="45.99437" lon="3.51357">
        <ele>429.60000610352</ele>
        <time>2021-05-23T08:20:02Z</time>
      </trkpt>
      <trkpt lat="45.99437" lon="3.51357">
        <ele>429.39999389648</ele>
        <time>2021-05-23T08:20:04Z</time>
      </trkpt>
      <trkpt lat="45.99436" lon="3.51357">
        <ele>429.39999389648</ele>
        <time>2021-05-23T08:20:07Z</time>
      </trkpt>
      <trkpt lat="45.99435" lon="3.5136">
        <ele>429</ele>
        <time>2021-05-23T08:20:11Z</time>
      </trkpt>
      <trkpt lat="45.99435" lon="3.51359">
        <ele>428.79998779297</ele>
        <time>2021-05-23T08:20:12Z</time>
      </trkpt>
      <trkpt lat="45.99435" lon="3.51358">
        <ele>428.79998779297</ele>
        <time>2021-05-23T08:20:14Z</time>
      </trkpt>
      <trkpt lat="45.99438" lon="3.51357">
        <ele>428.60000610352</ele>
        <time>2021-05-23T08:20:18Z</time>
      </trkpt>
      <trkpt lat="45.99439" lon="3.51358">
        <ele>428.39999389648</ele>
        <time>2021-05-23T08:20:22Z</time>
      </trkpt>
      <trkpt lat="45.99438" lon="3.51358">
        <ele>428.39999389648</ele>
        <time>2021-05-23T08:20:25Z</time>
      </trkpt>
      <trkpt lat="45.99434" lon="3.5136">
        <ele>428.20001220703</ele>
        <time>2021-05-23T08:20:28Z</time>
      </trkpt>
      <trkpt lat="45.99434" lon="3.5136">
        <ele>428</ele>
        <time>2021-05-23T08:20:32Z</time>
      </trkpt>
      <trkpt lat="45.99435" lon="3.5136">
        <ele>428</ele>
        <time>2021-05-23T08:20:33Z</time>
      </trkpt>
      <trkpt lat="45.99435" lon="3.51361">
        <ele>427.79998779297</ele>
        <time>2021-05-23T08:20:35Z</time>
      </trkpt>
      <trkpt lat="45.99438" lon="3.51359">
        <ele>427.79998779297</ele>
        <time>2021-05-23T08:20:37Z</time>
      </trkpt>
      <trkpt lat="45.99438" lon="3.51358">
        <ele>427.79998779297</ele>
        <time>2021-05-23T08:20:40Z</time>
      </trkpt>
      <trkpt lat="45.99438" lon="3.51358">
        <ele>427.60000610352</ele>
        <time>2021-05-23T08:20:42Z</time>
      </trkpt>
      <trkpt lat="45.99437" lon="3.51358">
        <ele>427.39999389648</ele>
        <time>2021-05-23T08:20:44Z</time>
      </trkpt>
      <trkpt lat="45.99439" lon="3.51357">
        <ele>427.20001220703</ele>
        <time>2021-05-23T08:20:46Z</time>
      </trkpt>
      <trkpt lat="45.99441" lon="3.51345">
        <ele>427.20001220703</ele>
        <time>2021-05-23T08:20:51Z</time>
      </trkpt>
      <trkpt lat="45.99441" lon="3.51342">
        <ele>427</ele>
        <time>2021-05-23T08:20:52Z</time>
      </trkpt>
      <trkpt lat="45.99442" lon="3.51341">
        <ele>427</ele>
        <time>2021-05-23T08:20:53Z</time>
      </trkpt>
      <trkpt lat="45.99443" lon="3.5134">
        <ele>427</ele>
        <time>2021-05-23T08:20:54Z</time>
      </trkpt>
      <trkpt lat="45.99445" lon="3.51338">
        <ele>426.79998779297</ele>
        <time>2021-05-23T08:20:55Z</time>
      </trkpt>
      <trkpt lat="45.99445" lon="3.51335">
        <ele>426.60000610352</ele>
        <time>2021-05-23T08:20:56Z</time>
      </trkpt>
      <trkpt lat="45.99446" lon="3.51334">
        <ele>426.39999389648</ele>
        <time>2021-05-23T08:20:57Z</time>
      </trkpt>
      <trkpt lat="45.99447" lon="3.51332">
        <ele>426.39999389648</ele>
        <time>2021-05-23T08:20:58Z</time>
      </trkpt>
      <trkpt lat="45.99449" lon="3.51331">
        <ele>426.39999389648</ele>
        <time>2021-05-23T08:20:59Z</time>
      </trkpt>
      <trkpt lat="45.9945" lon="3.5133">
        <ele>426.39999389648</ele>
        <time>2021-05-23T08:21:00Z</time>
      </trkpt>
      <trkpt lat="45.99452" lon="3.51329">
        <ele>426.39999389648</ele>
        <time>2021-05-23T08:21:01Z</time>
      </trkpt>
      <trkpt lat="45.99453" lon="3.51328">
        <ele>426.20001220703</ele>
        <time>2021-05-23T08:21:02Z</time>
      </trkpt>
      <trkpt lat="45.99454" lon="3.51327">
        <ele>426.20001220703</ele>
        <time>2021-05-23T08:21:03Z</time>
      </trkpt>
      <trkpt lat="45.99455" lon="3.51326">
        <ele>426</ele>
        <time>2021-05-23T08:21:04Z</time>
      </trkpt>
      <trkpt lat="45.99456" lon="3.51325">
        <ele>425.79998779297</ele>
        <time>2021-05-23T08:21:05Z</time>
      </trkpt>
      <trkpt lat="45.99462" lon="3.51318">
        <ele>425</ele>
        <time>2021-05-23T08:21:12Z</time>
      </trkpt>
      <trkpt lat="45.99463" lon="3.51316">
        <ele>425</ele>
        <time>2021-05-23T08:21:13Z</time>
      </trkpt>
      <trkpt lat="45.99467" lon="3.51313">
        <ele>424.60000610352</ele>
        <time>2021-05-23T08:21:17Z</time>
      </trkpt>
      <trkpt lat="45.99472" lon="3.51308">
        <ele>423.60000610352</ele>
        <time>2021-05-23T08:21:22Z</time>
      </trkpt>
      <trkpt lat="45.99473" lon="3.51307">
        <ele>423.60000610352</ele>
        <time>2021-05-23T08:21:23Z</time>
      </trkpt>
      <trkpt lat="45.99475" lon="3.51304">
        <ele>423.60000610352</ele>
        <time>2021-05-23T08:21:25Z</time>
      </trkpt>
      <trkpt lat="45.99478" lon="3.51302">
        <ele>423</ele>
        <time>2021-05-23T08:21:29Z</time>
      </trkpt>
      <trkpt lat="45.99478" lon="3.513">
        <ele>422.60000610352</ele>
        <time>2021-05-23T08:21:31Z</time>
      </trkpt>
      <trkpt lat="45.99479" lon="3.51299">
        <ele>422.60000610352</ele>
        <time>2021-05-23T08:21:32Z</time>
      </trkpt>
      <trkpt lat="45.99483" lon="3.51293">
        <ele>421.79998779297</ele>
        <time>2021-05-23T08:21:38Z</time>
      </trkpt>
      <trkpt lat="45.99484" lon="3.51292">
        <ele>421.60000610352</ele>
        <time>2021-05-23T08:21:39Z</time>
      </trkpt>
      <trkpt lat="45.99486" lon="3.51289">
        <ele>421.20001220703</ele>
        <time>2021-05-23T08:21:42Z</time>
      </trkpt>
      <trkpt lat="45.99487" lon="3.51286">
        <ele>420.79998779297</ele>
        <time>2021-05-23T08:21:45Z</time>
      </trkpt>
      <trkpt lat="45.99488" lon="3.51284">
        <ele>420.39999389648</ele>
        <time>2021-05-23T08:21:47Z</time>
      </trkpt>
      <trkpt lat="45.99489" lon="3.51279">
        <ele>420</ele>
        <time>2021-05-23T08:21:51Z</time>
      </trkpt>
      <trkpt lat="45.9949" lon="3.51278">
        <ele>419.79998779297</ele>
        <time>2021-05-23T08:21:52Z</time>
      </trkpt>
      <trkpt lat="45.99491" lon="3.51276">
        <ele>419.20001220703</ele>
        <time>2021-05-23T08:21:54Z</time>
      </trkpt>
      <trkpt lat="45.99493" lon="3.51273">
        <ele>418.60000610352</ele>
        <time>2021-05-23T08:21:57Z</time>
      </trkpt>
      <trkpt lat="45.99493" lon="3.51272">
        <ele>418.39999389648</ele>
        <time>2021-05-23T08:21:59Z</time>
      </trkpt>
      <trkpt lat="45.99494" lon="3.51268">
        <ele>418.20001220703</ele>
        <time>2021-05-23T08:22:02Z</time>
      </trkpt>
      <trkpt lat="45.99496" lon="3.51263">
        <ele>417.79998779297</ele>
        <time>2021-05-23T08:22:06Z</time>
      </trkpt>
      <trkpt lat="45.99496" lon="3.51259">
        <ele>417.79998779297</ele>
        <time>2021-05-23T08:22:08Z</time>
      </trkpt>
      <trkpt lat="45.99496" lon="3.51253">
        <ele>417.39999389648</ele>
        <time>2021-05-23T08:22:12Z</time>
      </trkpt>
      <trkpt lat="45.99496" lon="3.51252">
        <ele>417</ele>
        <time>2021-05-23T08:22:13Z</time>
      </trkpt>
      <trkpt lat="45.99498" lon="3.51249">
        <ele>416.39999389648</ele>
        <time>2021-05-23T08:22:15Z</time>
      </trkpt>
      <trkpt lat="45.99499" lon="3.51246">
        <ele>416</ele>
        <time>2021-05-23T08:22:17Z</time>
      </trkpt>
      <trkpt lat="45.99504" lon="3.51236">
        <ele>415.60000610352</ele>
        <time>2021-05-23T08:22:22Z</time>
      </trkpt>
      <trkpt lat="45.99505" lon="3.51234">
        <ele>415.39999389648</ele>
        <time>2021-05-23T08:22:23Z</time>
      </trkpt>
      <trkpt lat="45.99508" lon="3.51231">
        <ele>415</ele>
        <time>2021-05-23T08:22:25Z</time>
      </trkpt>
      <trkpt lat="45.99512" lon="3.51228">
        <ele>414.39999389648</ele>
        <time>2021-05-23T08:22:29Z</time>
      </trkpt>
      <trkpt lat="45.99515" lon="3.51224">
        <ele>414.39999389648</ele>
        <time>2021-05-23T08:22:32Z</time>
      </trkpt>
      <trkpt lat="45.9952" lon="3.51219">
        <ele>414</ele>
        <time>2021-05-23T08:22:37Z</time>
      </trkpt>
      <trkpt lat="45.99521" lon="3.51219">
        <ele>414</ele>
        <time>2021-05-23T08:22:39Z</time>
      </trkpt>
      <trkpt lat="45.99525" lon="3.51224">
        <ele>414</ele>
        <time>2021-05-23T08:22:42Z</time>
      </trkpt>
      <trkpt lat="45.99529" lon="3.5123">
        <ele>414.39999389648</ele>
        <time>2021-05-23T08:22:45Z</time>
      </trkpt>
      <trkpt lat="45.99532" lon="3.51238">
        <ele>414.79998779297</ele>
        <time>2021-05-23T08:22:50Z</time>
      </trkpt>
      <trkpt lat="45.99533" lon="3.51239">
        <ele>415</ele>
        <time>2021-05-23T08:22:51Z</time>
      </trkpt>
      <trkpt lat="45.99533" lon="3.51241">
        <ele>415.20001220703</ele>
        <time>2021-05-23T08:22:52Z</time>
      </trkpt>
      <trkpt lat="45.99533" lon="3.51243">
        <ele>415.39999389648</ele>
        <time>2021-05-23T08:22:54Z</time>
      </trkpt>
      <trkpt lat="45.99534" lon="3.51251">
        <ele>415.79998779297</ele>
        <time>2021-05-23T08:23:02Z</time>
      </trkpt>
      <trkpt lat="45.99535" lon="3.51254">
        <ele>416</ele>
        <time>2021-05-23T08:23:05Z</time>
      </trkpt>
      <trkpt lat="45.99535" lon="3.51255">
        <ele>416.20001220703</ele>
        <time>2021-05-23T08:23:06Z</time>
      </trkpt>
      <trkpt lat="45.99534" lon="3.51257">
        <ele>416.60000610352</ele>
        <time>2021-05-23T08:23:08Z</time>
      </trkpt>
      <trkpt lat="45.99535" lon="3.51262">
        <ele>417.20001220703</ele>
        <time>2021-05-23T08:23:11Z</time>
      </trkpt>
      <trkpt lat="45.99535" lon="3.51262">
        <ele>417.39999389648</ele>
        <time>2021-05-23T08:23:12Z</time>
      </trkpt>
      <trkpt lat="45.99535" lon="3.51263">
        <ele>417.60000610352</ele>
        <time>2021-05-23T08:23:13Z</time>
      </trkpt>
      <trkpt lat="45.99536" lon="3.51266">
        <ele>418</ele>
        <time>2021-05-23T08:23:17Z</time>
      </trkpt>
      <trkpt lat="45.99538" lon="3.51267">
        <ele>418.39999389648</ele>
        <time>2021-05-23T08:23:19Z</time>
      </trkpt>
      <trkpt lat="45.9954" lon="3.51269">
        <ele>419</ele>
        <time>2021-05-23T08:23:22Z</time>
      </trkpt>
      <trkpt lat="45.99539" lon="3.51273">
        <ele>419.39999389648</ele>
        <time>2021-05-23T08:23:26Z</time>
      </trkpt>
      <trkpt lat="45.99538" lon="3.51278">
        <ele>420</ele>
        <time>2021-05-23T08:23:30Z</time>
      </trkpt>
      <trkpt lat="45.99538" lon="3.51279">
        <ele>420.20001220703</ele>
        <time>2021-05-23T08:23:32Z</time>
      </trkpt>
      <trkpt lat="45.99538" lon="3.51279">
        <ele>420.39999389648</ele>
        <time>2021-05-23T08:23:33Z</time>
      </trkpt>
      <trkpt lat="45.9954" lon="3.5128">
        <ele>420.60000610352</ele>
        <time>2021-05-23T08:23:35Z</time>
      </trkpt>
      <trkpt lat="45.99542" lon="3.51283">
        <ele>421</ele>
        <time>2021-05-23T08:23:38Z</time>
      </trkpt>
      <trkpt lat="45.99543" lon="3.51286">
        <ele>421.60000610352</ele>
        <time>2021-05-23T08:23:42Z</time>
      </trkpt>
      <trkpt lat="45.99545" lon="3.51292">
        <ele>422.79998779297</ele>
        <time>2021-05-23T08:23:51Z</time>
      </trkpt>
      <trkpt lat="45.99546" lon="3.51292">
        <ele>422.79998779297</ele>
        <time>2021-05-23T08:23:52Z</time>
      </trkpt>
      <trkpt lat="45.99546" lon="3.51294">
        <ele>423.79998779297</ele>
        <time>2021-05-23T08:23:57Z</time>
      </trkpt>
      <trkpt lat="45.99549" lon="3.51299">
        <ele>425</ele>
        <time>2021-05-23T08:24:02Z</time>
      </trkpt>
      <trkpt lat="45.99549" lon="3.513">
        <ele>425.20001220703</ele>
        <time>2021-05-23T08:24:04Z</time>
      </trkpt>
      <trkpt lat="45.99549" lon="3.51305">
        <ele>426</ele>
        <time>2021-05-23T08:24:10Z</time>
      </trkpt>
      <trkpt lat="45.99549" lon="3.51306">
        <ele>426.20001220703</ele>
        <time>2021-05-23T08:24:12Z</time>
      </trkpt>
      <trkpt lat="45.9955" lon="3.51311">
        <ele>426.20001220703</ele>
        <time>2021-05-23T08:24:22Z</time>
      </trkpt>
      <trkpt lat="45.9955" lon="3.51308">
        <ele>426.60000610352</ele>
        <time>2021-05-23T08:24:32Z</time>
      </trkpt>
      <trkpt lat="45.99551" lon="3.51308">
        <ele>427</ele>
        <time>2021-05-23T08:24:35Z</time>
      </trkpt>
      <trkpt lat="45.99553" lon="3.51311">
        <ele>428.20001220703</ele>
        <time>2021-05-23T08:24:41Z</time>
      </trkpt>
      <trkpt lat="45.99553" lon="3.51311">
        <ele>428.20001220703</ele>
        <time>2021-05-23T08:24:42Z</time>
      </trkpt>
      <trkpt lat="45.99556" lon="3.51314">
        <ele>429.20001220703</ele>
        <time>2021-05-23T08:24:50Z</time>
      </trkpt>
      <trkpt lat="45.99557" lon="3.51315">
        <ele>429.60000610352</ele>
        <time>2021-05-23T08:24:52Z</time>
      </trkpt>
      <trkpt lat="45.99559" lon="3.51316">
        <ele>430.20001220703</ele>
        <time>2021-05-23T08:24:57Z</time>
      </trkpt>
      <trkpt lat="45.9956" lon="3.51317">
        <ele>431</ele>
        <time>2021-05-23T08:25:00Z</time>
      </trkpt>
      <trkpt lat="45.99562" lon="3.51317">
        <ele>431</ele>
        <time>2021-05-23T08:25:02Z</time>
      </trkpt>
      <trkpt lat="45.99563" lon="3.51318">
        <ele>431</ele>
        <time>2021-05-23T08:25:04Z</time>
      </trkpt>
      <trkpt lat="45.99566" lon="3.51318">
        <ele>431.20001220703</ele>
        <time>2021-05-23T08:25:06Z</time>
      </trkpt>
      <trkpt lat="45.99567" lon="3.51319">
        <ele>431.39999389648</ele>
        <time>2021-05-23T08:25:07Z</time>
      </trkpt>
      <trkpt lat="45.9957" lon="3.51319">
        <ele>432</ele>
        <time>2021-05-23T08:25:11Z</time>
      </trkpt>
      <trkpt lat="45.99572" lon="3.51319">
        <ele>432.20001220703</ele>
        <time>2021-05-23T08:25:12Z</time>
      </trkpt>
      <trkpt lat="45.99574" lon="3.5132">
        <ele>432.20001220703</ele>
        <time>2021-05-23T08:25:14Z</time>
      </trkpt>
      <trkpt lat="45.99576" lon="3.51322">
        <ele>432.39999389648</ele>
        <time>2021-05-23T08:25:17Z</time>
      </trkpt>
      <trkpt lat="45.99579" lon="3.51321">
        <ele>432.60000610352</ele>
        <time>2021-05-23T08:25:20Z</time>
      </trkpt>
      <trkpt lat="45.99581" lon="3.5132">
        <ele>432.60000610352</ele>
        <time>2021-05-23T08:25:22Z</time>
      </trkpt>
      <trkpt lat="45.99586" lon="3.51316">
        <ele>432.79998779297</ele>
        <time>2021-05-23T08:25:27Z</time>
      </trkpt>
      <trkpt lat="45.9959" lon="3.51309">
        <ele>432.79998779297</ele>
        <time>2021-05-23T08:25:31Z</time>
      </trkpt>
      <trkpt lat="45.99591" lon="3.51307">
        <ele>432.79998779297</ele>
        <time>2021-05-23T08:25:32Z</time>
      </trkpt>
      <trkpt lat="45.99593" lon="3.51309">
        <ele>432.79998779297</ele>
        <time>2021-05-23T08:25:33Z</time>
      </trkpt>
      <trkpt lat="45.99601" lon="3.51308">
        <ele>432.39999389648</ele>
        <time>2021-05-23T08:25:42Z</time>
      </trkpt>
      <trkpt lat="45.99609" lon="3.51304">
        <ele>431.60000610352</ele>
        <time>2021-05-23T08:25:52Z</time>
      </trkpt>
      <trkpt lat="45.9961" lon="3.51305">
        <ele>431.60000610352</ele>
        <time>2021-05-23T08:25:53Z</time>
      </trkpt>
      <trkpt lat="45.99613" lon="3.5131">
        <ele>431.39999389648</ele>
        <time>2021-05-23T08:25:57Z</time>
      </trkpt>
      <trkpt lat="45.99616" lon="3.51312">
        <ele>431.20001220703</ele>
        <time>2021-05-23T08:26:00Z</time>
      </trkpt>
      <trkpt lat="45.99618" lon="3.51313">
        <ele>431.20001220703</ele>
        <time>2021-05-23T08:26:02Z</time>
      </trkpt>
      <trkpt lat="45.99623" lon="3.51315">
        <ele>430.39999389648</ele>
        <time>2021-05-23T08:26:07Z</time>
      </trkpt>
      <trkpt lat="45.99629" lon="3.51313">
        <ele>430.20001220703</ele>
        <time>2021-05-23T08:26:12Z</time>
      </trkpt>
      <trkpt lat="45.99634" lon="3.51308">
        <ele>429</ele>
        <time>2021-05-23T08:26:16Z</time>
      </trkpt>
      <trkpt lat="45.9964" lon="3.51304">
        <ele>428.60000610352</ele>
        <time>2021-05-23T08:26:22Z</time>
      </trkpt>
      <trkpt lat="45.99643" lon="3.51303">
        <ele>427.79998779297</ele>
        <time>2021-05-23T08:26:25Z</time>
      </trkpt>
      <trkpt lat="45.99648" lon="3.51296">
        <ele>426.60000610352</ele>
        <time>2021-05-23T08:26:30Z</time>
      </trkpt>
      <trkpt lat="45.9965" lon="3.51295">
        <ele>426</ele>
        <time>2021-05-23T08:26:32Z</time>
      </trkpt>
      <trkpt lat="45.99652" lon="3.51294">
        <ele>425.20001220703</ele>
        <time>2021-05-23T08:26:34Z</time>
      </trkpt>
      <trkpt lat="45.99653" lon="3.51293">
        <ele>425</ele>
        <time>2021-05-23T08:26:35Z</time>
      </trkpt>
      <trkpt lat="45.99656" lon="3.51292">
        <ele>424.20001220703</ele>
        <time>2021-05-23T08:26:38Z</time>
      </trkpt>
      <trkpt lat="45.9966" lon="3.51293">
        <ele>423.20001220703</ele>
        <time>2021-05-23T08:26:42Z</time>
      </trkpt>
      <trkpt lat="45.99663" lon="3.5129">
        <ele>422.60000610352</ele>
        <time>2021-05-23T08:26:46Z</time>
      </trkpt>
      <trkpt lat="45.9967" lon="3.51277">
        <ele>422</ele>
        <time>2021-05-23T08:26:51Z</time>
      </trkpt>
      <trkpt lat="45.99671" lon="3.51275">
        <ele>421.79998779297</ele>
        <time>2021-05-23T08:26:52Z</time>
      </trkpt>
      <trkpt lat="45.99675" lon="3.51275">
        <ele>421</ele>
        <time>2021-05-23T08:26:58Z</time>
      </trkpt>
      <trkpt lat="45.99677" lon="3.51275">
        <ele>420.39999389648</ele>
        <time>2021-05-23T08:27:02Z</time>
      </trkpt>
      <trkpt lat="45.9968" lon="3.51278">
        <ele>419.79998779297</ele>
        <time>2021-05-23T08:27:06Z</time>
      </trkpt>
      <trkpt lat="45.9968" lon="3.51278">
        <ele>419.79998779297</ele>
        <time>2021-05-23T08:27:07Z</time>
      </trkpt>
      <trkpt lat="45.99682" lon="3.51281">
        <ele>419.20001220703</ele>
        <time>2021-05-23T08:27:10Z</time>
      </trkpt>
      <trkpt lat="45.99682" lon="3.51286">
        <ele>419.20001220703</ele>
        <time>2021-05-23T08:27:12Z</time>
      </trkpt>
      <trkpt lat="45.99681" lon="3.51288">
        <ele>419.20001220703</ele>
        <time>2021-05-23T08:27:13Z</time>
      </trkpt>
      <trkpt lat="45.9968" lon="3.5129">
        <ele>419.39999389648</ele>
        <time>2021-05-23T08:27:15Z</time>
      </trkpt>
      <trkpt lat="45.99677" lon="3.513">
        <ele>420.39999389648</ele>
        <time>2021-05-23T08:27:22Z</time>
      </trkpt>
      <trkpt lat="45.99677" lon="3.51303">
        <ele>421</ele>
        <time>2021-05-23T08:27:25Z</time>
      </trkpt>
      <trkpt lat="45.99677" lon="3.51308">
        <ele>421.39999389648</ele>
        <time>2021-05-23T08:27:29Z</time>
      </trkpt>
      <trkpt lat="45.99676" lon="3.51309">
        <ele>421.60000610352</ele>
        <time>2021-05-23T08:27:30Z</time>
      </trkpt>
      <trkpt lat="45.99677" lon="3.51311">
        <ele>421.79998779297</ele>
        <time>2021-05-23T08:27:32Z</time>
      </trkpt>
      <trkpt lat="45.99681" lon="3.51315">
        <ele>422</ele>
        <time>2021-05-23T08:27:34Z</time>
      </trkpt>
      <trkpt lat="45.99681" lon="3.51316">
        <ele>422</ele>
        <time>2021-05-23T08:27:35Z</time>
      </trkpt>
      <trkpt lat="45.99682" lon="3.51318">
        <ele>422.20001220703</ele>
        <time>2021-05-23T08:27:37Z</time>
      </trkpt>
      <trkpt lat="45.99685" lon="3.5132">
        <ele>422.20001220703</ele>
        <time>2021-05-23T08:27:40Z</time>
      </trkpt>
      <trkpt lat="45.99685" lon="3.5132">
        <ele>422.20001220703</ele>
        <time>2021-05-23T08:27:42Z</time>
      </trkpt>
      <trkpt lat="45.9969" lon="3.5132">
        <ele>421.79998779297</ele>
        <time>2021-05-23T08:27:47Z</time>
      </trkpt>
      <trkpt lat="45.99691" lon="3.5132">
        <ele>421.79998779297</ele>
        <time>2021-05-23T08:27:49Z</time>
      </trkpt>
      <trkpt lat="45.9969" lon="3.51321">
        <ele>422</ele>
        <time>2021-05-23T08:27:52Z</time>
      </trkpt>
      <trkpt lat="45.99695" lon="3.51323">
        <ele>422</ele>
        <time>2021-05-23T08:28:02Z</time>
      </trkpt>
      <trkpt lat="45.99695" lon="3.51323">
        <ele>421.79998779297</ele>
        <time>2021-05-23T08:28:07Z</time>
      </trkpt>
      <trkpt lat="45.99697" lon="3.51322">
        <ele>421.39999389648</ele>
        <time>2021-05-23T08:28:12Z</time>
      </trkpt>
      <trkpt lat="45.99698" lon="3.51322">
        <ele>421</ele>
        <time>2021-05-23T08:28:17Z</time>
      </trkpt>
      <trkpt lat="45.99703" lon="3.51321">
        <ele>421</ele>
        <time>2021-05-23T08:28:22Z</time>
      </trkpt>
      <trkpt lat="45.99706" lon="3.51322">
        <ele>421</ele>
        <time>2021-05-23T08:28:32Z</time>
      </trkpt>
      <trkpt lat="45.99702" lon="3.51325">
        <ele>421</ele>
        <time>2021-05-23T08:28:40Z</time>
      </trkpt>
      <trkpt lat="45.99701" lon="3.51326">
        <ele>420.79998779297</ele>
        <time>2021-05-23T08:28:42Z</time>
      </trkpt>
      <trkpt lat="45.99699" lon="3.51326">
        <ele>420.79998779297</ele>
        <time>2021-05-23T08:28:45Z</time>
      </trkpt>
      <trkpt lat="45.997" lon="3.51329">
        <ele>420.79998779297</ele>
        <time>2021-05-23T08:28:49Z</time>
      </trkpt>
      <trkpt lat="45.99699" lon="3.51329">
        <ele>420.79998779297</ele>
        <time>2021-05-23T08:28:52Z</time>
      </trkpt>
      <trkpt lat="45.99703" lon="3.51331">
        <ele>420.60000610352</ele>
        <time>2021-05-23T08:28:59Z</time>
      </trkpt>
      <trkpt lat="45.997" lon="3.51331">
        <ele>420.60000610352</ele>
        <time>2021-05-23T08:29:02Z</time>
      </trkpt>
      <trkpt lat="45.99693" lon="3.5133">
        <ele>420.39999389648</ele>
        <time>2021-05-23T08:29:11Z</time>
      </trkpt>
      <trkpt lat="45.99691" lon="3.5133">
        <ele>420.39999389648</ele>
        <time>2021-05-23T08:29:12Z</time>
      </trkpt>
      <trkpt lat="45.99688" lon="3.51331">
        <ele>420.60000610352</ele>
        <time>2021-05-23T08:29:15Z</time>
      </trkpt>
      <trkpt lat="45.99685" lon="3.5133">
        <ele>420.79998779297</ele>
        <time>2021-05-23T08:29:19Z</time>
      </trkpt>
      <trkpt lat="45.99684" lon="3.51329">
        <ele>421</ele>
        <time>2021-05-23T08:29:21Z</time>
      </trkpt>
      <trkpt lat="45.99683" lon="3.51328">
        <ele>421.20001220703</ele>
        <time>2021-05-23T08:29:22Z</time>
      </trkpt>
      <trkpt lat="45.99684" lon="3.51326">
        <ele>422.20001220703</ele>
        <time>2021-05-23T08:29:25Z</time>
      </trkpt>
      <trkpt lat="45.99681" lon="3.51331">
        <ele>423.20001220703</ele>
        <time>2021-05-23T08:29:31Z</time>
      </trkpt>
      <trkpt lat="45.99681" lon="3.51332">
        <ele>423.39999389648</ele>
        <time>2021-05-23T08:29:32Z</time>
      </trkpt>
      <trkpt lat="45.99682" lon="3.51336">
        <ele>424</ele>
        <time>2021-05-23T08:29:35Z</time>
      </trkpt>
      <trkpt lat="45.99682" lon="3.51338">
        <ele>424.20001220703</ele>
        <time>2021-05-23T08:29:36Z</time>
      </trkpt>
      <trkpt lat="45.99682" lon="3.51339">
        <ele>424.39999389648</ele>
        <time>2021-05-23T08:29:37Z</time>
      </trkpt>
      <trkpt lat="45.99682" lon="3.51341">
        <ele>425</ele>
        <time>2021-05-23T08:29:40Z</time>
      </trkpt>
      <trkpt lat="45.99682" lon="3.51343">
        <ele>425.39999389648</ele>
        <time>2021-05-23T08:29:41Z</time>
      </trkpt>
      <trkpt lat="45.99682" lon="3.51343">
        <ele>425.60000610352</ele>
        <time>2021-05-23T08:29:42Z</time>
      </trkpt>
      <trkpt lat="45.99682" lon="3.51346">
        <ele>426</ele>
        <time>2021-05-23T08:29:44Z</time>
      </trkpt>
      <trkpt lat="45.99683" lon="3.51348">
        <ele>426.39999389648</ele>
        <time>2021-05-23T08:29:47Z</time>
      </trkpt>
      <trkpt lat="45.99683" lon="3.51351">
        <ele>427</ele>
        <time>2021-05-23T08:29:51Z</time>
      </trkpt>
      <trkpt lat="45.99682" lon="3.51351">
        <ele>427.20001220703</ele>
        <time>2021-05-23T08:29:52Z</time>
      </trkpt>
      <trkpt lat="45.99683" lon="3.51353">
        <ele>427.39999389648</ele>
        <time>2021-05-23T08:29:54Z</time>
      </trkpt>
      <trkpt lat="45.99686" lon="3.51358">
        <ele>428.39999389648</ele>
        <time>2021-05-23T08:30:00Z</time>
      </trkpt>
      <trkpt lat="45.99686" lon="3.51359">
        <ele>428.60000610352</ele>
        <time>2021-05-23T08:30:01Z</time>
      </trkpt>
      <trkpt lat="45.99686" lon="3.5136">
        <ele>428.60000610352</ele>
        <time>2021-05-23T08:30:02Z</time>
      </trkpt>
      <trkpt lat="45.99686" lon="3.51365">
        <ele>429.60000610352</ele>
        <time>2021-05-23T08:30:08Z</time>
      </trkpt>
      <trkpt lat="45.99686" lon="3.51369">
        <ele>429.79998779297</ele>
        <time>2021-05-23T08:30:12Z</time>
      </trkpt>
      <trkpt lat="45.99686" lon="3.51371">
        <ele>430</ele>
        <time>2021-05-23T08:30:15Z</time>
      </trkpt>
      <trkpt lat="45.99687" lon="3.51371">
        <ele>430</ele>
        <time>2021-05-23T08:30:17Z</time>
      </trkpt>
      <trkpt lat="45.99687" lon="3.51371">
        <ele>430</ele>
        <time>2021-05-23T08:30:18Z</time>
      </trkpt>
      <trkpt lat="45.99688" lon="3.5137">
        <ele>430</ele>
        <time>2021-05-23T08:30:19Z</time>
      </trkpt>
      <trkpt lat="45.9969" lon="3.51371">
        <ele>429.60000610352</ele>
        <time>2021-05-23T08:30:22Z</time>
      </trkpt>
      <trkpt lat="45.99691" lon="3.5137">
        <ele>428.60000610352</ele>
        <time>2021-05-23T08:30:27Z</time>
      </trkpt>
      <trkpt lat="45.99694" lon="3.51374">
        <ele>427.79998779297</ele>
        <time>2021-05-23T08:30:32Z</time>
      </trkpt>
      <trkpt lat="45.99696" lon="3.51377">
        <ele>427.39999389648</ele>
        <time>2021-05-23T08:30:35Z</time>
      </trkpt>
      <trkpt lat="45.99695" lon="3.51381">
        <ele>427</ele>
        <time>2021-05-23T08:30:41Z</time>
      </trkpt>
      <trkpt lat="45.99695" lon="3.51381">
        <ele>427</ele>
        <time>2021-05-23T08:30:42Z</time>
      </trkpt>
      <trkpt lat="45.99695" lon="3.51379">
        <ele>426.39999389648</ele>
        <time>2021-05-23T08:30:48Z</time>
      </trkpt>
      <trkpt lat="45.99694" lon="3.51379">
        <ele>425.79998779297</ele>
        <time>2021-05-23T08:30:52Z</time>
      </trkpt>
      <trkpt lat="45.99692" lon="3.51384">
        <ele>426</ele>
        <time>2021-05-23T08:31:01Z</time>
      </trkpt>
      <trkpt lat="45.99693" lon="3.51386">
        <ele>426.20001220703</ele>
        <time>2021-05-23T08:31:02Z</time>
      </trkpt>
      <trkpt lat="45.99692" lon="3.51391">
        <ele>426.79998779297</ele>
        <time>2021-05-23T08:31:06Z</time>
      </trkpt>
      <trkpt lat="45.99694" lon="3.51393">
        <ele>426.79998779297</ele>
        <time>2021-05-23T08:31:08Z</time>
      </trkpt>
      <trkpt lat="45.99693" lon="3.51395">
        <ele>427.20001220703</ele>
        <time>2021-05-23T08:31:12Z</time>
      </trkpt>
      <trkpt lat="45.99692" lon="3.51396">
        <ele>427.60000610352</ele>
        <time>2021-05-23T08:31:16Z</time>
      </trkpt>
      <trkpt lat="45.99692" lon="3.51398">
        <ele>428.79998779297</ele>
        <time>2021-05-23T08:31:21Z</time>
      </trkpt>
      <trkpt lat="45.99693" lon="3.51399">
        <ele>428.79998779297</ele>
        <time>2021-05-23T08:31:22Z</time>
      </trkpt>
      <trkpt lat="45.99693" lon="3.51408">
        <ele>429.60000610352</ele>
        <time>2021-05-23T08:31:32Z</time>
      </trkpt>
      <trkpt lat="45.99692" lon="3.51407">
        <ele>429.79998779297</ele>
        <time>2021-05-23T08:31:35Z</time>
      </trkpt>
      <trkpt lat="45.9969" lon="3.51406">
        <ele>430.60000610352</ele>
        <time>2021-05-23T08:31:42Z</time>
      </trkpt>
      <trkpt lat="45.99688" lon="3.51405">
        <ele>430.79998779297</ele>
        <time>2021-05-23T08:31:44Z</time>
      </trkpt>
      <trkpt lat="45.99684" lon="3.514">
        <ele>432</ele>
        <time>2021-05-23T08:31:51Z</time>
      </trkpt>
      <trkpt lat="45.99685" lon="3.514">
        <ele>432.39999389648</ele>
        <time>2021-05-23T08:31:52Z</time>
      </trkpt>
      <trkpt lat="45.99684" lon="3.514">
        <ele>433.20001220703</ele>
        <time>2021-05-23T08:31:55Z</time>
      </trkpt>
      <trkpt lat="45.99684" lon="3.51401">
        <ele>433.39999389648</ele>
        <time>2021-05-23T08:31:58Z</time>
      </trkpt>
      <trkpt lat="45.99682" lon="3.51401">
        <ele>433.39999389648</ele>
        <time>2021-05-23T08:32:02Z</time>
      </trkpt>
      <trkpt lat="45.99677" lon="3.51404">
        <ele>433.79998779297</ele>
        <time>2021-05-23T08:32:12Z</time>
      </trkpt>
      <trkpt lat="45.99676" lon="3.51403">
        <ele>434.20001220703</ele>
        <time>2021-05-23T08:32:14Z</time>
      </trkpt>
      <trkpt lat="45.99676" lon="3.51399">
        <ele>435.20001220703</ele>
        <time>2021-05-23T08:32:19Z</time>
      </trkpt>
      <trkpt lat="45.99677" lon="3.51395">
        <ele>435.79998779297</ele>
        <time>2021-05-23T08:32:22Z</time>
      </trkpt>
      <trkpt lat="45.99676" lon="3.51394">
        <ele>436.39999389648</ele>
        <time>2021-05-23T08:32:25Z</time>
      </trkpt>
      <trkpt lat="45.9967" lon="3.51395">
        <ele>437</ele>
        <time>2021-05-23T08:32:32Z</time>
      </trkpt>
      <trkpt lat="45.99669" lon="3.51396">
        <ele>437.60000610352</ele>
        <time>2021-05-23T08:32:37Z</time>
      </trkpt>
      <trkpt lat="45.99667" lon="3.51397">
        <ele>438.60000610352</ele>
        <time>2021-05-23T08:32:40Z</time>
      </trkpt>
      <trkpt lat="45.99667" lon="3.51396">
        <ele>439</ele>
        <time>2021-05-23T08:32:41Z</time>
      </trkpt>
      <trkpt lat="45.99667" lon="3.51396">
        <ele>439.20001220703</ele>
        <time>2021-05-23T08:32:42Z</time>
      </trkpt>
      <trkpt lat="45.99675" lon="3.5139">
        <ele>438.79998779297</ele>
        <time>2021-05-23T08:32:52Z</time>
      </trkpt>
      <trkpt lat="45.99669" lon="3.51389">
        <ele>440</ele>
        <time>2021-05-23T08:33:02Z</time>
      </trkpt>
      <trkpt lat="45.99671" lon="3.5139">
        <ele>441.20001220703</ele>
        <time>2021-05-23T08:33:12Z</time>
      </trkpt>
      <trkpt lat="45.99668" lon="3.51392">
        <ele>442.20001220703</ele>
        <time>2021-05-23T08:33:19Z</time>
      </trkpt>
      <trkpt lat="45.99666" lon="3.51392">
        <ele>442.60000610352</ele>
        <time>2021-05-23T08:33:22Z</time>
      </trkpt>
      <trkpt lat="45.99663" lon="3.51393">
        <ele>443.20001220703</ele>
        <time>2021-05-23T08:33:25Z</time>
      </trkpt>
      <trkpt lat="45.99662" lon="3.51393">
        <ele>443.79998779297</ele>
        <time>2021-05-23T08:33:27Z</time>
      </trkpt>
      <trkpt lat="45.99661" lon="3.51393">
        <ele>444</ele>
        <time>2021-05-23T08:33:28Z</time>
      </trkpt>
      <trkpt lat="45.99659" lon="3.51393">
        <ele>444.39999389648</ele>
        <time>2021-05-23T08:33:31Z</time>
      </trkpt>
      <trkpt lat="45.99657" lon="3.51394">
        <ele>444.39999389648</ele>
        <time>2021-05-23T08:33:32Z</time>
      </trkpt>
      <trkpt lat="45.99654" lon="3.51398">
        <ele>445</ele>
        <time>2021-05-23T08:33:37Z</time>
      </trkpt>
      <trkpt lat="45.99654" lon="3.514">
        <ele>445.60000610352</ele>
        <time>2021-05-23T08:33:39Z</time>
      </trkpt>
      <trkpt lat="45.99654" lon="3.514">
        <ele>446.60000610352</ele>
        <time>2021-05-23T08:33:41Z</time>
      </trkpt>
      <trkpt lat="45.99653" lon="3.514">
        <ele>447.20001220703</ele>
        <time>2021-05-23T08:33:42Z</time>
      </trkpt>
      <trkpt lat="45.99653" lon="3.514">
        <ele>447.60000610352</ele>
        <time>2021-05-23T08:33:43Z</time>
      </trkpt>
      <trkpt lat="45.99651" lon="3.51401">
        <ele>449</ele>
        <time>2021-05-23T08:33:48Z</time>
      </trkpt>
      <trkpt lat="45.99648" lon="3.51403">
        <ele>450</ele>
        <time>2021-05-23T08:33:52Z</time>
      </trkpt>
      <trkpt lat="45.99645" lon="3.51405">
        <ele>451.20001220703</ele>
        <time>2021-05-23T08:33:55Z</time>
      </trkpt>
      <trkpt lat="45.99642" lon="3.51409">
        <ele>452.20001220703</ele>
        <time>2021-05-23T08:34:00Z</time>
      </trkpt>
      <trkpt lat="45.99641" lon="3.51409">
        <ele>452.60000610352</ele>
        <time>2021-05-23T08:34:02Z</time>
      </trkpt>
      <trkpt lat="45.99643" lon="3.5141">
        <ele>453.39999389648</ele>
        <time>2021-05-23T08:34:05Z</time>
      </trkpt>
      <trkpt lat="45.99644" lon="3.51414">
        <ele>454.60000610352</ele>
        <time>2021-05-23T08:34:09Z</time>
      </trkpt>
      <trkpt lat="45.99644" lon="3.51413">
        <ele>455.39999389648</ele>
        <time>2021-05-23T08:34:12Z</time>
      </trkpt>
      <trkpt lat="45.99643" lon="3.51414">
        <ele>455.79998779297</ele>
        <time>2021-05-23T08:34:13Z</time>
      </trkpt>
      <trkpt lat="45.99642" lon="3.51416">
        <ele>456.79998779297</ele>
        <time>2021-05-23T08:34:16Z</time>
      </trkpt>
      <trkpt lat="45.9964" lon="3.51421">
        <ele>457.79998779297</ele>
        <time>2021-05-23T08:34:22Z</time>
      </trkpt>
      <trkpt lat="45.9964" lon="3.51422">
        <ele>458</ele>
        <time>2021-05-23T08:34:23Z</time>
      </trkpt>
      <trkpt lat="45.99639" lon="3.51424">
        <ele>459</ele>
        <time>2021-05-23T08:34:27Z</time>
      </trkpt>
      <trkpt lat="45.99637" lon="3.51426">
        <ele>460.39999389648</ele>
        <time>2021-05-23T08:34:32Z</time>
      </trkpt>
      <trkpt lat="45.99634" lon="3.5143">
        <ele>461.60000610352</ele>
        <time>2021-05-23T08:34:37Z</time>
      </trkpt>
      <trkpt lat="45.99631" lon="3.51434">
        <ele>462.60000610352</ele>
        <time>2021-05-23T08:34:41Z</time>
      </trkpt>
      <trkpt lat="45.99631" lon="3.51435">
        <ele>462.79998779297</ele>
        <time>2021-05-23T08:34:42Z</time>
      </trkpt>
      <trkpt lat="45.99631" lon="3.51439">
        <ele>463.60000610352</ele>
        <time>2021-05-23T08:34:46Z</time>
      </trkpt>
      <trkpt lat="45.99631" lon="3.51442">
        <ele>464.79998779297</ele>
        <time>2021-05-23T08:34:51Z</time>
      </trkpt>
      <trkpt lat="45.99631" lon="3.51442">
        <ele>465.20001220703</ele>
        <time>2021-05-23T08:34:52Z</time>
      </trkpt>
      <trkpt lat="45.9963" lon="3.51443">
        <ele>466</ele>
        <time>2021-05-23T08:34:55Z</time>
      </trkpt>
      <trkpt lat="45.99626" lon="3.51444">
        <ele>467</ele>
        <time>2021-05-23T08:34:59Z</time>
      </trkpt>
      <trkpt lat="45.99623" lon="3.51445">
        <ele>467.39999389648</ele>
        <time>2021-05-23T08:35:02Z</time>
      </trkpt>
      <trkpt lat="45.9962" lon="3.51448">
        <ele>468.20001220703</ele>
        <time>2021-05-23T08:35:06Z</time>
      </trkpt>
      <trkpt lat="45.99616" lon="3.51452">
        <ele>469.39999389648</ele>
        <time>2021-05-23T08:35:11Z</time>
      </trkpt>
      <trkpt lat="45.99615" lon="3.51452">
        <ele>469.79998779297</ele>
        <time>2021-05-23T08:35:12Z</time>
      </trkpt>
      <trkpt lat="45.99614" lon="3.51453">
        <ele>470.39999389648</ele>
        <time>2021-05-23T08:35:14Z</time>
      </trkpt>
      <trkpt lat="45.99612" lon="3.51456">
        <ele>471.60000610352</ele>
        <time>2021-05-23T08:35:18Z</time>
      </trkpt>
      <trkpt lat="45.99611" lon="3.5146">
        <ele>472.39999389648</ele>
        <time>2021-05-23T08:35:22Z</time>
      </trkpt>
      <trkpt lat="45.99611" lon="3.5146">
        <ele>472.79998779297</ele>
        <time>2021-05-23T08:35:23Z</time>
      </trkpt>
      <trkpt lat="45.99607" lon="3.51461">
        <ele>474</ele>
        <time>2021-05-23T08:35:27Z</time>
      </trkpt>
      <trkpt lat="45.99605" lon="3.51462">
        <ele>474.79998779297</ele>
        <time>2021-05-23T08:35:32Z</time>
      </trkpt>
      <trkpt lat="45.99604" lon="3.51463">
        <ele>475.20001220703</ele>
        <time>2021-05-23T08:35:33Z</time>
      </trkpt>
      <trkpt lat="45.99606" lon="3.51465">
        <ele>476.39999389648</ele>
        <time>2021-05-23T08:35:36Z</time>
      </trkpt>
      <trkpt lat="45.99612" lon="3.51469">
        <ele>477.39999389648</ele>
        <time>2021-05-23T08:35:42Z</time>
      </trkpt>
      <trkpt lat="45.99614" lon="3.51473">
        <ele>478.60000610352</ele>
        <time>2021-05-23T08:35:47Z</time>
      </trkpt>
      <trkpt lat="45.99617" lon="3.51478">
        <ele>479.79998779297</ele>
        <time>2021-05-23T08:35:52Z</time>
      </trkpt>
      <trkpt lat="45.99612" lon="3.51483">
        <ele>480.60000610352</ele>
        <time>2021-05-23T08:36:02Z</time>
      </trkpt>
      <trkpt lat="45.99609" lon="3.51484">
        <ele>481</ele>
        <time>2021-05-23T08:36:05Z</time>
      </trkpt>
      <trkpt lat="45.99609" lon="3.51484">
        <ele>482.20001220703</ele>
        <time>2021-05-23T08:36:07Z</time>
      </trkpt>
      <trkpt lat="45.99607" lon="3.51486">
        <ele>483.60000610352</ele>
        <time>2021-05-23T08:36:10Z</time>
      </trkpt>
      <trkpt lat="45.99606" lon="3.51488">
        <ele>484.20001220703</ele>
        <time>2021-05-23T08:36:12Z</time>
      </trkpt>
      <trkpt lat="45.99606" lon="3.5149">
        <ele>484.79998779297</ele>
        <time>2021-05-23T08:36:14Z</time>
      </trkpt>
      <trkpt lat="45.99603" lon="3.51493">
        <ele>485.79998779297</ele>
        <time>2021-05-23T08:36:18Z</time>
      </trkpt>
      <trkpt lat="45.99602" lon="3.51495">
        <ele>487</ele>
        <time>2021-05-23T08:36:21Z</time>
      </trkpt>
      <trkpt lat="45.996" lon="3.51496">
        <ele>487.60000610352</ele>
        <time>2021-05-23T08:36:22Z</time>
      </trkpt>
      <trkpt lat="45.99599" lon="3.51498">
        <ele>488.20001220703</ele>
        <time>2021-05-23T08:36:24Z</time>
      </trkpt>
      <trkpt lat="45.99599" lon="3.51499">
        <ele>489.79998779297</ele>
        <time>2021-05-23T08:36:27Z</time>
      </trkpt>
      <trkpt lat="45.99599" lon="3.51499">
        <ele>490.39999389648</ele>
        <time>2021-05-23T08:36:32Z</time>
      </trkpt>
      <trkpt lat="45.99597" lon="3.51501">
        <ele>490.79998779297</ele>
        <time>2021-05-23T08:36:39Z</time>
      </trkpt>
      <trkpt lat="45.99595" lon="3.51501">
        <ele>490.79998779297</ele>
        <time>2021-05-23T08:36:40Z</time>
      </trkpt>
      <trkpt lat="45.99594" lon="3.51502">
        <ele>491.20001220703</ele>
        <time>2021-05-23T08:36:42Z</time>
      </trkpt>
      <trkpt lat="45.99594" lon="3.51503">
        <ele>491.79998779297</ele>
        <time>2021-05-23T08:36:45Z</time>
      </trkpt>
      <trkpt lat="45.99591" lon="3.51508">
        <ele>493</ele>
        <time>2021-05-23T08:36:51Z</time>
      </trkpt>
      <trkpt lat="45.99591" lon="3.51508">
        <ele>493.20001220703</ele>
        <time>2021-05-23T08:36:52Z</time>
      </trkpt>
      <trkpt lat="45.9959" lon="3.51509">
        <ele>494</ele>
        <time>2021-05-23T08:36:54Z</time>
      </trkpt>
      <trkpt lat="45.99588" lon="3.51513">
        <ele>495</ele>
        <time>2021-05-23T08:36:59Z</time>
      </trkpt>
      <trkpt lat="45.9959" lon="3.51514">
        <ele>496</ele>
        <time>2021-05-23T08:37:02Z</time>
      </trkpt>
      <trkpt lat="45.9959" lon="3.51515">
        <ele>496.20001220703</ele>
        <time>2021-05-23T08:37:03Z</time>
      </trkpt>
      <trkpt lat="45.99591" lon="3.51515">
        <ele>497.60000610352</ele>
        <time>2021-05-23T08:37:07Z</time>
      </trkpt>
      <trkpt lat="45.99593" lon="3.51517">
        <ele>498.60000610352</ele>
        <time>2021-05-23T08:37:10Z</time>
      </trkpt>
      <trkpt lat="45.99594" lon="3.51517">
        <ele>499</ele>
        <time>2021-05-23T08:37:12Z</time>
      </trkpt>
      <trkpt lat="45.996" lon="3.5151">
        <ele>499</ele>
        <time>2021-05-23T08:37:22Z</time>
      </trkpt>
      <trkpt lat="45.99601" lon="3.5151">
        <ele>498.60000610352</ele>
        <time>2021-05-23T08:37:32Z</time>
      </trkpt>
      <trkpt lat="45.99599" lon="3.5151">
        <ele>499</ele>
        <time>2021-05-23T08:37:42Z</time>
      </trkpt>
      <trkpt lat="45.99591" lon="3.51514">
        <ele>499.39999389648</ele>
        <time>2021-05-23T08:37:52Z</time>
      </trkpt>
      <trkpt lat="45.99589" lon="3.5152">
        <ele>499.60000610352</ele>
        <time>2021-05-23T08:37:55Z</time>
      </trkpt>
      <trkpt lat="45.99589" lon="3.51522">
        <ele>500</ele>
        <time>2021-05-23T08:37:57Z</time>
      </trkpt>
      <trkpt lat="45.99587" lon="3.51525">
        <ele>500.79998779297</ele>
        <time>2021-05-23T08:38:02Z</time>
      </trkpt>
      <trkpt lat="45.99592" lon="3.51525">
        <ele>501.39999389648</ele>
        <time>2021-05-23T08:38:07Z</time>
      </trkpt>
      <trkpt lat="45.99596" lon="3.51523">
        <ele>501.79998779297</ele>
        <time>2021-05-23T08:38:10Z</time>
      </trkpt>
      <trkpt lat="45.99597" lon="3.51523">
        <ele>502</ele>
        <time>2021-05-23T08:38:11Z</time>
      </trkpt>
      <trkpt lat="45.99598" lon="3.51522">
        <ele>502.20001220703</ele>
        <time>2021-05-23T08:38:12Z</time>
      </trkpt>
      <trkpt lat="45.99599" lon="3.51522">
        <ele>502.60000610352</ele>
        <time>2021-05-23T08:38:22Z</time>
      </trkpt>
      <trkpt lat="45.99599" lon="3.51524">
        <ele>502.60000610352</ele>
        <time>2021-05-23T08:38:32Z</time>
      </trkpt>
      <trkpt lat="45.99599" lon="3.51524">
        <ele>502.60000610352</ele>
        <time>2021-05-23T08:38:42Z</time>
      </trkpt>
      <trkpt lat="45.99596" lon="3.51526">
        <ele>502.60000610352</ele>
        <time>2021-05-23T08:38:52Z</time>
      </trkpt>
      <trkpt lat="45.99596" lon="3.51526">
        <ele>502.60000610352</ele>
        <time>2021-05-23T08:38:58Z</time>
      </trkpt>
      <trkpt lat="45.99597" lon="3.51526">
        <ele>502.60000610352</ele>
        <time>2021-05-23T08:38:59Z</time>
      </trkpt>
      <trkpt lat="45.99597" lon="3.51526">
        <ele>502.39999389648</ele>
        <time>2021-05-23T08:39:02Z</time>
      </trkpt>
      <trkpt lat="45.99596" lon="3.51526">
        <ele>502.60000610352</ele>
        <time>2021-05-23T08:39:12Z</time>
      </trkpt>
      <trkpt lat="45.99588" lon="3.51528">
        <ele>502.60000610352</ele>
        <time>2021-05-23T08:39:22Z</time>
      </trkpt>
      <trkpt lat="45.99589" lon="3.51528">
        <ele>502.39999389648</ele>
        <time>2021-05-23T08:39:32Z</time>
      </trkpt>
      <trkpt lat="45.9959" lon="3.51527">
        <ele>502.39999389648</ele>
        <time>2021-05-23T08:39:37Z</time>
      </trkpt>
      <trkpt lat="45.99591" lon="3.51527">
        <ele>502.39999389648</ele>
        <time>2021-05-23T08:39:42Z</time>
      </trkpt>
      <trkpt lat="45.99596" lon="3.51523">
        <ele>502.60000610352</ele>
        <time>2021-05-23T08:39:52Z</time>
      </trkpt>
      <trkpt lat="45.99597" lon="3.51522">
        <ele>503.20001220703</ele>
        <time>2021-05-23T08:39:55Z</time>
      </trkpt>
      <trkpt lat="45.99597" lon="3.51521">
        <ele>503.39999389648</ele>
        <time>2021-05-23T08:39:58Z</time>
      </trkpt>
      <trkpt lat="45.99597" lon="3.51519">
        <ele>503.39999389648</ele>
        <time>2021-05-23T08:39:59Z</time>
      </trkpt>
      <trkpt lat="45.99597" lon="3.51519">
        <ele>503.39999389648</ele>
        <time>2021-05-23T08:40:00Z</time>
      </trkpt>
      <trkpt lat="45.99597" lon="3.51518">
        <ele>503.60000610352</ele>
        <time>2021-05-23T08:40:02Z</time>
      </trkpt>
      <trkpt lat="45.99598" lon="3.51519">
        <ele>503.60000610352</ele>
        <time>2021-05-23T08:40:05Z</time>
      </trkpt>
      <trkpt lat="45.99598" lon="3.51519">
        <ele>503.60000610352</ele>
        <time>2021-05-23T08:40:06Z</time>
      </trkpt>
      <trkpt lat="45.99597" lon="3.51525">
        <ele>503.39999389648</ele>
        <time>2021-05-23T08:40:11Z</time>
      </trkpt>
      <trkpt lat="45.99597" lon="3.51526">
        <ele>503.20001220703</ele>
        <time>2021-05-23T08:40:12Z</time>
      </trkpt>
      <trkpt lat="45.99596" lon="3.51527">
        <ele>502.60000610352</ele>
        <time>2021-05-23T08:40:16Z</time>
      </trkpt>
      <trkpt lat="45.99595" lon="3.51526">
        <ele>502.20001220703</ele>
        <time>2021-05-23T08:40:18Z</time>
      </trkpt>
      <trkpt lat="45.99595" lon="3.51525">
        <ele>502</ele>
        <time>2021-05-23T08:40:19Z</time>
      </trkpt>
      <trkpt lat="45.99593" lon="3.51523">
        <ele>501.20001220703</ele>
        <time>2021-05-23T08:40:22Z</time>
      </trkpt>
      <trkpt lat="45.99593" lon="3.51522">
        <ele>500.79998779297</ele>
        <time>2021-05-23T08:40:23Z</time>
      </trkpt>
      <trkpt lat="45.99593" lon="3.51522">
        <ele>500.60000610352</ele>
        <time>2021-05-23T08:40:24Z</time>
      </trkpt>
      <trkpt lat="45.99593" lon="3.51521">
        <ele>500</ele>
        <time>2021-05-23T08:40:27Z</time>
      </trkpt>
      <trkpt lat="45.99593" lon="3.51521">
        <ele>499.79998779297</ele>
        <time>2021-05-23T08:40:28Z</time>
      </trkpt>
      <trkpt lat="45.99593" lon="3.5152">
        <ele>499.60000610352</ele>
        <time>2021-05-23T08:40:29Z</time>
      </trkpt>
      <trkpt lat="45.99593" lon="3.51519">
        <ele>499.39999389648</ele>
        <time>2021-05-23T08:40:30Z</time>
      </trkpt>
      <trkpt lat="45.99593" lon="3.51519">
        <ele>499.20001220703</ele>
        <time>2021-05-23T08:40:31Z</time>
      </trkpt>
      <trkpt lat="45.99593" lon="3.51519">
        <ele>499</ele>
        <time>2021-05-23T08:40:32Z</time>
      </trkpt>
      <trkpt lat="45.99593" lon="3.51519">
        <ele>498.79998779297</ele>
        <time>2021-05-23T08:40:33Z</time>
      </trkpt>
      <trkpt lat="45.99593" lon="3.51518">
        <ele>498.60000610352</ele>
        <time>2021-05-23T08:40:34Z</time>
      </trkpt>
      <trkpt lat="45.99593" lon="3.51517">
        <ele>498.39999389648</ele>
        <time>2021-05-23T08:40:35Z</time>
      </trkpt>
      <trkpt lat="45.99593" lon="3.51516">
        <ele>498</ele>
        <time>2021-05-23T08:40:36Z</time>
      </trkpt>
      <trkpt lat="45.99593" lon="3.51515">
        <ele>497.60000610352</ele>
        <time>2021-05-23T08:40:37Z</time>
      </trkpt>
      <trkpt lat="45.99593" lon="3.51514">
        <ele>497.39999389648</ele>
        <time>2021-05-23T08:40:38Z</time>
      </trkpt>
      <trkpt lat="45.99592" lon="3.51512">
        <ele>497.20001220703</ele>
        <time>2021-05-23T08:40:39Z</time>
      </trkpt>
      <trkpt lat="45.99592" lon="3.51512">
        <ele>497</ele>
        <time>2021-05-23T08:40:40Z</time>
      </trkpt>
      <trkpt lat="45.99591" lon="3.5151">
        <ele>496.79998779297</ele>
        <time>2021-05-23T08:40:42Z</time>
      </trkpt>
      <trkpt lat="45.99592" lon="3.51509">
        <ele>496.60000610352</ele>
        <time>2021-05-23T08:40:43Z</time>
      </trkpt>
      <trkpt lat="45.99592" lon="3.51508">
        <ele>496.20001220703</ele>
        <time>2021-05-23T08:40:44Z</time>
      </trkpt>
      <trkpt lat="45.99594" lon="3.51505">
        <ele>495.20001220703</ele>
        <time>2021-05-23T08:40:47Z</time>
      </trkpt>
      <trkpt lat="45.99596" lon="3.51503">
        <ele>494.39999389648</ele>
        <time>2021-05-23T08:40:50Z</time>
      </trkpt>
      <trkpt lat="45.99596" lon="3.51502">
        <ele>494.20001220703</ele>
        <time>2021-05-23T08:40:51Z</time>
      </trkpt>
      <trkpt lat="45.99596" lon="3.51502">
        <ele>493.79998779297</ele>
        <time>2021-05-23T08:40:52Z</time>
      </trkpt>
      <trkpt lat="45.99596" lon="3.51499">
        <ele>493.60000610352</ele>
        <time>2021-05-23T08:40:53Z</time>
      </trkpt>
      <trkpt lat="45.99596" lon="3.51498">
        <ele>493.39999389648</ele>
        <time>2021-05-23T08:40:54Z</time>
      </trkpt>
      <trkpt lat="45.99597" lon="3.51497">
        <ele>493</ele>
        <time>2021-05-23T08:40:55Z</time>
      </trkpt>
      <trkpt lat="45.99597" lon="3.51497">
        <ele>492.39999389648</ele>
        <time>2021-05-23T08:40:57Z</time>
      </trkpt>
      <trkpt lat="45.99597" lon="3.51497">
        <ele>491.79998779297</ele>
        <time>2021-05-23T08:40:59Z</time>
      </trkpt>
      <trkpt lat="45.99599" lon="3.51497">
        <ele>491</ele>
        <time>2021-05-23T08:41:02Z</time>
      </trkpt>
      <trkpt lat="45.996" lon="3.51495">
        <ele>490.79998779297</ele>
        <time>2021-05-23T08:41:03Z</time>
      </trkpt>
      <trkpt lat="45.99604" lon="3.51492">
        <ele>489.60000610352</ele>
        <time>2021-05-23T08:41:07Z</time>
      </trkpt>
      <trkpt lat="45.99606" lon="3.51491">
        <ele>488.79998779297</ele>
        <time>2021-05-23T08:41:09Z</time>
      </trkpt>
      <trkpt lat="45.99607" lon="3.51491">
        <ele>488.39999389648</ele>
        <time>2021-05-23T08:41:10Z</time>
      </trkpt>
      <trkpt lat="45.99608" lon="3.51491">
        <ele>487.79998779297</ele>
        <time>2021-05-23T08:41:12Z</time>
      </trkpt>
      <trkpt lat="45.99609" lon="3.5149">
        <ele>487.39999389648</ele>
        <time>2021-05-23T08:41:13Z</time>
      </trkpt>
      <trkpt lat="45.9961" lon="3.51488">
        <ele>486.60000610352</ele>
        <time>2021-05-23T08:41:16Z</time>
      </trkpt>
      <trkpt lat="45.9961" lon="3.51488">
        <ele>486.20001220703</ele>
        <time>2021-05-23T08:41:17Z</time>
      </trkpt>
      <trkpt lat="45.99611" lon="3.51484">
        <ele>485</ele>
        <time>2021-05-23T08:41:20Z</time>
      </trkpt>
      <trkpt lat="45.99611" lon="3.51484">
        <ele>484.79998779297</ele>
        <time>2021-05-23T08:41:21Z</time>
      </trkpt>
      <trkpt lat="45.99611" lon="3.51483">
        <ele>484.60000610352</ele>
        <time>2021-05-23T08:41:22Z</time>
      </trkpt>
      <trkpt lat="45.99612" lon="3.51482">
        <ele>484</ele>
        <time>2021-05-23T08:41:24Z</time>
      </trkpt>
      <trkpt lat="45.99614" lon="3.51482">
        <ele>482.79998779297</ele>
        <time>2021-05-23T08:41:27Z</time>
      </trkpt>
      <trkpt lat="45.99615" lon="3.51482">
        <ele>482.60000610352</ele>
        <time>2021-05-23T08:41:28Z</time>
      </trkpt>
      <trkpt lat="45.99617" lon="3.5148">
        <ele>481.79998779297</ele>
        <time>2021-05-23T08:41:31Z</time>
      </trkpt>
      <trkpt lat="45.99618" lon="3.51479">
        <ele>481.39999389648</ele>
        <time>2021-05-23T08:41:32Z</time>
      </trkpt>
      <trkpt lat="45.99616" lon="3.51477">
        <ele>480.39999389648</ele>
        <time>2021-05-23T08:41:35Z</time>
      </trkpt>
      <trkpt lat="45.99613" lon="3.51471">
        <ele>479.20001220703</ele>
        <time>2021-05-23T08:41:40Z</time>
      </trkpt>
      <trkpt lat="45.99611" lon="3.51471">
        <ele>478.39999389648</ele>
        <time>2021-05-23T08:41:42Z</time>
      </trkpt>
      <trkpt lat="45.9961" lon="3.5147">
        <ele>477.79998779297</ele>
        <time>2021-05-23T08:41:43Z</time>
      </trkpt>
      <trkpt lat="45.99607" lon="3.5147">
        <ele>477</ele>
        <time>2021-05-23T08:41:45Z</time>
      </trkpt>
      <trkpt lat="45.99606" lon="3.51469">
        <ele>476.79998779297</ele>
        <time>2021-05-23T08:41:47Z</time>
      </trkpt>
      <trkpt lat="45.99609" lon="3.51465">
        <ele>475.79998779297</ele>
        <time>2021-05-23T08:41:50Z</time>
      </trkpt>
      <trkpt lat="45.9961" lon="3.51464">
        <ele>475.60000610352</ele>
        <time>2021-05-23T08:41:51Z</time>
      </trkpt>
      <trkpt lat="45.99611" lon="3.51463">
        <ele>475.20001220703</ele>
        <time>2021-05-23T08:41:52Z</time>
      </trkpt>
      <trkpt lat="45.99612" lon="3.51461">
        <ele>474.39999389648</ele>
        <time>2021-05-23T08:41:55Z</time>
      </trkpt>
      <trkpt lat="45.99615" lon="3.51458">
        <ele>473.39999389648</ele>
        <time>2021-05-23T08:41:59Z</time>
      </trkpt>
      <trkpt lat="45.99615" lon="3.51455">
        <ele>472.79998779297</ele>
        <time>2021-05-23T08:42:01Z</time>
      </trkpt>
      <trkpt lat="45.99616" lon="3.51455">
        <ele>472.60000610352</ele>
        <time>2021-05-23T08:42:02Z</time>
      </trkpt>
      <trkpt lat="45.99616" lon="3.51453">
        <ele>472.20001220703</ele>
        <time>2021-05-23T08:42:03Z</time>
      </trkpt>
      <trkpt lat="45.99617" lon="3.51452">
        <ele>472</ele>
        <time>2021-05-23T08:42:05Z</time>
      </trkpt>
      <trkpt lat="45.99618" lon="3.51452">
        <ele>471.60000610352</ele>
        <time>2021-05-23T08:42:06Z</time>
      </trkpt>
      <trkpt lat="45.99619" lon="3.51451">
        <ele>471.39999389648</ele>
        <time>2021-05-23T08:42:07Z</time>
      </trkpt>
      <trkpt lat="45.9962" lon="3.5145">
        <ele>471</ele>
        <time>2021-05-23T08:42:08Z</time>
      </trkpt>
      <trkpt lat="45.9962" lon="3.51449">
        <ele>470.60000610352</ele>
        <time>2021-05-23T08:42:09Z</time>
      </trkpt>
      <trkpt lat="45.99621" lon="3.51447">
        <ele>470.20001220703</ele>
        <time>2021-05-23T08:42:10Z</time>
      </trkpt>
      <trkpt lat="45.99622" lon="3.51446">
        <ele>469.79998779297</ele>
        <time>2021-05-23T08:42:11Z</time>
      </trkpt>
      <trkpt lat="45.99622" lon="3.51444">
        <ele>469.20001220703</ele>
        <time>2021-05-23T08:42:12Z</time>
      </trkpt>
      <trkpt lat="45.99623" lon="3.51444">
        <ele>468.60000610352</ele>
        <time>2021-05-23T08:42:13Z</time>
      </trkpt>
      <trkpt lat="45.99624" lon="3.51443">
        <ele>468.20001220703</ele>
        <time>2021-05-23T08:42:14Z</time>
      </trkpt>
      <trkpt lat="45.99625" lon="3.51441">
        <ele>468</ele>
        <time>2021-05-23T08:42:15Z</time>
      </trkpt>
      <trkpt lat="45.99627" lon="3.51441">
        <ele>467.39999389648</ele>
        <time>2021-05-23T08:42:17Z</time>
      </trkpt>
      <trkpt lat="45.99628" lon="3.51441">
        <ele>467.20001220703</ele>
        <time>2021-05-23T08:42:18Z</time>
      </trkpt>
      <trkpt lat="45.9963" lon="3.5144">
        <ele>466.60000610352</ele>
        <time>2021-05-23T08:42:20Z</time>
      </trkpt>
      <trkpt lat="45.9963" lon="3.5144">
        <ele>466.39999389648</ele>
        <time>2021-05-23T08:42:21Z</time>
      </trkpt>
      <trkpt lat="45.9963" lon="3.5144">
        <ele>466</ele>
        <time>2021-05-23T08:42:22Z</time>
      </trkpt>
      <trkpt lat="45.9963" lon="3.5144">
        <ele>465.79998779297</ele>
        <time>2021-05-23T08:42:23Z</time>
      </trkpt>
      <trkpt lat="45.9963" lon="3.51439">
        <ele>465.39999389648</ele>
        <time>2021-05-23T08:42:24Z</time>
      </trkpt>
      <trkpt lat="45.9963" lon="3.51439">
        <ele>465.20001220703</ele>
        <time>2021-05-23T08:42:25Z</time>
      </trkpt>
      <trkpt lat="45.99627" lon="3.51438">
        <ele>464.79998779297</ele>
        <time>2021-05-23T08:42:28Z</time>
      </trkpt>
      <trkpt lat="45.99626" lon="3.51438">
        <ele>464.39999389648</ele>
        <time>2021-05-23T08:42:29Z</time>
      </trkpt>
      <trkpt lat="45.99627" lon="3.51437">
        <ele>464.20001220703</ele>
        <time>2021-05-23T08:42:30Z</time>
      </trkpt>
      <trkpt lat="45.99627" lon="3.51436">
        <ele>464</ele>
        <time>2021-05-23T08:42:31Z</time>
      </trkpt>
      <trkpt lat="45.99628" lon="3.51435">
        <ele>463.60000610352</ele>
        <time>2021-05-23T08:42:32Z</time>
      </trkpt>
      <trkpt lat="45.9963" lon="3.51432">
        <ele>462.60000610352</ele>
        <time>2021-05-23T08:42:34Z</time>
      </trkpt>
      <trkpt lat="45.99631" lon="3.51431">
        <ele>462.39999389648</ele>
        <time>2021-05-23T08:42:35Z</time>
      </trkpt>
      <trkpt lat="45.99632" lon="3.51428">
        <ele>461.79998779297</ele>
        <time>2021-05-23T08:42:38Z</time>
      </trkpt>
      <trkpt lat="45.99633" lon="3.51428">
        <ele>461.60000610352</ele>
        <time>2021-05-23T08:42:39Z</time>
      </trkpt>
      <trkpt lat="45.99635" lon="3.51426">
        <ele>460.60000610352</ele>
        <time>2021-05-23T08:42:42Z</time>
      </trkpt>
      <trkpt lat="45.99636" lon="3.51425">
        <ele>460.39999389648</ele>
        <time>2021-05-23T08:42:43Z</time>
      </trkpt>
      <trkpt lat="45.99636" lon="3.51423">
        <ele>459.60000610352</ele>
        <time>2021-05-23T08:42:45Z</time>
      </trkpt>
      <trkpt lat="45.99636" lon="3.51422">
        <ele>459.20001220703</ele>
        <time>2021-05-23T08:42:46Z</time>
      </trkpt>
      <trkpt lat="45.9964" lon="3.51417">
        <ele>458.20001220703</ele>
        <time>2021-05-23T08:42:50Z</time>
      </trkpt>
      <trkpt lat="45.99642" lon="3.51414">
        <ele>457.39999389648</ele>
        <time>2021-05-23T08:42:52Z</time>
      </trkpt>
      <trkpt lat="45.99643" lon="3.51412">
        <ele>457</ele>
        <time>2021-05-23T08:42:53Z</time>
      </trkpt>
      <trkpt lat="45.99645" lon="3.51409">
        <ele>455.79998779297</ele>
        <time>2021-05-23T08:42:57Z</time>
      </trkpt>
      <trkpt lat="45.99645" lon="3.51408">
        <ele>455.39999389648</ele>
        <time>2021-05-23T08:42:58Z</time>
      </trkpt>
      <trkpt lat="45.99646" lon="3.51406">
        <ele>455</ele>
        <time>2021-05-23T08:43:00Z</time>
      </trkpt>
      <trkpt lat="45.99647" lon="3.51404">
        <ele>454.60000610352</ele>
        <time>2021-05-23T08:43:01Z</time>
      </trkpt>
      <trkpt lat="45.99647" lon="3.51403">
        <ele>454.20001220703</ele>
        <time>2021-05-23T08:43:02Z</time>
      </trkpt>
      <trkpt lat="45.99647" lon="3.51402">
        <ele>453.20001220703</ele>
        <time>2021-05-23T08:43:04Z</time>
      </trkpt>
      <trkpt lat="45.99647" lon="3.51402">
        <ele>452.79998779297</ele>
        <time>2021-05-23T08:43:05Z</time>
      </trkpt>
      <trkpt lat="45.99648" lon="3.51401">
        <ele>452.20001220703</ele>
        <time>2021-05-23T08:43:07Z</time>
      </trkpt>
      <trkpt lat="45.99651" lon="3.51397">
        <ele>451.20001220703</ele>
        <time>2021-05-23T08:43:12Z</time>
      </trkpt>
      <trkpt lat="45.99652" lon="3.51396">
        <ele>450.79998779297</ele>
        <time>2021-05-23T08:43:13Z</time>
      </trkpt>
      <trkpt lat="45.99652" lon="3.51395">
        <ele>449.79998779297</ele>
        <time>2021-05-23T08:43:15Z</time>
      </trkpt>
      <trkpt lat="45.99652" lon="3.51394">
        <ele>448.79998779297</ele>
        <time>2021-05-23T08:43:17Z</time>
      </trkpt>
      <trkpt lat="45.99653" lon="3.51393">
        <ele>448.39999389648</ele>
        <time>2021-05-23T08:43:18Z</time>
      </trkpt>
      <trkpt lat="45.99653" lon="3.51393">
        <ele>448</ele>
        <time>2021-05-23T08:43:19Z</time>
      </trkpt>
      <trkpt lat="45.99653" lon="3.51393">
        <ele>447.79998779297</ele>
        <time>2021-05-23T08:43:20Z</time>
      </trkpt>
      <trkpt lat="45.99653" lon="3.51392">
        <ele>447.39999389648</ele>
        <time>2021-05-23T08:43:21Z</time>
      </trkpt>
      <trkpt lat="45.99652" lon="3.51393">
        <ele>447</ele>
        <time>2021-05-23T08:43:22Z</time>
      </trkpt>
      <trkpt lat="45.99658" lon="3.51392">
        <ele>446</ele>
        <time>2021-05-23T08:43:25Z</time>
      </trkpt>
      <trkpt lat="45.9966" lon="3.51391">
        <ele>445.79998779297</ele>
        <time>2021-05-23T08:43:26Z</time>
      </trkpt>
      <trkpt lat="45.99661" lon="3.5139">
        <ele>445.39999389648</ele>
        <time>2021-05-23T08:43:27Z</time>
      </trkpt>
      <trkpt lat="45.99662" lon="3.5139">
        <ele>445.20001220703</ele>
        <time>2021-05-23T08:43:28Z</time>
      </trkpt>
      <trkpt lat="45.99662" lon="3.51389">
        <ele>445</ele>
        <time>2021-05-23T08:43:29Z</time>
      </trkpt>
      <trkpt lat="45.99664" lon="3.51388">
        <ele>444.20001220703</ele>
        <time>2021-05-23T08:43:32Z</time>
      </trkpt>
      <trkpt lat="45.99665" lon="3.51388">
        <ele>443.79998779297</ele>
        <time>2021-05-23T08:43:33Z</time>
      </trkpt>
      <trkpt lat="45.99666" lon="3.51386">
        <ele>442.60000610352</ele>
        <time>2021-05-23T08:43:37Z</time>
      </trkpt>
      <trkpt lat="45.99671" lon="3.51382">
        <ele>441.60000610352</ele>
        <time>2021-05-23T08:43:42Z</time>
      </trkpt>
      <trkpt lat="45.99672" lon="3.51381">
        <ele>440.39999389648</ele>
        <time>2021-05-23T08:43:46Z</time>
      </trkpt>
      <trkpt lat="45.99672" lon="3.51381">
        <ele>439.60000610352</ele>
        <time>2021-05-23T08:43:52Z</time>
      </trkpt>
      <trkpt lat="45.99673" lon="3.5138">
        <ele>439.39999389648</ele>
        <time>2021-05-23T08:43:54Z</time>
      </trkpt>
      <trkpt lat="45.99673" lon="3.51381">
        <ele>439</ele>
        <time>2021-05-23T08:43:57Z</time>
      </trkpt>
      <trkpt lat="45.99674" lon="3.51383">
        <ele>438.79998779297</ele>
        <time>2021-05-23T08:44:02Z</time>
      </trkpt>
      <trkpt lat="45.99672" lon="3.5138">
        <ele>438.79998779297</ele>
        <time>2021-05-23T08:44:08Z</time>
      </trkpt>
      <trkpt lat="45.99672" lon="3.51378">
        <ele>438.60000610352</ele>
        <time>2021-05-23T08:44:12Z</time>
      </trkpt>
      <trkpt lat="45.99685" lon="3.51386">
        <ele>438.39999389648</ele>
        <time>2021-05-23T08:44:15Z</time>
      </trkpt>
      <trkpt lat="45.99692" lon="3.51387">
        <ele>438.39999389648</ele>
        <time>2021-05-23T08:44:18Z</time>
      </trkpt>
      <trkpt lat="45.99693" lon="3.51387">
        <ele>438.39999389648</ele>
        <time>2021-05-23T08:44:19Z</time>
      </trkpt>
      <trkpt lat="45.99694" lon="3.51387">
        <ele>438.39999389648</ele>
        <time>2021-05-23T08:44:21Z</time>
      </trkpt>
      <trkpt lat="45.99693" lon="3.51388">
        <ele>438.39999389648</ele>
        <time>2021-05-23T08:44:22Z</time>
      </trkpt>
      <trkpt lat="45.99689" lon="3.51391">
        <ele>438.60000610352</ele>
        <time>2021-05-23T08:44:27Z</time>
      </trkpt>
      <trkpt lat="45.99689" lon="3.51392">
        <ele>438</ele>
        <time>2021-05-23T08:44:32Z</time>
      </trkpt>
      <trkpt lat="45.99684" lon="3.51392">
        <ele>437.39999389648</ele>
        <time>2021-05-23T08:44:38Z</time>
      </trkpt>
      <trkpt lat="45.99684" lon="3.51392">
        <ele>436.60000610352</ele>
        <time>2021-05-23T08:44:42Z</time>
      </trkpt>
      <trkpt lat="45.99685" lon="3.51392">
        <ele>436.20001220703</ele>
        <time>2021-05-23T08:44:44Z</time>
      </trkpt>
      <trkpt lat="45.99683" lon="3.51393">
        <ele>435.60000610352</ele>
        <time>2021-05-23T08:44:52Z</time>
      </trkpt>
      <trkpt lat="45.99682" lon="3.51393">
        <ele>435.60000610352</ele>
        <time>2021-05-23T08:44:58Z</time>
      </trkpt>
      <trkpt lat="45.99682" lon="3.51393">
        <ele>435.60000610352</ele>
        <time>2021-05-23T08:45:00Z</time>
      </trkpt>
      <trkpt lat="45.99682" lon="3.51393">
        <ele>435.39999389648</ele>
        <time>2021-05-23T08:45:01Z</time>
      </trkpt>
      <trkpt lat="45.99682" lon="3.51393">
        <ele>435.39999389648</ele>
        <time>2021-05-23T08:45:02Z</time>
      </trkpt>
      <trkpt lat="45.99679" lon="3.51396">
        <ele>435.20001220703</ele>
        <time>2021-05-23T08:45:06Z</time>
      </trkpt>
      <trkpt lat="45.99681" lon="3.51399">
        <ele>434.20001220703</ele>
        <time>2021-05-23T08:45:12Z</time>
      </trkpt>
      <trkpt lat="45.99681" lon="3.51402">
        <ele>433</ele>
        <time>2021-05-23T08:45:20Z</time>
      </trkpt>
      <trkpt lat="45.99681" lon="3.51401">
        <ele>432.60000610352</ele>
        <time>2021-05-23T08:45:22Z</time>
      </trkpt>
      <trkpt lat="45.99685" lon="3.51405">
        <ele>432</ele>
        <time>2021-05-23T08:45:29Z</time>
      </trkpt>
      <trkpt lat="45.99687" lon="3.51406">
        <ele>431.60000610352</ele>
        <time>2021-05-23T08:45:32Z</time>
      </trkpt>
      <trkpt lat="45.99687" lon="3.51406">
        <ele>431.60000610352</ele>
        <time>2021-05-23T08:45:33Z</time>
      </trkpt>
      <trkpt lat="45.99687" lon="3.51406">
        <ele>431.60000610352</ele>
        <time>2021-05-23T08:45:34Z</time>
      </trkpt>
      <trkpt lat="45.99687" lon="3.51405">
        <ele>431.39999389648</ele>
        <time>2021-05-23T08:45:39Z</time>
      </trkpt>
      <trkpt lat="45.99685" lon="3.51402">
        <ele>431.39999389648</ele>
        <time>2021-05-23T08:45:42Z</time>
      </trkpt>
      <trkpt lat="45.99687" lon="3.51403">
        <ele>431.39999389648</ele>
        <time>2021-05-23T08:45:46Z</time>
      </trkpt>
      <trkpt lat="45.99686" lon="3.51407">
        <ele>431.20001220703</ele>
        <time>2021-05-23T08:45:52Z</time>
      </trkpt>
      <trkpt lat="45.99686" lon="3.51412">
        <ele>430.79998779297</ele>
        <time>2021-05-23T08:45:58Z</time>
      </trkpt>
      <trkpt lat="45.99687" lon="3.51412">
        <ele>429.79998779297</ele>
        <time>2021-05-23T08:46:02Z</time>
      </trkpt>
      <trkpt lat="45.99687" lon="3.51412">
        <ele>429.60000610352</ele>
        <time>2021-05-23T08:46:03Z</time>
      </trkpt>
      <trkpt lat="45.99681" lon="3.51414">
        <ele>428.60000610352</ele>
        <time>2021-05-23T08:46:12Z</time>
      </trkpt>
      <trkpt lat="45.9968" lon="3.51414">
        <ele>428.60000610352</ele>
        <time>2021-05-23T08:46:13Z</time>
      </trkpt>
      <trkpt lat="45.9968" lon="3.51413">
        <ele>427.39999389648</ele>
        <time>2021-05-23T08:46:21Z</time>
      </trkpt>
      <trkpt lat="45.9968" lon="3.51413">
        <ele>427.20001220703</ele>
        <time>2021-05-23T08:46:22Z</time>
      </trkpt>
      <trkpt lat="45.99681" lon="3.51412">
        <ele>426.20001220703</ele>
        <time>2021-05-23T08:46:29Z</time>
      </trkpt>
      <trkpt lat="45.99681" lon="3.51415">
        <ele>426.20001220703</ele>
        <time>2021-05-23T08:46:32Z</time>
      </trkpt>
      <trkpt lat="45.99679" lon="3.51414">
        <ele>426</ele>
        <time>2021-05-23T08:46:42Z</time>
      </trkpt>
      <trkpt lat="45.99679" lon="3.51413">
        <ele>425.39999389648</ele>
        <time>2021-05-23T08:46:52Z</time>
      </trkpt>
      <trkpt lat="45.99688" lon="3.51414">
        <ele>425.20001220703</ele>
        <time>2021-05-23T08:46:56Z</time>
      </trkpt>
      <trkpt lat="45.99689" lon="3.5141">
        <ele>425</ele>
        <time>2021-05-23T08:47:02Z</time>
      </trkpt>
      <trkpt lat="45.99691" lon="3.51404">
        <ele>424.79998779297</ele>
        <time>2021-05-23T08:47:07Z</time>
      </trkpt>
      <trkpt lat="45.9969" lon="3.51401">
        <ele>424.60000610352</ele>
        <time>2021-05-23T08:47:09Z</time>
      </trkpt>
      <trkpt lat="45.9969" lon="3.514">
        <ele>424.39999389648</ele>
        <time>2021-05-23T08:47:10Z</time>
      </trkpt>
      <trkpt lat="45.99689" lon="3.51399">
        <ele>424.20001220703</ele>
        <time>2021-05-23T08:47:12Z</time>
      </trkpt>
      <trkpt lat="45.99691" lon="3.51395">
        <ele>423.79998779297</ele>
        <time>2021-05-23T08:47:17Z</time>
      </trkpt>
      <trkpt lat="45.99693" lon="3.51395">
        <ele>423.79998779297</ele>
        <time>2021-05-23T08:47:19Z</time>
      </trkpt>
      <trkpt lat="45.99697" lon="3.51392">
        <ele>423.20001220703</ele>
        <time>2021-05-23T08:47:22Z</time>
      </trkpt>
      <trkpt lat="45.99698" lon="3.51392">
        <ele>423</ele>
        <time>2021-05-23T08:47:23Z</time>
      </trkpt>
      <trkpt lat="45.997" lon="3.51387">
        <ele>421.79998779297</ele>
        <time>2021-05-23T08:47:30Z</time>
      </trkpt>
      <trkpt lat="45.99701" lon="3.51386">
        <ele>421.20001220703</ele>
        <time>2021-05-23T08:47:32Z</time>
      </trkpt>
      <trkpt lat="45.99702" lon="3.51384">
        <ele>420.79998779297</ele>
        <time>2021-05-23T08:47:35Z</time>
      </trkpt>
      <trkpt lat="45.99703" lon="3.5138">
        <ele>419.79998779297</ele>
        <time>2021-05-23T08:47:42Z</time>
      </trkpt>
      <trkpt lat="45.99703" lon="3.51379">
        <ele>419.60000610352</ele>
        <time>2021-05-23T08:47:43Z</time>
      </trkpt>
      <trkpt lat="45.99704" lon="3.51376">
        <ele>418.60000610352</ele>
        <time>2021-05-23T08:47:50Z</time>
      </trkpt>
      <trkpt lat="45.99705" lon="3.51375">
        <ele>418</ele>
        <time>2021-05-23T08:47:52Z</time>
      </trkpt>
      <trkpt lat="45.99705" lon="3.51371">
        <ele>417.39999389648</ele>
        <time>2021-05-23T08:47:55Z</time>
      </trkpt>
      <trkpt lat="45.99707" lon="3.51364">
        <ele>417</ele>
        <time>2021-05-23T08:48:02Z</time>
      </trkpt>
      <trkpt lat="45.99706" lon="3.51361">
        <ele>416.79998779297</ele>
        <time>2021-05-23T08:48:12Z</time>
      </trkpt>
      <trkpt lat="45.99705" lon="3.51355">
        <ele>416.39999389648</ele>
        <time>2021-05-23T08:48:21Z</time>
      </trkpt>
      <trkpt lat="45.99705" lon="3.51355">
        <ele>416.20001220703</ele>
        <time>2021-05-23T08:48:22Z</time>
      </trkpt>
      <trkpt lat="45.99705" lon="3.51347">
        <ele>416</ele>
        <time>2021-05-23T08:48:32Z</time>
      </trkpt>
      <trkpt lat="45.99705" lon="3.51345">
        <ele>415.79998779297</ele>
        <time>2021-05-23T08:48:42Z</time>
      </trkpt>
      <trkpt lat="45.99702" lon="3.51342">
        <ele>415.39999389648</ele>
        <time>2021-05-23T08:48:49Z</time>
      </trkpt>
      <trkpt lat="45.99703" lon="3.51341">
        <ele>415.39999389648</ele>
        <time>2021-05-23T08:48:51Z</time>
      </trkpt>
      <trkpt lat="45.99703" lon="3.51341">
        <ele>415.20001220703</ele>
        <time>2021-05-23T08:48:52Z</time>
      </trkpt>
      <trkpt lat="45.99705" lon="3.51349">
        <ele>414.20001220703</ele>
        <time>2021-05-23T08:49:00Z</time>
      </trkpt>
      <trkpt lat="45.99706" lon="3.5135">
        <ele>414</ele>
        <time>2021-05-23T08:49:02Z</time>
      </trkpt>
      <trkpt lat="45.99706" lon="3.51354">
        <ele>414</ele>
        <time>2021-05-23T08:49:05Z</time>
      </trkpt>
      <trkpt lat="45.99702" lon="3.51359">
        <ele>413.79998779297</ele>
        <time>2021-05-23T08:49:12Z</time>
      </trkpt>
      <trkpt lat="45.99692" lon="3.51364">
        <ele>413.79998779297</ele>
        <time>2021-05-23T08:49:22Z</time>
      </trkpt>
      <trkpt lat="45.99703" lon="3.51365">
        <ele>415.20001220703</ele>
        <time>2021-05-23T08:49:31Z</time>
      </trkpt>
      <trkpt lat="45.99704" lon="3.51366">
        <ele>415.39999389648</ele>
        <time>2021-05-23T08:49:32Z</time>
      </trkpt>
      <trkpt lat="45.99705" lon="3.51367">
        <ele>415.39999389648</ele>
        <time>2021-05-23T08:49:33Z</time>
      </trkpt>
      <trkpt lat="45.99707" lon="3.51367">
        <ele>415.60000610352</ele>
        <time>2021-05-23T08:49:35Z</time>
      </trkpt>
      <trkpt lat="45.9971" lon="3.51363">
        <ele>416.39999389648</ele>
        <time>2021-05-23T08:49:39Z</time>
      </trkpt>
      <trkpt lat="45.99712" lon="3.51361">
        <ele>416.79998779297</ele>
        <time>2021-05-23T08:49:42Z</time>
      </trkpt>
      <trkpt lat="45.99713" lon="3.51357">
        <ele>417.20001220703</ele>
        <time>2021-05-23T08:49:44Z</time>
      </trkpt>
      <trkpt lat="45.99714" lon="3.51356">
        <ele>417.60000610352</ele>
        <time>2021-05-23T08:49:45Z</time>
      </trkpt>
      <trkpt lat="45.99715" lon="3.51354">
        <ele>418.39999389648</ele>
        <time>2021-05-23T08:49:47Z</time>
      </trkpt>
      <trkpt lat="45.99715" lon="3.51354">
        <ele>418.60000610352</ele>
        <time>2021-05-23T08:49:48Z</time>
      </trkpt>
      <trkpt lat="45.99717" lon="3.51352">
        <ele>419</ele>
        <time>2021-05-23T08:49:52Z</time>
      </trkpt>
      <trkpt lat="45.99717" lon="3.51352">
        <ele>418.79998779297</ele>
        <time>2021-05-23T08:49:53Z</time>
      </trkpt>
      <trkpt lat="45.99717" lon="3.51352">
        <ele>418.79998779297</ele>
        <time>2021-05-23T08:49:55Z</time>
      </trkpt>
      <trkpt lat="45.99717" lon="3.51352">
        <ele>418.60000610352</ele>
        <time>2021-05-23T08:49:56Z</time>
      </trkpt>
      <trkpt lat="45.99717" lon="3.51352">
        <ele>418.60000610352</ele>
        <time>2021-05-23T08:49:58Z</time>
      </trkpt>
      <trkpt lat="45.99716" lon="3.51353">
        <ele>418.60000610352</ele>
        <time>2021-05-23T08:50:02Z</time>
      </trkpt>
      <trkpt lat="45.99717" lon="3.51355">
        <ele>418.60000610352</ele>
        <time>2021-05-23T08:50:05Z</time>
      </trkpt>
      <trkpt lat="45.99717" lon="3.51354">
        <ele>418.60000610352</ele>
        <time>2021-05-23T08:50:07Z</time>
      </trkpt>
      <trkpt lat="45.99716" lon="3.51355">
        <ele>418.60000610352</ele>
        <time>2021-05-23T08:50:12Z</time>
      </trkpt>
      <trkpt lat="45.99715" lon="3.51357">
        <ele>418.60000610352</ele>
        <time>2021-05-23T08:50:15Z</time>
      </trkpt>
      <trkpt lat="45.99712" lon="3.51354">
        <ele>418.39999389648</ele>
        <time>2021-05-23T08:50:17Z</time>
      </trkpt>
      <trkpt lat="45.99712" lon="3.51352">
        <ele>418.39999389648</ele>
        <time>2021-05-23T08:50:18Z</time>
      </trkpt>
      <trkpt lat="45.99712" lon="3.5135">
        <ele>418.39999389648</ele>
        <time>2021-05-23T08:50:19Z</time>
      </trkpt>
      <trkpt lat="45.99712" lon="3.51349">
        <ele>418.39999389648</ele>
        <time>2021-05-23T08:50:20Z</time>
      </trkpt>
      <trkpt lat="45.99708" lon="3.51349">
        <ele>418.39999389648</ele>
        <time>2021-05-23T08:50:22Z</time>
      </trkpt>
      <trkpt lat="45.99715" lon="3.51344">
        <ele>418.79998779297</ele>
        <time>2021-05-23T08:50:28Z</time>
      </trkpt>
      <trkpt lat="45.99716" lon="3.51344">
        <ele>419</ele>
        <time>2021-05-23T08:50:32Z</time>
      </trkpt>
      <trkpt lat="45.99719" lon="3.51344">
        <ele>419.20001220703</ele>
        <time>2021-05-23T08:50:38Z</time>
      </trkpt>
      <trkpt lat="45.9972" lon="3.51346">
        <ele>419.20001220703</ele>
        <time>2021-05-23T08:50:42Z</time>
      </trkpt>
      <trkpt lat="45.99715" lon="3.51346">
        <ele>419.20001220703</ele>
        <time>2021-05-23T08:50:52Z</time>
      </trkpt>
      <trkpt lat="45.99713" lon="3.51351">
        <ele>419.20001220703</ele>
        <time>2021-05-23T08:51:02Z</time>
      </trkpt>
      <trkpt lat="45.99712" lon="3.51357">
        <ele>418</ele>
        <time>2021-05-23T08:51:12Z</time>
      </trkpt>
      <trkpt lat="45.99712" lon="3.51359">
        <ele>417.39999389648</ele>
        <time>2021-05-23T08:51:14Z</time>
      </trkpt>
      <trkpt lat="45.99712" lon="3.5136">
        <ele>417</ele>
        <time>2021-05-23T08:51:17Z</time>
      </trkpt>
      <trkpt lat="45.99713" lon="3.5136">
        <ele>417</ele>
        <time>2021-05-23T08:51:19Z</time>
      </trkpt>
      <trkpt lat="45.99713" lon="3.5136">
        <ele>416.79998779297</ele>
        <time>2021-05-23T08:51:22Z</time>
      </trkpt>
      <trkpt lat="45.99713" lon="3.51361">
        <ele>417</ele>
        <time>2021-05-23T08:51:24Z</time>
      </trkpt>
      <trkpt lat="45.99712" lon="3.51363">
        <ele>417</ele>
        <time>2021-05-23T08:51:26Z</time>
      </trkpt>
      <trkpt lat="45.99711" lon="3.5137">
        <ele>416.79998779297</ele>
        <time>2021-05-23T08:51:32Z</time>
      </trkpt>
      <trkpt lat="45.9971" lon="3.51372">
        <ele>416.60000610352</ele>
        <time>2021-05-23T08:51:34Z</time>
      </trkpt>
      <trkpt lat="45.99709" lon="3.5137">
        <ele>417.20001220703</ele>
        <time>2021-05-23T08:51:42Z</time>
      </trkpt>
      <trkpt lat="45.99705" lon="3.51369">
        <ele>417.79998779297</ele>
        <time>2021-05-23T08:51:48Z</time>
      </trkpt>
      <trkpt lat="45.99703" lon="3.51367">
        <ele>418.20001220703</ele>
        <time>2021-05-23T08:51:51Z</time>
      </trkpt>
      <trkpt lat="45.99702" lon="3.51365">
        <ele>418.39999389648</ele>
        <time>2021-05-23T08:51:52Z</time>
      </trkpt>
      <trkpt lat="45.99701" lon="3.51365">
        <ele>418.60000610352</ele>
        <time>2021-05-23T08:51:54Z</time>
      </trkpt>
      <trkpt lat="45.997" lon="3.51366">
        <ele>419.20001220703</ele>
        <time>2021-05-23T08:51:56Z</time>
      </trkpt>
      <trkpt lat="45.99699" lon="3.51367">
        <ele>419.60000610352</ele>
        <time>2021-05-23T08:51:58Z</time>
      </trkpt>
      <trkpt lat="45.99699" lon="3.51368">
        <ele>419.79998779297</ele>
        <time>2021-05-23T08:51:59Z</time>
      </trkpt>
      <trkpt lat="45.99699" lon="3.5137">
        <ele>420.20001220703</ele>
        <time>2021-05-23T08:52:02Z</time>
      </trkpt>
      <trkpt lat="45.997" lon="3.51374">
        <ele>420.60000610352</ele>
        <time>2021-05-23T08:52:05Z</time>
      </trkpt>
      <trkpt lat="45.997" lon="3.51375">
        <ele>420.79998779297</ele>
        <time>2021-05-23T08:52:06Z</time>
      </trkpt>
      <trkpt lat="45.99699" lon="3.51379">
        <ele>421.39999389648</ele>
        <time>2021-05-23T08:52:09Z</time>
      </trkpt>
      <trkpt lat="45.99698" lon="3.51381">
        <ele>421.79998779297</ele>
        <time>2021-05-23T08:52:11Z</time>
      </trkpt>
      <trkpt lat="45.99699" lon="3.51382">
        <ele>422</ele>
        <time>2021-05-23T08:52:12Z</time>
      </trkpt>
      <trkpt lat="45.99698" lon="3.51385">
        <ele>422.60000610352</ele>
        <time>2021-05-23T08:52:15Z</time>
      </trkpt>
      <trkpt lat="45.99697" lon="3.51386">
        <ele>422.79998779297</ele>
        <time>2021-05-23T08:52:17Z</time>
      </trkpt>
      <trkpt lat="45.99697" lon="3.51386">
        <ele>423</ele>
        <time>2021-05-23T08:52:18Z</time>
      </trkpt>
      <trkpt lat="45.99694" lon="3.51386">
        <ele>423.20001220703</ele>
        <time>2021-05-23T08:52:20Z</time>
      </trkpt>
      <trkpt lat="45.99692" lon="3.51385">
        <ele>423.60000610352</ele>
        <time>2021-05-23T08:52:22Z</time>
      </trkpt>
      <trkpt lat="45.99691" lon="3.51383">
        <ele>423.60000610352</ele>
        <time>2021-05-23T08:52:23Z</time>
      </trkpt>
      <trkpt lat="45.99689" lon="3.5138">
        <ele>423.79998779297</ele>
        <time>2021-05-23T08:52:26Z</time>
      </trkpt>
      <trkpt lat="45.99687" lon="3.51379">
        <ele>424.39999389648</ele>
        <time>2021-05-23T08:52:29Z</time>
      </trkpt>
      <trkpt lat="45.99685" lon="3.51377">
        <ele>425.39999389648</ele>
        <time>2021-05-23T08:52:32Z</time>
      </trkpt>
      <trkpt lat="45.99685" lon="3.51376">
        <ele>425.60000610352</ele>
        <time>2021-05-23T08:52:34Z</time>
      </trkpt>
      <trkpt lat="45.99685" lon="3.51374">
        <ele>426</ele>
        <time>2021-05-23T08:52:37Z</time>
      </trkpt>
      <trkpt lat="45.99687" lon="3.51371">
        <ele>426.39999389648</ele>
        <time>2021-05-23T08:52:40Z</time>
      </trkpt>
      <trkpt lat="45.99688" lon="3.51369">
        <ele>426.60000610352</ele>
        <time>2021-05-23T08:52:42Z</time>
      </trkpt>
      <trkpt lat="45.99686" lon="3.51365">
        <ele>426.60000610352</ele>
        <time>2021-05-23T08:52:47Z</time>
      </trkpt>
      <trkpt lat="45.99681" lon="3.51363">
        <ele>426.39999389648</ele>
        <time>2021-05-23T08:52:51Z</time>
      </trkpt>
      <trkpt lat="45.9968" lon="3.51363">
        <ele>426.20001220703</ele>
        <time>2021-05-23T08:52:52Z</time>
      </trkpt>
      <trkpt lat="45.9968" lon="3.51362">
        <ele>426.20001220703</ele>
        <time>2021-05-23T08:52:53Z</time>
      </trkpt>
      <trkpt lat="45.99677" lon="3.5136">
        <ele>425.79998779297</ele>
        <time>2021-05-23T08:52:55Z</time>
      </trkpt>
      <trkpt lat="45.99678" lon="3.51355">
        <ele>425.39999389648</ele>
        <time>2021-05-23T08:52:58Z</time>
      </trkpt>
      <trkpt lat="45.99677" lon="3.51354">
        <ele>425.20001220703</ele>
        <time>2021-05-23T08:52:59Z</time>
      </trkpt>
      <trkpt lat="45.99678" lon="3.51349">
        <ele>424.39999389648</ele>
        <time>2021-05-23T08:53:02Z</time>
      </trkpt>
      <trkpt lat="45.99679" lon="3.51347">
        <ele>424.20001220703</ele>
        <time>2021-05-23T08:53:03Z</time>
      </trkpt>
      <trkpt lat="45.99685" lon="3.51334">
        <ele>423</ele>
        <time>2021-05-23T08:53:12Z</time>
      </trkpt>
      <trkpt lat="45.99685" lon="3.51332">
        <ele>421.79998779297</ele>
        <time>2021-05-23T08:53:15Z</time>
      </trkpt>
      <trkpt lat="45.99686" lon="3.51327">
        <ele>420.79998779297</ele>
        <time>2021-05-23T08:53:19Z</time>
      </trkpt>
      <trkpt lat="45.99686" lon="3.51324">
        <ele>420.39999389648</ele>
        <time>2021-05-23T08:53:21Z</time>
      </trkpt>
      <trkpt lat="45.99685" lon="3.51322">
        <ele>420.39999389648</ele>
        <time>2021-05-23T08:53:22Z</time>
      </trkpt>
      <trkpt lat="45.99684" lon="3.51313">
        <ele>419.60000610352</ele>
        <time>2021-05-23T08:53:28Z</time>
      </trkpt>
      <trkpt lat="45.99684" lon="3.51311">
        <ele>419.39999389648</ele>
        <time>2021-05-23T08:53:29Z</time>
      </trkpt>
      <trkpt lat="45.99683" lon="3.51307">
        <ele>418.60000610352</ele>
        <time>2021-05-23T08:53:32Z</time>
      </trkpt>
      <trkpt lat="45.99682" lon="3.51304">
        <ele>418.39999389648</ele>
        <time>2021-05-23T08:53:34Z</time>
      </trkpt>
      <trkpt lat="45.99679" lon="3.51296">
        <ele>417.39999389648</ele>
        <time>2021-05-23T08:53:39Z</time>
      </trkpt>
      <trkpt lat="45.99676" lon="3.51292">
        <ele>416.60000610352</ele>
        <time>2021-05-23T08:53:42Z</time>
      </trkpt>
      <trkpt lat="45.99675" lon="3.51289">
        <ele>416.20001220703</ele>
        <time>2021-05-23T08:53:44Z</time>
      </trkpt>
      <trkpt lat="45.99679" lon="3.51278">
        <ele>416</ele>
        <time>2021-05-23T08:53:50Z</time>
      </trkpt>
      <trkpt lat="45.99681" lon="3.51274">
        <ele>416</ele>
        <time>2021-05-23T08:53:52Z</time>
      </trkpt>
      <trkpt lat="45.99689" lon="3.51267">
        <ele>414.79998779297</ele>
        <time>2021-05-23T08:53:58Z</time>
      </trkpt>
      <trkpt lat="45.99694" lon="3.51264">
        <ele>413.79998779297</ele>
        <time>2021-05-23T08:54:02Z</time>
      </trkpt>
      <trkpt lat="45.99705" lon="3.51253">
        <ele>413.20001220703</ele>
        <time>2021-05-23T08:54:12Z</time>
      </trkpt>
      <trkpt lat="45.99707" lon="3.51247">
        <ele>412.60000610352</ele>
        <time>2021-05-23T08:54:15Z</time>
      </trkpt>
      <trkpt lat="45.99713" lon="3.51237">
        <ele>411.60000610352</ele>
        <time>2021-05-23T08:54:22Z</time>
      </trkpt>
      <trkpt lat="45.99718" lon="3.51233">
        <ele>411.20001220703</ele>
        <time>2021-05-23T08:54:28Z</time>
      </trkpt>
      <trkpt lat="45.99719" lon="3.51231">
        <ele>411.20001220703</ele>
        <time>2021-05-23T08:54:30Z</time>
      </trkpt>
      <trkpt lat="45.99719" lon="3.51228">
        <ele>411</ele>
        <time>2021-05-23T08:54:32Z</time>
      </trkpt>
      <trkpt lat="45.9972" lon="3.51224">
        <ele>410.60000610352</ele>
        <time>2021-05-23T08:54:34Z</time>
      </trkpt>
      <trkpt lat="45.99723" lon="3.51216">
        <ele>409.39999389648</ele>
        <time>2021-05-23T08:54:39Z</time>
      </trkpt>
      <trkpt lat="45.99725" lon="3.5121">
        <ele>408.79998779297</ele>
        <time>2021-05-23T08:54:42Z</time>
      </trkpt>
      <trkpt lat="45.99732" lon="3.51195">
        <ele>408.39999389648</ele>
        <time>2021-05-23T08:54:51Z</time>
      </trkpt>
      <trkpt lat="45.99732" lon="3.51195">
        <ele>408.20001220703</ele>
        <time>2021-05-23T08:54:52Z</time>
      </trkpt>
      <trkpt lat="45.99736" lon="3.51185">
        <ele>407.20001220703</ele>
        <time>2021-05-23T08:54:59Z</time>
      </trkpt>
      <trkpt lat="45.99738" lon="3.51181">
        <ele>406.60000610352</ele>
        <time>2021-05-23T08:55:02Z</time>
      </trkpt>
      <trkpt lat="45.99742" lon="3.51174">
        <ele>406.20001220703</ele>
        <time>2021-05-23T08:55:07Z</time>
      </trkpt>
      <trkpt lat="45.99745" lon="3.51169">
        <ele>406</ele>
        <time>2021-05-23T08:55:12Z</time>
      </trkpt>
      <trkpt lat="45.99745" lon="3.51168">
        <ele>406</ele>
        <time>2021-05-23T08:55:13Z</time>
      </trkpt>
      <trkpt lat="45.99749" lon="3.51163">
        <ele>405.20001220703</ele>
        <time>2021-05-23T08:55:17Z</time>
      </trkpt>
      <trkpt lat="45.9975" lon="3.51161">
        <ele>404.79998779297</ele>
        <time>2021-05-23T08:55:18Z</time>
      </trkpt>
      <trkpt lat="45.99752" lon="3.51154">
        <ele>404.20001220703</ele>
        <time>2021-05-23T08:55:22Z</time>
      </trkpt>
      <trkpt lat="45.99753" lon="3.51151">
        <ele>403.79998779297</ele>
        <time>2021-05-23T08:55:24Z</time>
      </trkpt>
      <trkpt lat="45.99756" lon="3.51143">
        <ele>403.60000610352</ele>
        <time>2021-05-23T08:55:29Z</time>
      </trkpt>
      <trkpt lat="45.99758" lon="3.51139">
        <ele>403.20001220703</ele>
        <time>2021-05-23T08:55:32Z</time>
      </trkpt>
      <trkpt lat="45.9976" lon="3.51134">
        <ele>402.79998779297</ele>
        <time>2021-05-23T08:55:35Z</time>
      </trkpt>
      <trkpt lat="45.99764" lon="3.51127">
        <ele>401.60000610352</ele>
        <time>2021-05-23T08:55:41Z</time>
      </trkpt>
      <trkpt lat="45.99764" lon="3.51126">
        <ele>401.39999389648</ele>
        <time>2021-05-23T08:55:42Z</time>
      </trkpt>
      <trkpt lat="45.99765" lon="3.51121">
        <ele>401.39999389648</ele>
        <time>2021-05-23T08:55:46Z</time>
      </trkpt>
      <trkpt lat="45.99768" lon="3.51116">
        <ele>401.20001220703</ele>
        <time>2021-05-23T08:55:50Z</time>
      </trkpt>
      <trkpt lat="45.99769" lon="3.51113">
        <ele>400.79998779297</ele>
        <time>2021-05-23T08:55:52Z</time>
      </trkpt>
      <trkpt lat="45.9977" lon="3.5111">
        <ele>400.39999389648</ele>
        <time>2021-05-23T08:55:53Z</time>
      </trkpt>
      <trkpt lat="45.99775" lon="3.51101">
        <ele>399.39999389648</ele>
        <time>2021-05-23T08:55:59Z</time>
      </trkpt>
      <trkpt lat="45.99777" lon="3.51097">
        <ele>399</ele>
        <time>2021-05-23T08:56:02Z</time>
      </trkpt>
      <trkpt lat="45.99784" lon="3.51083">
        <ele>398.60000610352</ele>
        <time>2021-05-23T08:56:12Z</time>
      </trkpt>
      <trkpt lat="45.99787" lon="3.51078">
        <ele>398.20001220703</ele>
        <time>2021-05-23T08:56:16Z</time>
      </trkpt>
      <trkpt lat="45.99791" lon="3.5107">
        <ele>397.20001220703</ele>
        <time>2021-05-23T08:56:22Z</time>
      </trkpt>
      <trkpt lat="45.99794" lon="3.51064">
        <ele>397</ele>
        <time>2021-05-23T08:56:28Z</time>
      </trkpt>
      <trkpt lat="45.99794" lon="3.51064">
        <ele>397</ele>
        <time>2021-05-23T08:56:29Z</time>
      </trkpt>
      <trkpt lat="45.99795" lon="3.51063">
        <ele>396.79998779297</ele>
        <time>2021-05-23T08:56:30Z</time>
      </trkpt>
      <trkpt lat="45.99795" lon="3.51062">
        <ele>396.60000610352</ele>
        <time>2021-05-23T08:56:31Z</time>
      </trkpt>
      <trkpt lat="45.99796" lon="3.51061">
        <ele>396.39999389648</ele>
        <time>2021-05-23T08:56:32Z</time>
      </trkpt>
      <trkpt lat="45.99797" lon="3.51059">
        <ele>396.20001220703</ele>
        <time>2021-05-23T08:56:34Z</time>
      </trkpt>
      <trkpt lat="45.99803" lon="3.51046">
        <ele>395.39999389648</ele>
        <time>2021-05-23T08:56:42Z</time>
      </trkpt>
      <trkpt lat="45.99805" lon="3.51043">
        <ele>395</ele>
        <time>2021-05-23T08:56:45Z</time>
      </trkpt>
      <trkpt lat="45.99811" lon="3.51036">
        <ele>395</ele>
        <time>2021-05-23T08:56:52Z</time>
      </trkpt>
      <trkpt lat="45.9982" lon="3.51026">
        <ele>394</ele>
        <time>2021-05-23T08:57:01Z</time>
      </trkpt>
      <trkpt lat="45.99821" lon="3.51025">
        <ele>394</ele>
        <time>2021-05-23T08:57:02Z</time>
      </trkpt>
      <trkpt lat="45.99827" lon="3.51024">
        <ele>394</ele>
        <time>2021-05-23T08:57:07Z</time>
      </trkpt>
      <trkpt lat="45.99834" lon="3.51024">
        <ele>393.60000610352</ele>
        <time>2021-05-23T08:57:12Z</time>
      </trkpt>
      <trkpt lat="45.99841" lon="3.51019">
        <ele>393</ele>
        <time>2021-05-23T08:57:20Z</time>
      </trkpt>
      <trkpt lat="45.99842" lon="3.51017">
        <ele>392.79998779297</ele>
        <time>2021-05-23T08:57:22Z</time>
      </trkpt>
      <trkpt lat="45.99844" lon="3.51009">
        <ele>392</ele>
        <time>2021-05-23T08:57:28Z</time>
      </trkpt>
      <trkpt lat="45.99844" lon="3.51003">
        <ele>391.60000610352</ele>
        <time>2021-05-23T08:57:32Z</time>
      </trkpt>
      <trkpt lat="45.99845" lon="3.50998">
        <ele>391</ele>
        <time>2021-05-23T08:57:36Z</time>
      </trkpt>
      <trkpt lat="45.99845" lon="3.50997">
        <ele>390.79998779297</ele>
        <time>2021-05-23T08:57:37Z</time>
      </trkpt>
      <trkpt lat="45.99846" lon="3.50991">
        <ele>390.20001220703</ele>
        <time>2021-05-23T08:57:41Z</time>
      </trkpt>
      <trkpt lat="45.99847" lon="3.5099">
        <ele>390</ele>
        <time>2021-05-23T08:57:42Z</time>
      </trkpt>
      <trkpt lat="45.99847" lon="3.50988">
        <ele>389.79998779297</ele>
        <time>2021-05-23T08:57:43Z</time>
      </trkpt>
      <trkpt lat="45.99849" lon="3.50981">
        <ele>389</ele>
        <time>2021-05-23T08:57:48Z</time>
      </trkpt>
      <trkpt lat="45.9985" lon="3.50979">
        <ele>388.60000610352</ele>
        <time>2021-05-23T08:57:51Z</time>
      </trkpt>
      <trkpt lat="45.99851" lon="3.50977">
        <ele>388.60000610352</ele>
        <time>2021-05-23T08:57:52Z</time>
      </trkpt>
      <trkpt lat="45.99855" lon="3.50962">
        <ele>387.60000610352</ele>
        <time>2021-05-23T08:58:02Z</time>
      </trkpt>
      <trkpt lat="45.99857" lon="3.50951">
        <ele>386.60000610352</ele>
        <time>2021-05-23T08:58:12Z</time>
      </trkpt>
      <trkpt lat="45.99857" lon="3.5095">
        <ele>386.39999389648</ele>
        <time>2021-05-23T08:58:13Z</time>
      </trkpt>
      <trkpt lat="45.99859" lon="3.50942">
        <ele>385.60000610352</ele>
        <time>2021-05-23T08:58:22Z</time>
      </trkpt>
      <trkpt lat="45.99859" lon="3.50941">
        <ele>385.39999389648</ele>
        <time>2021-05-23T08:58:23Z</time>
      </trkpt>
      <trkpt lat="45.99863" lon="3.50932">
        <ele>384.79998779297</ele>
        <time>2021-05-23T08:58:32Z</time>
      </trkpt>
      <trkpt lat="45.99856" lon="3.50928">
        <ele>384.60000610352</ele>
        <time>2021-05-23T08:58:38Z</time>
      </trkpt>
      <trkpt lat="45.99854" lon="3.50926">
        <ele>384.39999389648</ele>
        <time>2021-05-23T08:58:41Z</time>
      </trkpt>
      <trkpt lat="45.99854" lon="3.50925">
        <ele>384.39999389648</ele>
        <time>2021-05-23T08:58:42Z</time>
      </trkpt>
      <trkpt lat="45.99853" lon="3.50925">
        <ele>384.20001220703</ele>
        <time>2021-05-23T08:58:43Z</time>
      </trkpt>
      <trkpt lat="45.99854" lon="3.50919">
        <ele>384</ele>
        <time>2021-05-23T08:58:48Z</time>
      </trkpt>
      <trkpt lat="45.99857" lon="3.50914">
        <ele>384</ele>
        <time>2021-05-23T08:58:52Z</time>
      </trkpt>
      <trkpt lat="45.9986" lon="3.50911">
        <ele>383.39999389648</ele>
        <time>2021-05-23T08:58:57Z</time>
      </trkpt>
      <trkpt lat="45.99862" lon="3.50905">
        <ele>383.20001220703</ele>
        <time>2021-05-23T08:59:02Z</time>
      </trkpt>
      <trkpt lat="45.99866" lon="3.50894">
        <ele>382.20001220703</ele>
        <time>2021-05-23T08:59:12Z</time>
      </trkpt>
      <trkpt lat="45.99868" lon="3.50889">
        <ele>381.79998779297</ele>
        <time>2021-05-23T08:59:16Z</time>
      </trkpt>
      <trkpt lat="45.99869" lon="3.50887">
        <ele>381.60000610352</ele>
        <time>2021-05-23T08:59:18Z</time>
      </trkpt>
      <trkpt lat="45.9987" lon="3.50884">
        <ele>381.60000610352</ele>
        <time>2021-05-23T08:59:20Z</time>
      </trkpt>
      <trkpt lat="45.99871" lon="3.50882">
        <ele>381.60000610352</ele>
        <time>2021-05-23T08:59:22Z</time>
      </trkpt>
      <trkpt lat="45.99874" lon="3.5088">
        <ele>381</ele>
        <time>2021-05-23T08:59:25Z</time>
      </trkpt>
      <trkpt lat="45.99878" lon="3.50875">
        <ele>380.39999389648</ele>
        <time>2021-05-23T08:59:32Z</time>
      </trkpt>
      <trkpt lat="45.99881" lon="3.50873">
        <ele>380</ele>
        <time>2021-05-23T08:59:34Z</time>
      </trkpt>
      <trkpt lat="45.99893" lon="3.50871">
        <ele>379.39999389648</ele>
        <time>2021-05-23T08:59:42Z</time>
      </trkpt>
      <trkpt lat="45.99896" lon="3.50869">
        <ele>379.39999389648</ele>
        <time>2021-05-23T08:59:45Z</time>
      </trkpt>
      <trkpt lat="45.99899" lon="3.50867">
        <ele>379.20001220703</ele>
        <time>2021-05-23T08:59:49Z</time>
      </trkpt>
      <trkpt lat="45.99901" lon="3.50864">
        <ele>379.20001220703</ele>
        <time>2021-05-23T08:59:52Z</time>
      </trkpt>
      <trkpt lat="45.99902" lon="3.50862">
        <ele>379</ele>
        <time>2021-05-23T08:59:54Z</time>
      </trkpt>
      <trkpt lat="45.99901" lon="3.50859">
        <ele>378.79998779297</ele>
        <time>2021-05-23T08:59:56Z</time>
      </trkpt>
      <trkpt lat="45.99903" lon="3.50855">
        <ele>377.79998779297</ele>
        <time>2021-05-23T09:00:00Z</time>
      </trkpt>
      <trkpt lat="45.99906" lon="3.50854">
        <ele>377.39999389648</ele>
        <time>2021-05-23T09:00:02Z</time>
      </trkpt>
      <trkpt lat="45.99908" lon="3.50849">
        <ele>377.20001220703</ele>
        <time>2021-05-23T09:00:06Z</time>
      </trkpt>
      <trkpt lat="45.99909" lon="3.5084">
        <ele>377.60000610352</ele>
        <time>2021-05-23T09:00:12Z</time>
      </trkpt>
      <trkpt lat="45.99911" lon="3.50836">
        <ele>377.60000610352</ele>
        <time>2021-05-23T09:00:15Z</time>
      </trkpt>
      <trkpt lat="45.99913" lon="3.50834">
        <ele>377.39999389648</ele>
        <time>2021-05-23T09:00:17Z</time>
      </trkpt>
      <trkpt lat="45.99916" lon="3.50831">
        <ele>377</ele>
        <time>2021-05-23T09:00:22Z</time>
      </trkpt>
      <trkpt lat="45.99916" lon="3.50831">
        <ele>377</ele>
        <time>2021-05-23T09:00:23Z</time>
      </trkpt>
      <trkpt lat="45.99917" lon="3.50831">
        <ele>376.79998779297</ele>
        <time>2021-05-23T09:00:26Z</time>
      </trkpt>
      <trkpt lat="45.99921" lon="3.5083">
        <ele>377</ele>
        <time>2021-05-23T09:00:32Z</time>
      </trkpt>
      <trkpt lat="45.99922" lon="3.5083">
        <ele>377</ele>
        <time>2021-05-23T09:00:33Z</time>
      </trkpt>
      <trkpt lat="45.99925" lon="3.5083">
        <ele>377.20001220703</ele>
        <time>2021-05-23T09:00:34Z</time>
      </trkpt>
      <trkpt lat="45.99937" lon="3.50826">
        <ele>378</ele>
        <time>2021-05-23T09:00:40Z</time>
      </trkpt>
      <trkpt lat="45.99938" lon="3.50823">
        <ele>378.20001220703</ele>
        <time>2021-05-23T09:00:42Z</time>
      </trkpt>
      <trkpt lat="45.99941" lon="3.50823">
        <ele>378.20001220703</ele>
        <time>2021-05-23T09:00:46Z</time>
      </trkpt>
      <trkpt lat="45.99947" lon="3.50821">
        <ele>378.60000610352</ele>
        <time>2021-05-23T09:00:52Z</time>
      </trkpt>
      <trkpt lat="45.99952" lon="3.5082">
        <ele>379</ele>
        <time>2021-05-23T09:00:57Z</time>
      </trkpt>
      <trkpt lat="45.99954" lon="3.50819">
        <ele>379.60000610352</ele>
        <time>2021-05-23T09:01:02Z</time>
      </trkpt>
      <trkpt lat="45.99957" lon="3.50817">
        <ele>380.20001220703</ele>
        <time>2021-05-23T09:01:08Z</time>
      </trkpt>
      <trkpt lat="45.9996" lon="3.50816">
        <ele>380.79998779297</ele>
        <time>2021-05-23T09:01:12Z</time>
      </trkpt>
      <trkpt lat="45.99966" lon="3.50817">
        <ele>381.20001220703</ele>
        <time>2021-05-23T09:01:19Z</time>
      </trkpt>
      <trkpt lat="45.99968" lon="3.50817">
        <ele>381.60000610352</ele>
        <time>2021-05-23T09:01:22Z</time>
      </trkpt>
      <trkpt lat="45.9997" lon="3.50815">
        <ele>381.60000610352</ele>
        <time>2021-05-23T09:01:26Z</time>
      </trkpt>
      <trkpt lat="45.99974" lon="3.50814">
        <ele>381.60000610352</ele>
        <time>2021-05-23T09:01:32Z</time>
      </trkpt>
      <trkpt lat="45.99981" lon="3.508">
        <ele>382.20001220703</ele>
        <time>2021-05-23T09:01:42Z</time>
      </trkpt>
      <trkpt lat="45.99984" lon="3.50794">
        <ele>382.20001220703</ele>
        <time>2021-05-23T09:01:45Z</time>
      </trkpt>
      <trkpt lat="45.99986" lon="3.50793">
        <ele>382.20001220703</ele>
        <time>2021-05-23T09:01:47Z</time>
      </trkpt>
      <trkpt lat="45.99987" lon="3.50792">
        <ele>382.20001220703</ele>
        <time>2021-05-23T09:01:48Z</time>
      </trkpt>
      <trkpt lat="45.9999" lon="3.50789">
        <ele>382.20001220703</ele>
        <time>2021-05-23T09:01:52Z</time>
      </trkpt>
      <trkpt lat="45.99997" lon="3.50782">
        <ele>382.39999389648</ele>
        <time>2021-05-23T09:02:02Z</time>
      </trkpt>
      <trkpt lat="46.00003" lon="3.50776">
        <ele>382.60000610352</ele>
        <time>2021-05-23T09:02:09Z</time>
      </trkpt>
      <trkpt lat="46.00005" lon="3.50773">
        <ele>382.39999389648</ele>
        <time>2021-05-23T09:02:12Z</time>
      </trkpt>
      <trkpt lat="46.00006" lon="3.50771">
        <ele>382.39999389648</ele>
        <time>2021-05-23T09:02:13Z</time>
      </trkpt>
      <trkpt lat="46.00007" lon="3.50769">
        <ele>382.60000610352</ele>
        <time>2021-05-23T09:02:15Z</time>
      </trkpt>
      <trkpt lat="46.00008" lon="3.50758">
        <ele>382.39999389648</ele>
        <time>2021-05-23T09:02:18Z</time>
      </trkpt>
      <trkpt lat="46.00009" lon="3.50755">
        <ele>382.39999389648</ele>
        <time>2021-05-23T09:02:19Z</time>
      </trkpt>
      <trkpt lat="46.00011" lon="3.50747">
        <ele>382.39999389648</ele>
        <time>2021-05-23T09:02:22Z</time>
      </trkpt>
      <trkpt lat="46.00011" lon="3.50741">
        <ele>382.20001220703</ele>
        <time>2021-05-23T09:02:25Z</time>
      </trkpt>
      <trkpt lat="46.00014" lon="3.50729">
        <ele>382</ele>
        <time>2021-05-23T09:02:32Z</time>
      </trkpt>
      <trkpt lat="46.00016" lon="3.5072">
        <ele>382.20001220703</ele>
        <time>2021-05-23T09:02:42Z</time>
      </trkpt>
      <trkpt lat="46.00017" lon="3.50707">
        <ele>382.79998779297</ele>
        <time>2021-05-23T09:02:52Z</time>
      </trkpt>
      <trkpt lat="46.00019" lon="3.50689">
        <ele>382.20001220703</ele>
        <time>2021-05-23T09:03:02Z</time>
      </trkpt>
      <trkpt lat="46.00018" lon="3.50689">
        <ele>382.20001220703</ele>
        <time>2021-05-23T09:03:03Z</time>
      </trkpt>
      <trkpt lat="46.0002" lon="3.50685">
        <ele>381.20001220703</ele>
        <time>2021-05-23T09:03:08Z</time>
      </trkpt>
      <trkpt lat="46.0002" lon="3.50684">
        <ele>381</ele>
        <time>2021-05-23T09:03:10Z</time>
      </trkpt>
      <trkpt lat="46.0002" lon="3.50684">
        <ele>381.39999389648</ele>
        <time>2021-05-23T09:03:12Z</time>
      </trkpt>
      <trkpt lat="46.0002" lon="3.50682">
        <ele>381.60000610352</ele>
        <time>2021-05-23T09:03:13Z</time>
      </trkpt>
      <trkpt lat="46.00019" lon="3.50676">
        <ele>382.20001220703</ele>
        <time>2021-05-23T09:03:21Z</time>
      </trkpt>
      <trkpt lat="46.00018" lon="3.50676">
        <ele>382.39999389648</ele>
        <time>2021-05-23T09:03:22Z</time>
      </trkpt>
      <trkpt lat="46.00011" lon="3.50671">
        <ele>381.79998779297</ele>
        <time>2021-05-23T09:03:32Z</time>
      </trkpt>
      <trkpt lat="46.00008" lon="3.50669">
        <ele>381</ele>
        <time>2021-05-23T09:03:39Z</time>
      </trkpt>
      <trkpt lat="46.00007" lon="3.50671">
        <ele>381</ele>
        <time>2021-05-23T09:03:40Z</time>
      </trkpt>
      <trkpt lat="46.00002" lon="3.50675">
        <ele>380.60000610352</ele>
        <time>2021-05-23T09:03:42Z</time>
      </trkpt>
      <trkpt lat="45.99991" lon="3.50679">
        <ele>380.39999389648</ele>
        <time>2021-05-23T09:03:49Z</time>
      </trkpt>
      <trkpt lat="45.99987" lon="3.5068">
        <ele>380.20001220703</ele>
        <time>2021-05-23T09:03:52Z</time>
      </trkpt>
      <trkpt lat="45.99985" lon="3.5068">
        <ele>380</ele>
        <time>2021-05-23T09:03:53Z</time>
      </trkpt>
      <trkpt lat="45.9998" lon="3.5068">
        <ele>379.60000610352</ele>
        <time>2021-05-23T09:03:58Z</time>
      </trkpt>
      <trkpt lat="45.99973" lon="3.5068">
        <ele>379</ele>
        <time>2021-05-23T09:04:02Z</time>
      </trkpt>
      <trkpt lat="45.99971" lon="3.5068">
        <ele>378.79998779297</ele>
        <time>2021-05-23T09:04:04Z</time>
      </trkpt>
      <trkpt lat="45.99969" lon="3.50679">
        <ele>378.60000610352</ele>
        <time>2021-05-23T09:04:07Z</time>
      </trkpt>
      <trkpt lat="45.9997" lon="3.50677">
        <ele>378.39999389648</ele>
        <time>2021-05-23T09:04:12Z</time>
      </trkpt>
      <trkpt lat="45.9997" lon="3.50677">
        <ele>378.39999389648</ele>
        <time>2021-05-23T09:04:13Z</time>
      </trkpt>
      <trkpt lat="45.9997" lon="3.50677">
        <ele>378.39999389648</ele>
        <time>2021-05-23T09:04:15Z</time>
      </trkpt>
      <trkpt lat="45.9997" lon="3.50675">
        <ele>378.20001220703</ele>
        <time>2021-05-23T09:04:22Z</time>
      </trkpt>
      <trkpt lat="45.99967" lon="3.50674">
        <ele>378</ele>
        <time>2021-05-23T09:04:25Z</time>
      </trkpt>
      <trkpt lat="45.99965" lon="3.50676">
        <ele>377.60000610352</ele>
        <time>2021-05-23T09:04:32Z</time>
      </trkpt>
      <trkpt lat="45.99964" lon="3.50676">
        <ele>377.39999389648</ele>
        <time>2021-05-23T09:04:37Z</time>
      </trkpt>
      <trkpt lat="45.99964" lon="3.50676">
        <ele>377.39999389648</ele>
        <time>2021-05-23T09:04:38Z</time>
      </trkpt>
      <trkpt lat="45.99964" lon="3.50678">
        <ele>377.39999389648</ele>
        <time>2021-05-23T09:04:42Z</time>
      </trkpt>
      <trkpt lat="45.99967" lon="3.50677">
        <ele>377.20001220703</ele>
        <time>2021-05-23T09:04:50Z</time>
      </trkpt>
      <trkpt lat="45.99967" lon="3.50676">
        <ele>377</ele>
        <time>2021-05-23T09:04:52Z</time>
      </trkpt>
      <trkpt lat="45.99967" lon="3.50676">
        <ele>377</ele>
        <time>2021-05-23T09:04:53Z</time>
      </trkpt>
      <trkpt lat="45.99964" lon="3.50672">
        <ele>377</ele>
        <time>2021-05-23T09:05:00Z</time>
      </trkpt>
      <trkpt lat="45.99964" lon="3.50673">
        <ele>376.79998779297</ele>
        <time>2021-05-23T09:05:02Z</time>
      </trkpt>
      <trkpt lat="45.9997" lon="3.50675">
        <ele>376.20001220703</ele>
        <time>2021-05-23T09:05:12Z</time>
      </trkpt>
      <trkpt lat="45.99968" lon="3.50677">
        <ele>376.39999389648</ele>
        <time>2021-05-23T09:05:22Z</time>
      </trkpt>
      <trkpt lat="45.99967" lon="3.50678">
        <ele>376.39999389648</ele>
        <time>2021-05-23T09:05:28Z</time>
      </trkpt>
      <trkpt lat="45.99967" lon="3.50678">
        <ele>376.20001220703</ele>
        <time>2021-05-23T09:05:31Z</time>
      </trkpt>
      <trkpt lat="45.99967" lon="3.50677">
        <ele>376.20001220703</ele>
        <time>2021-05-23T09:05:32Z</time>
      </trkpt>
      <trkpt lat="45.99971" lon="3.50672">
        <ele>376.20001220703</ele>
        <time>2021-05-23T09:05:42Z</time>
      </trkpt>
      <trkpt lat="45.99971" lon="3.50678">
        <ele>376.20001220703</ele>
        <time>2021-05-23T09:05:52Z</time>
      </trkpt>
      <trkpt lat="45.99972" lon="3.5068">
        <ele>376.20001220703</ele>
        <time>2021-05-23T09:05:58Z</time>
      </trkpt>
      <trkpt lat="45.99968" lon="3.50679">
        <ele>376.20001220703</ele>
        <time>2021-05-23T09:06:02Z</time>
      </trkpt>
      <trkpt lat="45.99962" lon="3.50678">
        <ele>376.20001220703</ele>
        <time>2021-05-23T09:06:12Z</time>
      </trkpt>
      <trkpt lat="45.99962" lon="3.50674">
        <ele>376</ele>
        <time>2021-05-23T09:06:22Z</time>
      </trkpt>
      <trkpt lat="45.99961" lon="3.50676">
        <ele>375.79998779297</ele>
        <time>2021-05-23T09:06:32Z</time>
      </trkpt>
      <trkpt lat="45.99961" lon="3.50674">
        <ele>375.60000610352</ele>
        <time>2021-05-23T09:06:35Z</time>
      </trkpt>
      <trkpt lat="45.99959" lon="3.5067">
        <ele>375.79998779297</ele>
        <time>2021-05-23T09:06:42Z</time>
      </trkpt>
      <trkpt lat="45.99955" lon="3.50666">
        <ele>375.60000610352</ele>
        <time>2021-05-23T09:06:52Z</time>
      </trkpt>
      <trkpt lat="45.99957" lon="3.50664">
        <ele>376</ele>
        <time>2021-05-23T09:07:02Z</time>
      </trkpt>
      <trkpt lat="45.99966" lon="3.50676">
        <ele>375.79998779297</ele>
        <time>2021-05-23T09:07:12Z</time>
      </trkpt>
      <trkpt lat="45.9997" lon="3.50675">
        <ele>376.79998779297</ele>
        <time>2021-05-23T09:07:22Z</time>
      </trkpt>
      <trkpt lat="45.9997" lon="3.50675">
        <ele>377</ele>
        <time>2021-05-23T09:07:23Z</time>
      </trkpt>
      <trkpt lat="45.99971" lon="3.50675">
        <ele>377.20001220703</ele>
        <time>2021-05-23T09:07:27Z</time>
      </trkpt>
      <trkpt lat="45.99972" lon="3.50676">
        <ele>377.60000610352</ele>
        <time>2021-05-23T09:07:32Z</time>
      </trkpt>
      <trkpt lat="45.99971" lon="3.50677">
        <ele>377.60000610352</ele>
        <time>2021-05-23T09:07:35Z</time>
      </trkpt>
      <trkpt lat="45.99967" lon="3.50681">
        <ele>378</ele>
        <time>2021-05-23T09:07:42Z</time>
      </trkpt>
      <trkpt lat="45.99969" lon="3.50677">
        <ele>376.20001220703</ele>
        <time>2021-05-23T09:07:48Z</time>
      </trkpt>
      <trkpt lat="45.99969" lon="3.50677">
        <ele>376.20001220703</ele>
        <time>2021-05-23T09:07:52Z</time>
      </trkpt>
      <trkpt lat="45.9997" lon="3.50676">
        <ele>376.39999389648</ele>
        <time>2021-05-23T09:07:56Z</time>
      </trkpt>
      <trkpt lat="45.99971" lon="3.50676">
        <ele>376.39999389648</ele>
        <time>2021-05-23T09:08:01Z</time>
      </trkpt>
      <trkpt lat="45.99974" lon="3.50674">
        <ele>376.60000610352</ele>
        <time>2021-05-23T09:08:12Z</time>
      </trkpt>
      <trkpt lat="45.99974" lon="3.50673">
        <ele>376.39999389648</ele>
        <time>2021-05-23T09:08:19Z</time>
      </trkpt>
      <trkpt lat="45.99972" lon="3.50675">
        <ele>376.39999389648</ele>
        <time>2021-05-23T09:08:22Z</time>
      </trkpt>
      <trkpt lat="45.99968" lon="3.5068">
        <ele>377.79998779297</ele>
        <time>2021-05-23T09:08:25Z</time>
      </trkpt>
      <trkpt lat="45.99968" lon="3.5068">
        <ele>377.79998779297</ele>
        <time>2021-05-23T09:08:32Z</time>
      </trkpt>
      <trkpt lat="45.99968" lon="3.5068">
        <ele>377.79998779297</ele>
        <time>2021-05-23T09:08:39Z</time>
      </trkpt>
      <trkpt lat="45.99968" lon="3.5068">
        <ele>377.79998779297</ele>
        <time>2021-05-23T09:08:40Z</time>
      </trkpt>
      <trkpt lat="45.99967" lon="3.5068">
        <ele>377.79998779297</ele>
        <time>2021-05-23T09:08:42Z</time>
      </trkpt>
      <trkpt lat="45.99967" lon="3.50679">
        <ele>377.39999389648</ele>
        <time>2021-05-23T09:08:48Z</time>
      </trkpt>
      <trkpt lat="45.99966" lon="3.50678">
        <ele>376.20001220703</ele>
        <time>2021-05-23T09:08:51Z</time>
      </trkpt>
      <trkpt lat="45.99965" lon="3.50679">
        <ele>376.39999389648</ele>
        <time>2021-05-23T09:08:52Z</time>
      </trkpt>
      <trkpt lat="45.99971" lon="3.50682">
        <ele>376.20001220703</ele>
        <time>2021-05-23T09:08:54Z</time>
      </trkpt>
      <trkpt lat="45.99971" lon="3.50682">
        <ele>376.60000610352</ele>
        <time>2021-05-23T09:08:56Z</time>
      </trkpt>
      <trkpt lat="45.99971" lon="3.50682">
        <ele>376.60000610352</ele>
        <time>2021-05-23T09:08:57Z</time>
      </trkpt>
      <trkpt lat="45.99971" lon="3.50682">
        <ele>376.60000610352</ele>
        <time>2021-05-23T09:08:58Z</time>
      </trkpt>
      <trkpt lat="45.99971" lon="3.50681">
        <ele>376.39999389648</ele>
        <time>2021-05-23T09:09:01Z</time>
      </trkpt>
      <trkpt lat="45.99971" lon="3.50681">
        <ele>376.39999389648</ele>
        <time>2021-05-23T09:09:02Z</time>
      </trkpt>
      <trkpt lat="45.99971" lon="3.5068">
        <ele>376.39999389648</ele>
        <time>2021-05-23T09:09:07Z</time>
      </trkpt>
      <trkpt lat="45.99971" lon="3.5068">
        <ele>376.60000610352</ele>
        <time>2021-05-23T09:09:12Z</time>
      </trkpt>
      <trkpt lat="45.99961" lon="3.50686">
        <ele>376.60000610352</ele>
        <time>2021-05-23T09:09:20Z</time>
      </trkpt>
      <trkpt lat="45.99962" lon="3.50685">
        <ele>376.79998779297</ele>
        <time>2021-05-23T09:09:22Z</time>
      </trkpt>
      <trkpt lat="45.99955" lon="3.50686">
        <ele>376.60000610352</ele>
        <time>2021-05-23T09:09:32Z</time>
      </trkpt>
      <trkpt lat="45.99947" lon="3.50692">
        <ele>376.60000610352</ele>
        <time>2021-05-23T09:09:42Z</time>
      </trkpt>
      <trkpt lat="45.99947" lon="3.50691">
        <ele>376</ele>
        <time>2021-05-23T09:09:52Z</time>
      </trkpt>
      <trkpt lat="45.99947" lon="3.50691">
        <ele>376</ele>
        <time>2021-05-23T09:09:55Z</time>
      </trkpt>
      <trkpt lat="45.99947" lon="3.50692">
        <ele>376</ele>
        <time>2021-05-23T09:10:02Z</time>
      </trkpt>
      <trkpt lat="45.99949" lon="3.50691">
        <ele>375.79998779297</ele>
        <time>2021-05-23T09:10:07Z</time>
      </trkpt>
      <trkpt lat="45.9995" lon="3.50692">
        <ele>376</ele>
        <time>2021-05-23T09:10:12Z</time>
      </trkpt>
      <trkpt lat="45.99961" lon="3.5068">
        <ele>376</ele>
        <time>2021-05-23T09:10:20Z</time>
      </trkpt>
      <trkpt lat="45.9996" lon="3.50679">
        <ele>375.79998779297</ele>
        <time>2021-05-23T09:10:22Z</time>
      </trkpt>
      <trkpt lat="45.99967" lon="3.50674">
        <ele>376</ele>
        <time>2021-05-23T09:10:32Z</time>
      </trkpt>
      <trkpt lat="45.99971" lon="3.50673">
        <ele>376</ele>
        <time>2021-05-23T09:10:42Z</time>
      </trkpt>
      <trkpt lat="45.99973" lon="3.50673">
        <ele>376.60000610352</ele>
        <time>2021-05-23T09:10:52Z</time>
      </trkpt>
      <trkpt lat="45.99972" lon="3.50673">
        <ele>376.60000610352</ele>
        <time>2021-05-23T09:11:02Z</time>
      </trkpt>
      <trkpt lat="45.99969" lon="3.50675">
        <ele>376.60000610352</ele>
        <time>2021-05-23T09:11:12Z</time>
      </trkpt>
      <trkpt lat="45.99968" lon="3.50676">
        <ele>376.60000610352</ele>
        <time>2021-05-23T09:11:22Z</time>
      </trkpt>
      <trkpt lat="45.9996" lon="3.50685">
        <ele>376.60000610352</ele>
        <time>2021-05-23T09:11:32Z</time>
      </trkpt>
      <trkpt lat="45.99956" lon="3.50685">
        <ele>376.60000610352</ele>
        <time>2021-05-23T09:11:42Z</time>
      </trkpt>
      <trkpt lat="45.99959" lon="3.50682">
        <ele>376.60000610352</ele>
        <time>2021-05-23T09:11:43Z</time>
      </trkpt>
      <trkpt lat="45.99962" lon="3.50678">
        <ele>376.60000610352</ele>
        <time>2021-05-23T09:11:45Z</time>
      </trkpt>
      <trkpt lat="45.99962" lon="3.50677">
        <ele>376.39999389648</ele>
        <time>2021-05-23T09:11:47Z</time>
      </trkpt>
      <trkpt lat="45.99962" lon="3.50676">
        <ele>376.39999389648</ele>
        <time>2021-05-23T09:11:52Z</time>
      </trkpt>
      <trkpt lat="45.9996" lon="3.50677">
        <ele>376.39999389648</ele>
        <time>2021-05-23T09:12:00Z</time>
      </trkpt>
      <trkpt lat="45.99961" lon="3.50676">
        <ele>376.20001220703</ele>
        <time>2021-05-23T09:12:02Z</time>
      </trkpt>
      <trkpt lat="45.99961" lon="3.50671">
        <ele>376</ele>
        <time>2021-05-23T09:12:12Z</time>
      </trkpt>
      <trkpt lat="45.99954" lon="3.50672">
        <ele>376</ele>
        <time>2021-05-23T09:12:17Z</time>
      </trkpt>
      <trkpt lat="45.99956" lon="3.50672">
        <ele>376</ele>
        <time>2021-05-23T09:12:22Z</time>
      </trkpt>
      <trkpt lat="45.99956" lon="3.50675">
        <ele>375.79998779297</ele>
        <time>2021-05-23T09:12:27Z</time>
      </trkpt>
      <trkpt lat="45.99958" lon="3.50677">
        <ele>375.79998779297</ele>
        <time>2021-05-23T09:12:30Z</time>
      </trkpt>
      <trkpt lat="45.99959" lon="3.50676">
        <ele>376</ele>
        <time>2021-05-23T09:12:32Z</time>
      </trkpt>
      <trkpt lat="45.99958" lon="3.50675">
        <ele>376</ele>
        <time>2021-05-23T09:12:34Z</time>
      </trkpt>
      <trkpt lat="45.99958" lon="3.50673">
        <ele>375.39999389648</ele>
        <time>2021-05-23T09:12:38Z</time>
      </trkpt>
      <trkpt lat="45.99954" lon="3.50668">
        <ele>375.20001220703</ele>
        <time>2021-05-23T09:12:41Z</time>
      </trkpt>
      <trkpt lat="45.99955" lon="3.50668">
        <ele>375.20001220703</ele>
        <time>2021-05-23T09:12:42Z</time>
      </trkpt>
      <trkpt lat="45.99954" lon="3.50668">
        <ele>375.20001220703</ele>
        <time>2021-05-23T09:12:45Z</time>
      </trkpt>
      <trkpt lat="45.99957" lon="3.5067">
        <ele>375</ele>
        <time>2021-05-23T09:12:52Z</time>
      </trkpt>
      <trkpt lat="45.99956" lon="3.50671">
        <ele>375.20001220703</ele>
        <time>2021-05-23T09:12:55Z</time>
      </trkpt>
      <trkpt lat="45.99955" lon="3.50672">
        <ele>375.20001220703</ele>
        <time>2021-05-23T09:12:57Z</time>
      </trkpt>
      <trkpt lat="45.99957" lon="3.50674">
        <ele>375.20001220703</ele>
        <time>2021-05-23T09:13:01Z</time>
      </trkpt>
      <trkpt lat="45.99957" lon="3.50675">
        <ele>375.20001220703</ele>
        <time>2021-05-23T09:13:02Z</time>
      </trkpt>
      <trkpt lat="45.99957" lon="3.50673">
        <ele>375.20001220703</ele>
        <time>2021-05-23T09:13:12Z</time>
      </trkpt>
      <trkpt lat="45.99956" lon="3.50673">
        <ele>375.20001220703</ele>
        <time>2021-05-23T09:13:13Z</time>
      </trkpt>
      <trkpt lat="45.99956" lon="3.50673">
        <ele>375.20001220703</ele>
        <time>2021-05-23T09:13:14Z</time>
      </trkpt>
      <trkpt lat="45.9995" lon="3.50673">
        <ele>375.39999389648</ele>
        <time>2021-05-23T09:13:20Z</time>
      </trkpt>
      <trkpt lat="45.99948" lon="3.50672">
        <ele>375.60000610352</ele>
        <time>2021-05-23T09:13:22Z</time>
      </trkpt>
      <trkpt lat="45.99946" lon="3.50672">
        <ele>375.60000610352</ele>
        <time>2021-05-23T09:13:24Z</time>
      </trkpt>
      <trkpt lat="45.99937" lon="3.5067">
        <ele>375.39999389648</ele>
        <time>2021-05-23T09:13:31Z</time>
      </trkpt>
      <trkpt lat="45.99935" lon="3.50669">
        <ele>375.39999389648</ele>
        <time>2021-05-23T09:13:32Z</time>
      </trkpt>
      <trkpt lat="45.99933" lon="3.50667">
        <ele>375.60000610352</ele>
        <time>2021-05-23T09:13:34Z</time>
      </trkpt>
      <trkpt lat="45.99932" lon="3.50667">
        <ele>375.60000610352</ele>
        <time>2021-05-23T09:13:35Z</time>
      </trkpt>
      <trkpt lat="45.99931" lon="3.50666">
        <ele>375.39999389648</ele>
        <time>2021-05-23T09:13:36Z</time>
      </trkpt>
      <trkpt lat="45.9993" lon="3.50665">
        <ele>375.20001220703</ele>
        <time>2021-05-23T09:13:37Z</time>
      </trkpt>
      <trkpt lat="45.99927" lon="3.50662">
        <ele>374.60000610352</ele>
        <time>2021-05-23T09:13:39Z</time>
      </trkpt>
      <trkpt lat="45.99925" lon="3.50657">
        <ele>374.39999389648</ele>
        <time>2021-05-23T09:13:42Z</time>
      </trkpt>
      <trkpt lat="45.99924" lon="3.50656">
        <ele>374.39999389648</ele>
        <time>2021-05-23T09:13:43Z</time>
      </trkpt>
      <trkpt lat="45.99922" lon="3.50653">
        <ele>374.39999389648</ele>
        <time>2021-05-23T09:13:45Z</time>
      </trkpt>
      <trkpt lat="45.99921" lon="3.50651">
        <ele>374.39999389648</ele>
        <time>2021-05-23T09:13:46Z</time>
      </trkpt>
      <trkpt lat="45.99919" lon="3.50644">
        <ele>374.20001220703</ele>
        <time>2021-05-23T09:13:50Z</time>
      </trkpt>
      <trkpt lat="45.99919" lon="3.50642">
        <ele>374</ele>
        <time>2021-05-23T09:13:51Z</time>
      </trkpt>
      <trkpt lat="45.99919" lon="3.50641">
        <ele>374</ele>
        <time>2021-05-23T09:13:52Z</time>
      </trkpt>
      <trkpt lat="45.99916" lon="3.5064">
        <ele>373.79998779297</ele>
        <time>2021-05-23T09:13:55Z</time>
      </trkpt>
      <trkpt lat="45.99914" lon="3.50638">
        <ele>373.60000610352</ele>
        <time>2021-05-23T09:13:57Z</time>
      </trkpt>
      <trkpt lat="45.99909" lon="3.50634">
        <ele>373.20001220703</ele>
        <time>2021-05-23T09:14:01Z</time>
      </trkpt>
      <trkpt lat="45.99908" lon="3.50633">
        <ele>373</ele>
        <time>2021-05-23T09:14:02Z</time>
      </trkpt>
      <trkpt lat="45.99907" lon="3.50629">
        <ele>373</ele>
        <time>2021-05-23T09:14:04Z</time>
      </trkpt>
      <trkpt lat="45.99906" lon="3.50627">
        <ele>373</ele>
        <time>2021-05-23T09:14:05Z</time>
      </trkpt>
      <trkpt lat="45.99906" lon="3.50625">
        <ele>373</ele>
        <time>2021-05-23T09:14:06Z</time>
      </trkpt>
      <trkpt lat="45.99905" lon="3.50624">
        <ele>373</ele>
        <time>2021-05-23T09:14:07Z</time>
      </trkpt>
      <trkpt lat="45.99905" lon="3.50623">
        <ele>373</ele>
        <time>2021-05-23T09:14:08Z</time>
      </trkpt>
      <trkpt lat="45.99905" lon="3.50622">
        <ele>372.79998779297</ele>
        <time>2021-05-23T09:14:09Z</time>
      </trkpt>
      <trkpt lat="45.99905" lon="3.50621">
        <ele>372.39999389648</ele>
        <time>2021-05-23T09:14:10Z</time>
      </trkpt>
      <trkpt lat="45.99906" lon="3.5062">
        <ele>372.20001220703</ele>
        <time>2021-05-23T09:14:12Z</time>
      </trkpt>
      <trkpt lat="45.99906" lon="3.50619">
        <ele>372.20001220703</ele>
        <time>2021-05-23T09:14:13Z</time>
      </trkpt>
      <trkpt lat="45.99906" lon="3.50619">
        <ele>372</ele>
        <time>2021-05-23T09:14:14Z</time>
      </trkpt>
      <trkpt lat="45.99906" lon="3.50619">
        <ele>372</ele>
        <time>2021-05-23T09:14:15Z</time>
      </trkpt>
      <trkpt lat="45.99905" lon="3.5062">
        <ele>372</ele>
        <time>2021-05-23T09:14:17Z</time>
      </trkpt>
      <trkpt lat="45.99901" lon="3.5062">
        <ele>371.79998779297</ele>
        <time>2021-05-23T09:14:22Z</time>
      </trkpt>
      <trkpt lat="45.99896" lon="3.50622">
        <ele>371.79998779297</ele>
        <time>2021-05-23T09:14:26Z</time>
      </trkpt>
      <trkpt lat="45.99892" lon="3.50618">
        <ele>371.60000610352</ele>
        <time>2021-05-23T09:14:31Z</time>
      </trkpt>
      <trkpt lat="45.99891" lon="3.50618">
        <ele>371.39999389648</ele>
        <time>2021-05-23T09:14:32Z</time>
      </trkpt>
      <trkpt lat="45.99889" lon="3.50617">
        <ele>371.39999389648</ele>
        <time>2021-05-23T09:14:33Z</time>
      </trkpt>
      <trkpt lat="45.99886" lon="3.50611">
        <ele>371</ele>
        <time>2021-05-23T09:14:37Z</time>
      </trkpt>
      <trkpt lat="45.99888" lon="3.50604">
        <ele>370.60000610352</ele>
        <time>2021-05-23T09:14:39Z</time>
      </trkpt>
      <trkpt lat="45.99889" lon="3.506">
        <ele>370.39999389648</ele>
        <time>2021-05-23T09:14:41Z</time>
      </trkpt>
      <trkpt lat="45.9989" lon="3.50598">
        <ele>370.39999389648</ele>
        <time>2021-05-23T09:14:42Z</time>
      </trkpt>
      <trkpt lat="45.99893" lon="3.50592">
        <ele>370</ele>
        <time>2021-05-23T09:14:46Z</time>
      </trkpt>
      <trkpt lat="45.99893" lon="3.50588">
        <ele>369.79998779297</ele>
        <time>2021-05-23T09:14:49Z</time>
      </trkpt>
      <trkpt lat="45.99892" lon="3.50583">
        <ele>369.20001220703</ele>
        <time>2021-05-23T09:14:52Z</time>
      </trkpt>
      <trkpt lat="45.99891" lon="3.5058">
        <ele>369.20001220703</ele>
        <time>2021-05-23T09:14:53Z</time>
      </trkpt>
      <trkpt lat="45.99892" lon="3.50578">
        <ele>369</ele>
        <time>2021-05-23T09:14:54Z</time>
      </trkpt>
      <trkpt lat="45.99882" lon="3.50573">
        <ele>368.79998779297</ele>
        <time>2021-05-23T09:14:57Z</time>
      </trkpt>
      <trkpt lat="45.99883" lon="3.50569">
        <ele>368.79998779297</ele>
        <time>2021-05-23T09:14:59Z</time>
      </trkpt>
      <trkpt lat="45.99885" lon="3.50563">
        <ele>369</ele>
        <time>2021-05-23T09:15:02Z</time>
      </trkpt>
      <trkpt lat="45.99895" lon="3.50551">
        <ele>369</ele>
        <time>2021-05-23T09:15:08Z</time>
      </trkpt>
      <trkpt lat="45.99894" lon="3.50539">
        <ele>368.39999389648</ele>
        <time>2021-05-23T09:15:12Z</time>
      </trkpt>
      <trkpt lat="45.99896" lon="3.50536">
        <ele>368</ele>
        <time>2021-05-23T09:15:14Z</time>
      </trkpt>
      <trkpt lat="45.99902" lon="3.5052">
        <ele>367.60000610352</ele>
        <time>2021-05-23T09:15:22Z</time>
      </trkpt>
      <trkpt lat="45.999" lon="3.50512">
        <ele>367.20001220703</ele>
        <time>2021-05-23T09:15:26Z</time>
      </trkpt>
      <trkpt lat="45.999" lon="3.50509">
        <ele>367</ele>
        <time>2021-05-23T09:15:30Z</time>
      </trkpt>
      <trkpt lat="45.999" lon="3.50508">
        <ele>366.79998779297</ele>
        <time>2021-05-23T09:15:31Z</time>
      </trkpt>
      <trkpt lat="45.999" lon="3.50506">
        <ele>366.79998779297</ele>
        <time>2021-05-23T09:15:32Z</time>
      </trkpt>
      <trkpt lat="45.99901" lon="3.50505">
        <ele>366.39999389648</ele>
        <time>2021-05-23T09:15:34Z</time>
      </trkpt>
      <trkpt lat="45.99901" lon="3.50501">
        <ele>366.39999389648</ele>
        <time>2021-05-23T09:15:37Z</time>
      </trkpt>
      <trkpt lat="45.99901" lon="3.50498">
        <ele>366.60000610352</ele>
        <time>2021-05-23T09:15:39Z</time>
      </trkpt>
      <trkpt lat="45.99901" lon="3.50492">
        <ele>366.60000610352</ele>
        <time>2021-05-23T09:15:42Z</time>
      </trkpt>
      <trkpt lat="45.99899" lon="3.50489">
        <ele>366.39999389648</ele>
        <time>2021-05-23T09:15:44Z</time>
      </trkpt>
      <trkpt lat="45.99898" lon="3.50483">
        <ele>365.79998779297</ele>
        <time>2021-05-23T09:15:47Z</time>
      </trkpt>
      <trkpt lat="45.99897" lon="3.50481">
        <ele>365.79998779297</ele>
        <time>2021-05-23T09:15:48Z</time>
      </trkpt>
      <trkpt lat="45.99898" lon="3.50477">
        <ele>365.39999389648</ele>
        <time>2021-05-23T09:15:51Z</time>
      </trkpt>
      <trkpt lat="45.99899" lon="3.50475">
        <ele>365.20001220703</ele>
        <time>2021-05-23T09:15:52Z</time>
      </trkpt>
      <trkpt lat="45.999" lon="3.5047">
        <ele>365.20001220703</ele>
        <time>2021-05-23T09:15:55Z</time>
      </trkpt>
      <trkpt lat="45.99903" lon="3.50466">
        <ele>365.20001220703</ele>
        <time>2021-05-23T09:15:58Z</time>
      </trkpt>
      <trkpt lat="45.99905" lon="3.50465">
        <ele>365.39999389648</ele>
        <time>2021-05-23T09:15:59Z</time>
      </trkpt>
      <trkpt lat="45.99905" lon="3.50462">
        <ele>365.39999389648</ele>
        <time>2021-05-23T09:16:00Z</time>
      </trkpt>
      <trkpt lat="45.99905" lon="3.50458">
        <ele>365.60000610352</ele>
        <time>2021-05-23T09:16:02Z</time>
      </trkpt>
      <trkpt lat="45.99903" lon="3.50443">
        <ele>364.60000610352</ele>
        <time>2021-05-23T09:16:08Z</time>
      </trkpt>
      <trkpt lat="45.99904" lon="3.50441">
        <ele>364.39999389648</ele>
        <time>2021-05-23T09:16:09Z</time>
      </trkpt>
      <trkpt lat="45.99905" lon="3.50439">
        <ele>364.20001220703</ele>
        <time>2021-05-23T09:16:10Z</time>
      </trkpt>
      <trkpt lat="45.99905" lon="3.50436">
        <ele>364.20001220703</ele>
        <time>2021-05-23T09:16:11Z</time>
      </trkpt>
      <trkpt lat="45.99907" lon="3.50434">
        <ele>364.20001220703</ele>
        <time>2021-05-23T09:16:12Z</time>
      </trkpt>
      <trkpt lat="45.99909" lon="3.50428">
        <ele>364.20001220703</ele>
        <time>2021-05-23T09:16:15Z</time>
      </trkpt>
      <trkpt lat="45.99911" lon="3.50414">
        <ele>363.60000610352</ele>
        <time>2021-05-23T09:16:22Z</time>
      </trkpt>
      <trkpt lat="45.99911" lon="3.5041">
        <ele>363.60000610352</ele>
        <time>2021-05-23T09:16:25Z</time>
      </trkpt>
      <trkpt lat="45.99911" lon="3.50405">
        <ele>363.39999389648</ele>
        <time>2021-05-23T09:16:27Z</time>
      </trkpt>
      <trkpt lat="45.9991" lon="3.50401">
        <ele>363.39999389648</ele>
        <time>2021-05-23T09:16:30Z</time>
      </trkpt>
      <trkpt lat="45.99912" lon="3.50398">
        <ele>363.20001220703</ele>
        <time>2021-05-23T09:16:32Z</time>
      </trkpt>
      <trkpt lat="45.99911" lon="3.50397">
        <ele>363</ele>
        <time>2021-05-23T09:16:33Z</time>
      </trkpt>
      <trkpt lat="45.9991" lon="3.50392">
        <ele>362.79998779297</ele>
        <time>2021-05-23T09:16:36Z</time>
      </trkpt>
      <trkpt lat="45.99907" lon="3.50386">
        <ele>363.20001220703</ele>
        <time>2021-05-23T09:16:42Z</time>
      </trkpt>
      <trkpt lat="45.99908" lon="3.5038">
        <ele>363.20001220703</ele>
        <time>2021-05-23T09:16:45Z</time>
      </trkpt>
      <trkpt lat="45.99911" lon="3.50367">
        <ele>362.60000610352</ele>
        <time>2021-05-23T09:16:52Z</time>
      </trkpt>
      <trkpt lat="45.9991" lon="3.50365">
        <ele>362.39999389648</ele>
        <time>2021-05-23T09:16:53Z</time>
      </trkpt>
      <trkpt lat="45.99909" lon="3.50362">
        <ele>362.20001220703</ele>
        <time>2021-05-23T09:16:55Z</time>
      </trkpt>
      <trkpt lat="45.99911" lon="3.50351">
        <ele>362.39999389648</ele>
        <time>2021-05-23T09:17:02Z</time>
      </trkpt>
      <trkpt lat="45.99911" lon="3.50349">
        <ele>362.20001220703</ele>
        <time>2021-05-23T09:17:03Z</time>
      </trkpt>
      <trkpt lat="45.9991" lon="3.50339">
        <ele>361.60000610352</ele>
        <time>2021-05-23T09:17:08Z</time>
      </trkpt>
      <trkpt lat="45.9991" lon="3.50335">
        <ele>361.39999389648</ele>
        <time>2021-05-23T09:17:10Z</time>
      </trkpt>
      <trkpt lat="45.9991" lon="3.50331">
        <ele>361.39999389648</ele>
        <time>2021-05-23T09:17:12Z</time>
      </trkpt>
      <trkpt lat="45.99915" lon="3.50314">
        <ele>361.39999389648</ele>
        <time>2021-05-23T09:17:20Z</time>
      </trkpt>
      <trkpt lat="45.99915" lon="3.5031">
        <ele>361.20001220703</ele>
        <time>2021-05-23T09:17:22Z</time>
      </trkpt>
      <trkpt lat="45.99915" lon="3.50307">
        <ele>361.20001220703</ele>
        <time>2021-05-23T09:17:23Z</time>
      </trkpt>
      <trkpt lat="45.99913" lon="3.50296">
        <ele>361.20001220703</ele>
        <time>2021-05-23T09:17:29Z</time>
      </trkpt>
      <trkpt lat="45.99911" lon="3.50292">
        <ele>361.20001220703</ele>
        <time>2021-05-23T09:17:32Z</time>
      </trkpt>
      <trkpt lat="45.9991" lon="3.50287">
        <ele>360.79998779297</ele>
        <time>2021-05-23T09:17:35Z</time>
      </trkpt>
      <trkpt lat="45.99911" lon="3.50278">
        <ele>361</ele>
        <time>2021-05-23T09:17:40Z</time>
      </trkpt>
      <trkpt lat="45.99911" lon="3.50274">
        <ele>361</ele>
        <time>2021-05-23T09:17:42Z</time>
      </trkpt>
      <trkpt lat="45.99911" lon="3.50266">
        <ele>360.79998779297</ele>
        <time>2021-05-23T09:17:47Z</time>
      </trkpt>
      <trkpt lat="45.99911" lon="3.50257">
        <ele>360.60000610352</ele>
        <time>2021-05-23T09:17:52Z</time>
      </trkpt>
      <trkpt lat="45.99911" lon="3.50251">
        <ele>360.39999389648</ele>
        <time>2021-05-23T09:17:55Z</time>
      </trkpt>
      <trkpt lat="45.99912" lon="3.50236">
        <ele>360</ele>
        <time>2021-05-23T09:18:02Z</time>
      </trkpt>
      <trkpt lat="45.99919" lon="3.50219">
        <ele>360</ele>
        <time>2021-05-23T09:18:12Z</time>
      </trkpt>
      <trkpt lat="45.99922" lon="3.50206">
        <ele>359.39999389648</ele>
        <time>2021-05-23T09:18:18Z</time>
      </trkpt>
      <trkpt lat="45.99923" lon="3.50199">
        <ele>359.39999389648</ele>
        <time>2021-05-23T09:18:22Z</time>
      </trkpt>
      <trkpt lat="45.99927" lon="3.50182">
        <ele>358.79998779297</ele>
        <time>2021-05-23T09:18:32Z</time>
      </trkpt>
      <trkpt lat="45.99932" lon="3.50162">
        <ele>358.60000610352</ele>
        <time>2021-05-23T09:18:42Z</time>
      </trkpt>
      <trkpt lat="45.99933" lon="3.50159">
        <ele>358.39999389648</ele>
        <time>2021-05-23T09:18:44Z</time>
      </trkpt>
      <trkpt lat="45.99935" lon="3.50146">
        <ele>358.39999389648</ele>
        <time>2021-05-23T09:18:52Z</time>
      </trkpt>
      <trkpt lat="45.99935" lon="3.50143">
        <ele>358.39999389648</ele>
        <time>2021-05-23T09:18:55Z</time>
      </trkpt>
      <trkpt lat="45.99939" lon="3.50132">
        <ele>358.20001220703</ele>
        <time>2021-05-23T09:19:02Z</time>
      </trkpt>
      <trkpt lat="45.99947" lon="3.50117">
        <ele>358</ele>
        <time>2021-05-23T09:19:12Z</time>
      </trkpt>
      <trkpt lat="45.99948" lon="3.50107">
        <ele>358</ele>
        <time>2021-05-23T09:19:19Z</time>
      </trkpt>
      <trkpt lat="45.99949" lon="3.50104">
        <ele>358.20001220703</ele>
        <time>2021-05-23T09:19:21Z</time>
      </trkpt>
      <trkpt lat="45.9995" lon="3.50102">
        <ele>358.39999389648</ele>
        <time>2021-05-23T09:19:22Z</time>
      </trkpt>
      <trkpt lat="45.9996" lon="3.50087">
        <ele>358.20001220703</ele>
        <time>2021-05-23T09:19:32Z</time>
      </trkpt>
      <trkpt lat="45.99961" lon="3.50083">
        <ele>358.39999389648</ele>
        <time>2021-05-23T09:19:34Z</time>
      </trkpt>
      <trkpt lat="45.99961" lon="3.50081">
        <ele>358.20001220703</ele>
        <time>2021-05-23T09:19:36Z</time>
      </trkpt>
      <trkpt lat="45.99961" lon="3.50078">
        <ele>358</ele>
        <time>2021-05-23T09:19:38Z</time>
      </trkpt>
      <trkpt lat="45.99962" lon="3.50071">
        <ele>358</ele>
        <time>2021-05-23T09:19:42Z</time>
      </trkpt>
      <trkpt lat="45.99966" lon="3.50058">
        <ele>357.39999389648</ele>
        <time>2021-05-23T09:19:51Z</time>
      </trkpt>
      <trkpt lat="45.99966" lon="3.50057">
        <ele>357.39999389648</ele>
        <time>2021-05-23T09:19:52Z</time>
      </trkpt>
      <trkpt lat="45.99967" lon="3.50055">
        <ele>357.20001220703</ele>
        <time>2021-05-23T09:19:53Z</time>
      </trkpt>
    </trkseg>
  </trk>
</gpx>